<?xml version="1.0" encoding="UTF-8" standalone="no" ?>
<gpx xmlns="http://www.topografix.com/GPX/1/1" xmlns:xsi="http://www.w3.org/2001/XMLSchema-instance" xsi:schemaLocation="http://www.topografix.com/GPX/1/1 http://www.topografix.com/GPX/1/1/gpx.xsd" version="1.1" creator="VisuGPX - https://www.visugpx.com">
  <metadata>
    <name>2015 11 02</name>
    <desc><![CDATA[rando de laurent]]></desc>
  </metadata>
  <trk>
    <name><![CDATA[2015/11/02_rando_laurent]]></name>
    <trkseg>
      <trkpt lat="48.85712" lon="2.34692">
        <ele>40.799999237061</ele>
        <time>2015-11-02T19:22:11.000Z</time>
      </trkpt>
      <trkpt lat="48.857" lon="2.34675">
        <ele>40.799999237061</ele>
        <time>2015-11-02T19:22:20.000Z</time>
      </trkpt>
      <trkpt lat="48.85698" lon="2.34666">
        <ele>40.599998474121</ele>
        <time>2015-11-02T19:22:23.000Z</time>
      </trkpt>
      <trkpt lat="48.85679" lon="2.34663">
        <ele>41.799999237061</ele>
        <time>2015-11-02T19:22:27.000Z</time>
      </trkpt>
      <trkpt lat="48.85681" lon="2.3466">
        <ele>41.599998474121</ele>
        <time>2015-11-02T19:22:28.000Z</time>
      </trkpt>
      <trkpt lat="48.85674" lon="2.34656">
        <ele>42.400001525879</ele>
        <time>2015-11-02T19:22:31.000Z</time>
      </trkpt>
      <trkpt lat="48.85659" lon="2.3465">
        <ele>43.599998474121</ele>
        <time>2015-11-02T19:22:35.000Z</time>
      </trkpt>
      <trkpt lat="48.85648" lon="2.34643">
        <ele>44.400001525879</ele>
        <time>2015-11-02T19:22:39.000Z</time>
      </trkpt>
      <trkpt lat="48.85645" lon="2.34642">
        <ele>44.599998474121</ele>
        <time>2015-11-02T19:22:40.000Z</time>
      </trkpt>
      <trkpt lat="48.85635" lon="2.34636">
        <ele>45.599998474121</ele>
        <time>2015-11-02T19:22:44.000Z</time>
      </trkpt>
      <trkpt lat="48.85615" lon="2.34632">
        <ele>47.200000762939</ele>
        <time>2015-11-02T19:22:49.000Z</time>
      </trkpt>
      <trkpt lat="48.85597" lon="2.34623">
        <ele>47.799999237061</ele>
        <time>2015-11-02T19:22:54.000Z</time>
      </trkpt>
      <trkpt lat="48.85577" lon="2.3462">
        <ele>47.599998474121</ele>
        <time>2015-11-02T19:23:00.000Z</time>
      </trkpt>
      <trkpt lat="48.85558" lon="2.3462">
        <ele>47.400001525879</ele>
        <time>2015-11-02T19:23:05.000Z</time>
      </trkpt>
      <trkpt lat="48.85542" lon="2.34632">
        <ele>46.799999237061</ele>
        <time>2015-11-02T19:23:12.000Z</time>
      </trkpt>
      <trkpt lat="48.8553" lon="2.34657">
        <ele>46.200000762939</ele>
        <time>2015-11-02T19:23:18.000Z</time>
      </trkpt>
      <trkpt lat="48.85521" lon="2.34685">
        <ele>43</ele>
        <time>2015-11-02T19:23:23.000Z</time>
      </trkpt>
      <trkpt lat="48.85511" lon="2.34707">
        <ele>39</ele>
        <time>2015-11-02T19:23:29.000Z</time>
      </trkpt>
      <trkpt lat="48.85498" lon="2.34731">
        <ele>36.400001525879</ele>
        <time>2015-11-02T19:23:36.000Z</time>
      </trkpt>
      <trkpt lat="48.85487" lon="2.34758">
        <ele>39</ele>
        <time>2015-11-02T19:23:43.000Z</time>
      </trkpt>
      <trkpt lat="48.85478" lon="2.34771">
        <ele>40.799999237061</ele>
        <time>2015-11-02T19:23:51.000Z</time>
      </trkpt>
      <trkpt lat="48.85459" lon="2.34768">
        <ele>42.799999237061</ele>
        <time>2015-11-02T19:24:01.000Z</time>
      </trkpt>
      <trkpt lat="48.8544" lon="2.34776">
        <ele>45</ele>
        <time>2015-11-02T19:24:07.000Z</time>
      </trkpt>
      <trkpt lat="48.85423" lon="2.3476">
        <ele>43</ele>
        <time>2015-11-02T19:24:15.000Z</time>
      </trkpt>
      <trkpt lat="48.85405" lon="2.34751">
        <ele>41.200000762939</ele>
        <time>2015-11-02T19:24:21.000Z</time>
      </trkpt>
      <trkpt lat="48.85385" lon="2.34745">
        <ele>39.599998474121</ele>
        <time>2015-11-02T19:24:27.000Z</time>
      </trkpt>
      <trkpt lat="48.85369" lon="2.34721">
        <ele>39</ele>
        <time>2015-11-02T19:24:32.000Z</time>
      </trkpt>
      <trkpt lat="48.85353" lon="2.34702">
        <ele>38.799999237061</ele>
        <time>2015-11-02T19:24:36.000Z</time>
      </trkpt>
      <trkpt lat="48.85334" lon="2.34686">
        <ele>40.799999237061</ele>
        <time>2015-11-02T19:24:42.000Z</time>
      </trkpt>
      <trkpt lat="48.85316" lon="2.34676">
        <ele>42.400001525879</ele>
        <time>2015-11-02T19:24:47.000Z</time>
      </trkpt>
      <trkpt lat="48.85297" lon="2.3467">
        <ele>44</ele>
        <time>2015-11-02T19:24:52.000Z</time>
      </trkpt>
      <trkpt lat="48.85279" lon="2.34658">
        <ele>45.599998474121</ele>
        <time>2015-11-02T19:24:59.000Z</time>
      </trkpt>
      <trkpt lat="48.85263" lon="2.34647">
        <ele>45.599998474121</ele>
        <time>2015-11-02T19:25:04.000Z</time>
      </trkpt>
      <trkpt lat="48.85241" lon="2.34641">
        <ele>45</ele>
        <time>2015-11-02T19:25:09.000Z</time>
      </trkpt>
      <trkpt lat="48.8522" lon="2.34638">
        <ele>44.799999237061</ele>
        <time>2015-11-02T19:25:14.000Z</time>
      </trkpt>
      <trkpt lat="48.85201" lon="2.34628">
        <ele>44.200000762939</ele>
        <time>2015-11-02T19:25:20.000Z</time>
      </trkpt>
      <trkpt lat="48.85183" lon="2.34619">
        <ele>44.200000762939</ele>
        <time>2015-11-02T19:25:25.000Z</time>
      </trkpt>
      <trkpt lat="48.85167" lon="2.34606">
        <ele>44.400001525879</ele>
        <time>2015-11-02T19:25:31.000Z</time>
      </trkpt>
      <trkpt lat="48.85148" lon="2.34595">
        <ele>44.799999237061</ele>
        <time>2015-11-02T19:25:40.000Z</time>
      </trkpt>
      <trkpt lat="48.85126" lon="2.3459">
        <ele>45.400001525879</ele>
        <time>2015-11-02T19:25:49.000Z</time>
      </trkpt>
      <trkpt lat="48.85105" lon="2.34593">
        <ele>46.200000762939</ele>
        <time>2015-11-02T19:25:53.000Z</time>
      </trkpt>
      <trkpt lat="48.85091" lon="2.3461">
        <ele>47.599998474121</ele>
        <time>2015-11-02T19:25:58.000Z</time>
      </trkpt>
      <trkpt lat="48.85082" lon="2.34638">
        <ele>48.599998474121</ele>
        <time>2015-11-02T19:26:03.000Z</time>
      </trkpt>
      <trkpt lat="48.85073" lon="2.3467">
        <ele>46.400001525879</ele>
        <time>2015-11-02T19:26:08.000Z</time>
      </trkpt>
      <trkpt lat="48.85066" lon="2.34699">
        <ele>45.599998474121</ele>
        <time>2015-11-02T19:26:12.000Z</time>
      </trkpt>
      <trkpt lat="48.8506" lon="2.34729">
        <ele>44.799999237061</ele>
        <time>2015-11-02T19:26:16.000Z</time>
      </trkpt>
      <trkpt lat="48.85052" lon="2.3476">
        <ele>43.799999237061</ele>
        <time>2015-11-02T19:26:21.000Z</time>
      </trkpt>
      <trkpt lat="48.85042" lon="2.34789">
        <ele>42.799999237061</ele>
        <time>2015-11-02T19:26:26.000Z</time>
      </trkpt>
      <trkpt lat="48.85035" lon="2.34818">
        <ele>42.200000762939</ele>
        <time>2015-11-02T19:26:31.000Z</time>
      </trkpt>
      <trkpt lat="48.85026" lon="2.34843">
        <ele>42</ele>
        <time>2015-11-02T19:26:35.000Z</time>
      </trkpt>
      <trkpt lat="48.85018" lon="2.3487">
        <ele>42.799999237061</ele>
        <time>2015-11-02T19:26:39.000Z</time>
      </trkpt>
      <trkpt lat="48.8501" lon="2.34896">
        <ele>44</ele>
        <time>2015-11-02T19:26:43.000Z</time>
      </trkpt>
      <trkpt lat="48.85002" lon="2.34922">
        <ele>45.400001525879</ele>
        <time>2015-11-02T19:26:47.000Z</time>
      </trkpt>
      <trkpt lat="48.84992" lon="2.34952">
        <ele>47.200000762939</ele>
        <time>2015-11-02T19:26:51.000Z</time>
      </trkpt>
      <trkpt lat="48.84983" lon="2.34982">
        <ele>46.400001525879</ele>
        <time>2015-11-02T19:26:55.000Z</time>
      </trkpt>
      <trkpt lat="48.84978" lon="2.35012">
        <ele>44.799999237061</ele>
        <time>2015-11-02T19:26:59.000Z</time>
      </trkpt>
      <trkpt lat="48.84971" lon="2.35045">
        <ele>44</ele>
        <time>2015-11-02T19:27:03.000Z</time>
      </trkpt>
      <trkpt lat="48.84964" lon="2.35073">
        <ele>42.799999237061</ele>
        <time>2015-11-02T19:27:06.000Z</time>
      </trkpt>
      <trkpt lat="48.84964" lon="2.35082">
        <ele>42.599998474121</ele>
        <time>2015-11-02T19:27:07.000Z</time>
      </trkpt>
      <trkpt lat="48.84963" lon="2.3511">
        <ele>42.599998474121</ele>
        <time>2015-11-02T19:27:10.000Z</time>
      </trkpt>
      <trkpt lat="48.84962" lon="2.35139">
        <ele>43</ele>
        <time>2015-11-02T19:27:13.000Z</time>
      </trkpt>
      <trkpt lat="48.84963" lon="2.35168">
        <ele>43.200000762939</ele>
        <time>2015-11-02T19:27:16.000Z</time>
      </trkpt>
      <trkpt lat="48.84962" lon="2.35197">
        <ele>42.599998474121</ele>
        <time>2015-11-02T19:27:19.000Z</time>
      </trkpt>
      <trkpt lat="48.8496" lon="2.35226">
        <ele>42.200000762939</ele>
        <time>2015-11-02T19:27:22.000Z</time>
      </trkpt>
      <trkpt lat="48.84959" lon="2.35259">
        <ele>41.599998474121</ele>
        <time>2015-11-02T19:27:26.000Z</time>
      </trkpt>
      <trkpt lat="48.84957" lon="2.35266">
        <ele>41.400001525879</ele>
        <time>2015-11-02T19:27:27.000Z</time>
      </trkpt>
      <trkpt lat="48.84942" lon="2.35278">
        <ele>42.200000762939</ele>
        <time>2015-11-02T19:27:32.000Z</time>
      </trkpt>
      <trkpt lat="48.84931" lon="2.3528">
        <ele>42</ele>
        <time>2015-11-02T19:27:35.000Z</time>
      </trkpt>
      <trkpt lat="48.84916" lon="2.35272">
        <ele>41.400001525879</ele>
        <time>2015-11-02T19:27:39.000Z</time>
      </trkpt>
      <trkpt lat="48.84895" lon="2.35261">
        <ele>40.599998474121</ele>
        <time>2015-11-02T19:27:44.000Z</time>
      </trkpt>
      <trkpt lat="48.84889" lon="2.35256">
        <ele>40.200000762939</ele>
        <time>2015-11-02T19:27:46.000Z</time>
      </trkpt>
      <trkpt lat="48.84872" lon="2.35243">
        <ele>39.599998474121</ele>
        <time>2015-11-02T19:27:50.000Z</time>
      </trkpt>
      <trkpt lat="48.84855" lon="2.35229">
        <ele>39.400001525879</ele>
        <time>2015-11-02T19:27:54.000Z</time>
      </trkpt>
      <trkpt lat="48.84835" lon="2.35211">
        <ele>40.400001525879</ele>
        <time>2015-11-02T19:27:59.000Z</time>
      </trkpt>
      <trkpt lat="48.84819" lon="2.35201">
        <ele>41</ele>
        <time>2015-11-02T19:28:03.000Z</time>
      </trkpt>
      <trkpt lat="48.84804" lon="2.35189">
        <ele>41.599998474121</ele>
        <time>2015-11-02T19:28:07.000Z</time>
      </trkpt>
      <trkpt lat="48.84798" lon="2.35183">
        <ele>42</ele>
        <time>2015-11-02T19:28:10.000Z</time>
      </trkpt>
      <trkpt lat="48.84797" lon="2.35174">
        <ele>42.200000762939</ele>
        <time>2015-11-02T19:28:15.000Z</time>
      </trkpt>
      <trkpt lat="48.84797" lon="2.35168">
        <ele>42.400001525879</ele>
        <time>2015-11-02T19:28:17.000Z</time>
      </trkpt>
      <trkpt lat="48.84802" lon="2.35161">
        <ele>42.599998474121</ele>
        <time>2015-11-02T19:28:25.000Z</time>
      </trkpt>
      <trkpt lat="48.84803" lon="2.3516">
        <ele>42.599998474121</ele>
        <time>2015-11-02T19:28:27.000Z</time>
      </trkpt>
      <trkpt lat="48.84792" lon="2.35182">
        <ele>42.200000762939</ele>
        <time>2015-11-02T19:28:43.000Z</time>
      </trkpt>
      <trkpt lat="48.84779" lon="2.35205">
        <ele>41.799999237061</ele>
        <time>2015-11-02T19:28:48.000Z</time>
      </trkpt>
      <trkpt lat="48.84772" lon="2.35221">
        <ele>41.599998474121</ele>
        <time>2015-11-02T19:28:52.000Z</time>
      </trkpt>
      <trkpt lat="48.84773" lon="2.35213">
        <ele>41.799999237061</ele>
        <time>2015-11-02T19:28:59.000Z</time>
      </trkpt>
      <trkpt lat="48.84768" lon="2.35198">
        <ele>42.400001525879</ele>
        <time>2015-11-02T19:29:06.000Z</time>
      </trkpt>
      <trkpt lat="48.84751" lon="2.35187">
        <ele>43.599998474121</ele>
        <time>2015-11-02T19:29:10.000Z</time>
      </trkpt>
      <trkpt lat="48.84747" lon="2.35185">
        <ele>43.799999237061</ele>
        <time>2015-11-02T19:29:11.000Z</time>
      </trkpt>
      <trkpt lat="48.84733" lon="2.35179">
        <ele>44.599998474121</ele>
        <time>2015-11-02T19:29:16.000Z</time>
      </trkpt>
      <trkpt lat="48.84713" lon="2.35174">
        <ele>45.599998474121</ele>
        <time>2015-11-02T19:29:22.000Z</time>
      </trkpt>
      <trkpt lat="48.84715" lon="2.35164">
        <ele>45.799999237061</ele>
        <time>2015-11-02T19:29:23.000Z</time>
      </trkpt>
      <trkpt lat="48.84706" lon="2.35149">
        <ele>47.200000762939</ele>
        <time>2015-11-02T19:29:28.000Z</time>
      </trkpt>
      <trkpt lat="48.84703" lon="2.35136">
        <ele>48</ele>
        <time>2015-11-02T19:29:31.000Z</time>
      </trkpt>
      <trkpt lat="48.84694" lon="2.35116">
        <ele>49.599998474121</ele>
        <time>2015-11-02T19:29:39.000Z</time>
      </trkpt>
      <trkpt lat="48.84689" lon="2.35101">
        <ele>50.799999237061</ele>
        <time>2015-11-02T19:29:45.000Z</time>
      </trkpt>
      <trkpt lat="48.84694" lon="2.35093">
        <ele>51</ele>
        <time>2015-11-02T19:29:55.000Z</time>
      </trkpt>
      <trkpt lat="48.84701" lon="2.35094">
        <ele>50.599998474121</ele>
        <time>2015-11-02T19:30:13.000Z</time>
      </trkpt>
      <trkpt lat="48.84691" lon="2.3509">
        <ele>51.400001525879</ele>
        <time>2015-11-02T19:30:23.000Z</time>
      </trkpt>
      <trkpt lat="48.84673" lon="2.35085">
        <ele>52.599998474121</ele>
        <time>2015-11-02T19:30:33.000Z</time>
      </trkpt>
      <trkpt lat="48.84676" lon="2.35079">
        <ele>52.799999237061</ele>
        <time>2015-11-02T19:30:34.000Z</time>
      </trkpt>
      <trkpt lat="48.84662" lon="2.35087">
        <ele>53</ele>
        <time>2015-11-02T19:30:51.000Z</time>
      </trkpt>
      <trkpt lat="48.84656" lon="2.35103">
        <ele>52.200000762939</ele>
        <time>2015-11-02T19:30:57.000Z</time>
      </trkpt>
      <trkpt lat="48.84638" lon="2.35102">
        <ele>53.200000762939</ele>
        <time>2015-11-02T19:31:01.000Z</time>
      </trkpt>
      <trkpt lat="48.84625" lon="2.35104">
        <ele>54</ele>
        <time>2015-11-02T19:31:09.000Z</time>
      </trkpt>
      <trkpt lat="48.8462" lon="2.3511">
        <ele>54.400001525879</ele>
        <time>2015-11-02T19:31:16.000Z</time>
      </trkpt>
      <trkpt lat="48.84612" lon="2.35112">
        <ele>55.400001525879</ele>
        <time>2015-11-02T19:31:20.000Z</time>
      </trkpt>
      <trkpt lat="48.84612" lon="2.3511">
        <ele>55.400001525879</ele>
        <time>2015-11-02T19:31:21.000Z</time>
      </trkpt>
      <trkpt lat="48.84596" lon="2.35094">
        <ele>56.599998474121</ele>
        <time>2015-11-02T19:31:39.000Z</time>
      </trkpt>
      <trkpt lat="48.8458" lon="2.35082">
        <ele>57.599998474121</ele>
        <time>2015-11-02T19:31:46.000Z</time>
      </trkpt>
      <trkpt lat="48.84586" lon="2.35047">
        <ele>58.799999237061</ele>
        <time>2015-11-02T19:31:52.000Z</time>
      </trkpt>
      <trkpt lat="48.84592" lon="2.35033">
        <ele>59.200000762939</ele>
        <time>2015-11-02T19:31:54.000Z</time>
      </trkpt>
      <trkpt lat="48.84609" lon="2.3501">
        <ele>59.200000762939</ele>
        <time>2015-11-02T19:31:57.000Z</time>
      </trkpt>
      <trkpt lat="48.84618" lon="2.34993">
        <ele>59.400001525879</ele>
        <time>2015-11-02T19:31:59.000Z</time>
      </trkpt>
      <trkpt lat="48.84629" lon="2.34966">
        <ele>59.200000762939</ele>
        <time>2015-11-02T19:32:02.000Z</time>
      </trkpt>
      <trkpt lat="48.84629" lon="2.34958">
        <ele>59.400001525879</ele>
        <time>2015-11-02T19:32:03.000Z</time>
      </trkpt>
      <trkpt lat="48.84632" lon="2.34932">
        <ele>59.599998474121</ele>
        <time>2015-11-02T19:32:07.000Z</time>
      </trkpt>
      <trkpt lat="48.84627" lon="2.34911">
        <ele>60.200000762939</ele>
        <time>2015-11-02T19:32:10.000Z</time>
      </trkpt>
      <trkpt lat="48.84628" lon="2.349">
        <ele>60.200000762939</ele>
        <time>2015-11-02T19:32:12.000Z</time>
      </trkpt>
      <trkpt lat="48.84633" lon="2.3488">
        <ele>60</ele>
        <time>2015-11-02T19:32:16.000Z</time>
      </trkpt>
      <trkpt lat="48.84641" lon="2.34854">
        <ele>60</ele>
        <time>2015-11-02T19:32:21.000Z</time>
      </trkpt>
      <trkpt lat="48.84648" lon="2.34825">
        <ele>60.599998474121</ele>
        <time>2015-11-02T19:32:26.000Z</time>
      </trkpt>
      <trkpt lat="48.84655" lon="2.34795">
        <ele>61.200000762939</ele>
        <time>2015-11-02T19:32:31.000Z</time>
      </trkpt>
      <trkpt lat="48.84665" lon="2.34767">
        <ele>62.200000762939</ele>
        <time>2015-11-02T19:32:36.000Z</time>
      </trkpt>
      <trkpt lat="48.84673" lon="2.34746">
        <ele>63</ele>
        <time>2015-11-02T19:32:42.000Z</time>
      </trkpt>
      <trkpt lat="48.84669" lon="2.34748">
        <ele>63</ele>
        <time>2015-11-02T19:32:46.000Z</time>
      </trkpt>
      <trkpt lat="48.84665" lon="2.3475">
        <ele>63</ele>
        <time>2015-11-02T19:32:48.000Z</time>
      </trkpt>
      <trkpt lat="48.84658" lon="2.34749">
        <ele>63</ele>
        <time>2015-11-02T19:32:57.000Z</time>
      </trkpt>
      <trkpt lat="48.84656" lon="2.34743">
        <ele>63</ele>
        <time>2015-11-02T19:33:41.000Z</time>
      </trkpt>
      <trkpt lat="48.84657" lon="2.34725">
        <ele>63.200000762939</ele>
        <time>2015-11-02T19:33:50.000Z</time>
      </trkpt>
      <trkpt lat="48.84651" lon="2.34723">
        <ele>63.200000762939</ele>
        <time>2015-11-02T19:33:54.000Z</time>
      </trkpt>
      <trkpt lat="48.84644" lon="2.34721">
        <ele>63.400001525879</ele>
        <time>2015-11-02T19:33:55.000Z</time>
      </trkpt>
      <trkpt lat="48.84625" lon="2.34712">
        <ele>63.400001525879</ele>
        <time>2015-11-02T19:33:59.000Z</time>
      </trkpt>
      <trkpt lat="48.84605" lon="2.34705">
        <ele>63.599998474121</ele>
        <time>2015-11-02T19:34:03.000Z</time>
      </trkpt>
      <trkpt lat="48.84598" lon="2.34701">
        <ele>64</ele>
        <time>2015-11-02T19:34:05.000Z</time>
      </trkpt>
      <trkpt lat="48.84582" lon="2.34692">
        <ele>64.800003051758</ele>
        <time>2015-11-02T19:34:09.000Z</time>
      </trkpt>
      <trkpt lat="48.84564" lon="2.34688">
        <ele>65.800003051758</ele>
        <time>2015-11-02T19:34:14.000Z</time>
      </trkpt>
      <trkpt lat="48.84544" lon="2.34684">
        <ele>66.800003051758</ele>
        <time>2015-11-02T19:34:24.000Z</time>
      </trkpt>
      <trkpt lat="48.84524" lon="2.34683">
        <ele>66.599998474121</ele>
        <time>2015-11-02T19:34:31.000Z</time>
      </trkpt>
      <trkpt lat="48.84505" lon="2.34672">
        <ele>66.599998474121</ele>
        <time>2015-11-02T19:34:39.000Z</time>
      </trkpt>
      <trkpt lat="48.84486" lon="2.34661">
        <ele>66.400001525879</ele>
        <time>2015-11-02T19:34:45.000Z</time>
      </trkpt>
      <trkpt lat="48.84468" lon="2.34653">
        <ele>65.800003051758</ele>
        <time>2015-11-02T19:34:49.000Z</time>
      </trkpt>
      <trkpt lat="48.8445" lon="2.34636">
        <ele>65.599998474121</ele>
        <time>2015-11-02T19:34:54.000Z</time>
      </trkpt>
      <trkpt lat="48.84434" lon="2.34617">
        <ele>65.599998474121</ele>
        <time>2015-11-02T19:35:00.000Z</time>
      </trkpt>
      <trkpt lat="48.84419" lon="2.34597">
        <ele>65.800003051758</ele>
        <time>2015-11-02T19:35:06.000Z</time>
      </trkpt>
      <trkpt lat="48.84405" lon="2.34581">
        <ele>65.800003051758</ele>
        <time>2015-11-02T19:35:13.000Z</time>
      </trkpt>
      <trkpt lat="48.84401" lon="2.34591">
        <ele>65.199996948242</ele>
        <time>2015-11-02T19:35:22.000Z</time>
      </trkpt>
      <trkpt lat="48.84385" lon="2.34608">
        <ele>64</ele>
        <time>2015-11-02T19:35:29.000Z</time>
      </trkpt>
      <trkpt lat="48.84369" lon="2.34624">
        <ele>64</ele>
        <time>2015-11-02T19:35:35.000Z</time>
      </trkpt>
      <trkpt lat="48.84351" lon="2.34637">
        <ele>63.799999237061</ele>
        <time>2015-11-02T19:35:43.000Z</time>
      </trkpt>
      <trkpt lat="48.84333" lon="2.34655">
        <ele>62.599998474121</ele>
        <time>2015-11-02T19:35:49.000Z</time>
      </trkpt>
      <trkpt lat="48.84316" lon="2.34669">
        <ele>61.200000762939</ele>
        <time>2015-11-02T19:35:53.000Z</time>
      </trkpt>
      <trkpt lat="48.84297" lon="2.34687">
        <ele>60.400001525879</ele>
        <time>2015-11-02T19:35:58.000Z</time>
      </trkpt>
      <trkpt lat="48.8428" lon="2.34705">
        <ele>60.799999237061</ele>
        <time>2015-11-02T19:36:03.000Z</time>
      </trkpt>
      <trkpt lat="48.84263" lon="2.34716">
        <ele>60.799999237061</ele>
        <time>2015-11-02T19:36:07.000Z</time>
      </trkpt>
      <trkpt lat="48.84261" lon="2.3472">
        <ele>60.799999237061</ele>
        <time>2015-11-02T19:36:08.000Z</time>
      </trkpt>
      <trkpt lat="48.84253" lon="2.34737">
        <ele>61.400001525879</ele>
        <time>2015-11-02T19:36:14.000Z</time>
      </trkpt>
      <trkpt lat="48.84235" lon="2.34749">
        <ele>60.799999237061</ele>
        <time>2015-11-02T19:36:21.000Z</time>
      </trkpt>
      <trkpt lat="48.84215" lon="2.34763">
        <ele>59.400001525879</ele>
        <time>2015-11-02T19:36:26.000Z</time>
      </trkpt>
      <trkpt lat="48.84199" lon="2.3478">
        <ele>58.400001525879</ele>
        <time>2015-11-02T19:36:30.000Z</time>
      </trkpt>
      <trkpt lat="48.84183" lon="2.34795">
        <ele>58</ele>
        <time>2015-11-02T19:36:36.000Z</time>
      </trkpt>
      <trkpt lat="48.84179" lon="2.34793">
        <ele>57.799999237061</ele>
        <time>2015-11-02T19:36:41.000Z</time>
      </trkpt>
      <trkpt lat="48.84187" lon="2.34788">
        <ele>58</ele>
        <time>2015-11-02T19:36:53.000Z</time>
      </trkpt>
      <trkpt lat="48.84192" lon="2.34782">
        <ele>58.200000762939</ele>
        <time>2015-11-02T19:36:57.000Z</time>
      </trkpt>
      <trkpt lat="48.84193" lon="2.3478">
        <ele>58.200000762939</ele>
        <time>2015-11-02T19:36:59.000Z</time>
      </trkpt>
      <trkpt lat="48.84198" lon="2.34776">
        <ele>58.400001525879</ele>
        <time>2015-11-02T19:37:04.000Z</time>
      </trkpt>
      <trkpt lat="48.84199" lon="2.34775">
        <ele>58.400001525879</ele>
        <time>2015-11-02T19:37:06.000Z</time>
      </trkpt>
      <trkpt lat="48.84204" lon="2.34776">
        <ele>58.799999237061</ele>
        <time>2015-11-02T19:37:12.000Z</time>
      </trkpt>
      <trkpt lat="48.84202" lon="2.34782">
        <ele>58.599998474121</ele>
        <time>2015-11-02T19:37:16.000Z</time>
      </trkpt>
      <trkpt lat="48.84189" lon="2.34801">
        <ele>58</ele>
        <time>2015-11-02T19:37:22.000Z</time>
      </trkpt>
      <trkpt lat="48.84172" lon="2.34816">
        <ele>57.799999237061</ele>
        <time>2015-11-02T19:37:27.000Z</time>
      </trkpt>
      <trkpt lat="48.84154" lon="2.34827">
        <ele>56.799999237061</ele>
        <time>2015-11-02T19:37:32.000Z</time>
      </trkpt>
      <trkpt lat="48.84137" lon="2.34838">
        <ele>55.799999237061</ele>
        <time>2015-11-02T19:37:38.000Z</time>
      </trkpt>
      <trkpt lat="48.84121" lon="2.34851">
        <ele>54.400001525879</ele>
        <time>2015-11-02T19:37:44.000Z</time>
      </trkpt>
      <trkpt lat="48.84102" lon="2.34861">
        <ele>52.599998474121</ele>
        <time>2015-11-02T19:37:51.000Z</time>
      </trkpt>
      <trkpt lat="48.84094" lon="2.34865">
        <ele>51.799999237061</ele>
        <time>2015-11-02T19:37:56.000Z</time>
      </trkpt>
      <trkpt lat="48.84082" lon="2.34872">
        <ele>50.599998474121</ele>
        <time>2015-11-02T19:38:02.000Z</time>
      </trkpt>
      <trkpt lat="48.84074" lon="2.34884">
        <ele>49.200000762939</ele>
        <time>2015-11-02T19:38:07.000Z</time>
      </trkpt>
      <trkpt lat="48.84074" lon="2.34913">
        <ele>47.200000762939</ele>
        <time>2015-11-02T19:38:14.000Z</time>
      </trkpt>
      <trkpt lat="48.84068" lon="2.3494">
        <ele>47</ele>
        <time>2015-11-02T19:38:22.000Z</time>
      </trkpt>
      <trkpt lat="48.84066" lon="2.34969">
        <ele>47.200000762939</ele>
        <time>2015-11-02T19:38:28.000Z</time>
      </trkpt>
      <trkpt lat="48.84062" lon="2.34998">
        <ele>46.799999237061</ele>
        <time>2015-11-02T19:38:34.000Z</time>
      </trkpt>
      <trkpt lat="48.84057" lon="2.35028">
        <ele>45.400001525879</ele>
        <time>2015-11-02T19:38:42.000Z</time>
      </trkpt>
      <trkpt lat="48.84054" lon="2.35054">
        <ele>44.799999237061</ele>
        <time>2015-11-02T19:38:52.000Z</time>
      </trkpt>
      <trkpt lat="48.8405" lon="2.35051">
        <ele>44.599998474121</ele>
        <time>2015-11-02T19:39:37.000Z</time>
      </trkpt>
      <trkpt lat="48.84033" lon="2.3506">
        <ele>43.799999237061</ele>
        <time>2015-11-02T19:39:43.000Z</time>
      </trkpt>
      <trkpt lat="48.84034" lon="2.3509">
        <ele>43.400001525879</ele>
        <time>2015-11-02T19:39:49.000Z</time>
      </trkpt>
      <trkpt lat="48.84038" lon="2.351">
        <ele>43.599998474121</ele>
        <time>2015-11-02T19:39:51.000Z</time>
      </trkpt>
      <trkpt lat="48.84048" lon="2.35125">
        <ele>44</ele>
        <time>2015-11-02T19:39:57.000Z</time>
      </trkpt>
      <trkpt lat="48.84059" lon="2.35151">
        <ele>44.400001525879</ele>
        <time>2015-11-02T19:40:05.000Z</time>
      </trkpt>
      <trkpt lat="48.84071" lon="2.35172">
        <ele>44.799999237061</ele>
        <time>2015-11-02T19:40:12.000Z</time>
      </trkpt>
      <trkpt lat="48.84075" lon="2.35175">
        <ele>44.799999237061</ele>
        <time>2015-11-02T19:40:14.000Z</time>
      </trkpt>
      <trkpt lat="48.8408" lon="2.35177">
        <ele>45</ele>
        <time>2015-11-02T19:40:19.000Z</time>
      </trkpt>
      <trkpt lat="48.84093" lon="2.35185">
        <ele>45.599998474121</ele>
        <time>2015-11-02T19:40:36.000Z</time>
      </trkpt>
      <trkpt lat="48.84093" lon="2.35212">
        <ele>45.599998474121</ele>
        <time>2015-11-02T19:40:45.000Z</time>
      </trkpt>
      <trkpt lat="48.84093" lon="2.35242">
        <ele>45.400001525879</ele>
        <time>2015-11-02T19:40:54.000Z</time>
      </trkpt>
      <trkpt lat="48.8409" lon="2.35273">
        <ele>44.599998474121</ele>
        <time>2015-11-02T19:40:59.000Z</time>
      </trkpt>
      <trkpt lat="48.84076" lon="2.35303">
        <ele>43.200000762939</ele>
        <time>2015-11-02T19:41:03.000Z</time>
      </trkpt>
      <trkpt lat="48.84073" lon="2.35314">
        <ele>42.599998474121</ele>
        <time>2015-11-02T19:41:07.000Z</time>
      </trkpt>
      <trkpt lat="48.84067" lon="2.35301">
        <ele>42.799999237061</ele>
        <time>2015-11-02T19:41:32.000Z</time>
      </trkpt>
      <trkpt lat="48.84063" lon="2.35295">
        <ele>42.799999237061</ele>
        <time>2015-11-02T19:41:37.000Z</time>
      </trkpt>
      <trkpt lat="48.84055" lon="2.35306">
        <ele>41.799999237061</ele>
        <time>2015-11-02T19:42:18.000Z</time>
      </trkpt>
      <trkpt lat="48.84037" lon="2.35314">
        <ele>40.400001525879</ele>
        <time>2015-11-02T19:42:24.000Z</time>
      </trkpt>
      <trkpt lat="48.84019" lon="2.35325">
        <ele>39</ele>
        <time>2015-11-02T19:42:28.000Z</time>
      </trkpt>
      <trkpt lat="48.84002" lon="2.35336">
        <ele>38.599998474121</ele>
        <time>2015-11-02T19:42:32.000Z</time>
      </trkpt>
      <trkpt lat="48.83988" lon="2.35357">
        <ele>38</ele>
        <time>2015-11-02T19:42:38.000Z</time>
      </trkpt>
      <trkpt lat="48.83973" lon="2.35373">
        <ele>37.799999237061</ele>
        <time>2015-11-02T19:42:42.000Z</time>
      </trkpt>
      <trkpt lat="48.83952" lon="2.35384">
        <ele>38.400001525879</ele>
        <time>2015-11-02T19:42:47.000Z</time>
      </trkpt>
      <trkpt lat="48.83934" lon="2.35397">
        <ele>39</ele>
        <time>2015-11-02T19:42:51.000Z</time>
      </trkpt>
      <trkpt lat="48.83911" lon="2.35405">
        <ele>39.799999237061</ele>
        <time>2015-11-02T19:42:56.000Z</time>
      </trkpt>
      <trkpt lat="48.83904" lon="2.35404">
        <ele>40.200000762939</ele>
        <time>2015-11-02T19:42:58.000Z</time>
      </trkpt>
      <trkpt lat="48.83893" lon="2.35383">
        <ele>40.200000762939</ele>
        <time>2015-11-02T19:43:04.000Z</time>
      </trkpt>
      <trkpt lat="48.83891" lon="2.35379">
        <ele>40.200000762939</ele>
        <time>2015-11-02T19:43:05.000Z</time>
      </trkpt>
      <trkpt lat="48.83881" lon="2.35355">
        <ele>40.400001525879</ele>
        <time>2015-11-02T19:43:12.000Z</time>
      </trkpt>
      <trkpt lat="48.83871" lon="2.35357">
        <ele>40.799999237061</ele>
        <time>2015-11-02T19:43:17.000Z</time>
      </trkpt>
      <trkpt lat="48.8385" lon="2.35364">
        <ele>42</ele>
        <time>2015-11-02T19:43:25.000Z</time>
      </trkpt>
      <trkpt lat="48.83832" lon="2.3537">
        <ele>44</ele>
        <time>2015-11-02T19:43:32.000Z</time>
      </trkpt>
      <trkpt lat="48.83814" lon="2.3538">
        <ele>46</ele>
        <time>2015-11-02T19:43:40.000Z</time>
      </trkpt>
      <trkpt lat="48.83799" lon="2.35395">
        <ele>47.799999237061</ele>
        <time>2015-11-02T19:43:46.000Z</time>
      </trkpt>
      <trkpt lat="48.83784" lon="2.35416">
        <ele>49.799999237061</ele>
        <time>2015-11-02T19:43:53.000Z</time>
      </trkpt>
      <trkpt lat="48.83774" lon="2.35419">
        <ele>50.799999237061</ele>
        <time>2015-11-02T19:44:00.000Z</time>
      </trkpt>
      <trkpt lat="48.8377" lon="2.35417">
        <ele>51</ele>
        <time>2015-11-02T19:44:05.000Z</time>
      </trkpt>
      <trkpt lat="48.83775" lon="2.35415">
        <ele>50.799999237061</ele>
        <time>2015-11-02T19:44:17.000Z</time>
      </trkpt>
      <trkpt lat="48.83768" lon="2.35397">
        <ele>50.799999237061</ele>
        <time>2015-11-02T19:44:36.000Z</time>
      </trkpt>
      <trkpt lat="48.83759" lon="2.35367">
        <ele>50.799999237061</ele>
        <time>2015-11-02T19:44:42.000Z</time>
      </trkpt>
      <trkpt lat="48.8375" lon="2.35339">
        <ele>50.599998474121</ele>
        <time>2015-11-02T19:44:47.000Z</time>
      </trkpt>
      <trkpt lat="48.83742" lon="2.35309">
        <ele>50.400001525879</ele>
        <time>2015-11-02T19:44:53.000Z</time>
      </trkpt>
      <trkpt lat="48.83736" lon="2.35299">
        <ele>50.400001525879</ele>
        <time>2015-11-02T19:44:56.000Z</time>
      </trkpt>
      <trkpt lat="48.83716" lon="2.35311">
        <ele>51.200000762939</ele>
        <time>2015-11-02T19:45:10.000Z</time>
      </trkpt>
      <trkpt lat="48.837" lon="2.35327">
        <ele>51.599998474121</ele>
        <time>2015-11-02T19:45:17.000Z</time>
      </trkpt>
      <trkpt lat="48.83682" lon="2.3534">
        <ele>52.400001525879</ele>
        <time>2015-11-02T19:45:24.000Z</time>
      </trkpt>
      <trkpt lat="48.83664" lon="2.35345">
        <ele>53</ele>
        <time>2015-11-02T19:45:33.000Z</time>
      </trkpt>
      <trkpt lat="48.8366" lon="2.35342">
        <ele>53.200000762939</ele>
        <time>2015-11-02T19:45:36.000Z</time>
      </trkpt>
      <trkpt lat="48.83644" lon="2.35323">
        <ele>53.400001525879</ele>
        <time>2015-11-02T19:45:45.000Z</time>
      </trkpt>
      <trkpt lat="48.83625" lon="2.35326">
        <ele>54.200000762939</ele>
        <time>2015-11-02T19:45:47.000Z</time>
      </trkpt>
      <trkpt lat="48.83604" lon="2.3534">
        <ele>55.200000762939</ele>
        <time>2015-11-02T19:45:51.000Z</time>
      </trkpt>
      <trkpt lat="48.83586" lon="2.35355">
        <ele>55.200000762939</ele>
        <time>2015-11-02T19:45:55.000Z</time>
      </trkpt>
      <trkpt lat="48.83569" lon="2.35372">
        <ele>55.400001525879</ele>
        <time>2015-11-02T19:45:59.000Z</time>
      </trkpt>
      <trkpt lat="48.83555" lon="2.35395">
        <ele>55.799999237061</ele>
        <time>2015-11-02T19:46:04.000Z</time>
      </trkpt>
      <trkpt lat="48.83552" lon="2.35404">
        <ele>55.799999237061</ele>
        <time>2015-11-02T19:46:06.000Z</time>
      </trkpt>
      <trkpt lat="48.83534" lon="2.35394">
        <ele>55.799999237061</ele>
        <time>2015-11-02T19:46:12.000Z</time>
      </trkpt>
      <trkpt lat="48.83531" lon="2.3539">
        <ele>55.799999237061</ele>
        <time>2015-11-02T19:46:13.000Z</time>
      </trkpt>
      <trkpt lat="48.83515" lon="2.35371">
        <ele>55.599998474121</ele>
        <time>2015-11-02T19:46:19.000Z</time>
      </trkpt>
      <trkpt lat="48.835" lon="2.35352">
        <ele>55.599998474121</ele>
        <time>2015-11-02T19:46:25.000Z</time>
      </trkpt>
      <trkpt lat="48.83486" lon="2.35334">
        <ele>55.400001525879</ele>
        <time>2015-11-02T19:46:38.000Z</time>
      </trkpt>
      <trkpt lat="48.83473" lon="2.3533">
        <ele>55.599998474121</ele>
        <time>2015-11-02T19:46:44.000Z</time>
      </trkpt>
      <trkpt lat="48.83456" lon="2.35349">
        <ele>56</ele>
        <time>2015-11-02T19:46:49.000Z</time>
      </trkpt>
      <trkpt lat="48.83444" lon="2.35356">
        <ele>57</ele>
        <time>2015-11-02T19:46:51.000Z</time>
      </trkpt>
      <trkpt lat="48.83432" lon="2.35363">
        <ele>57.799999237061</ele>
        <time>2015-11-02T19:46:53.000Z</time>
      </trkpt>
      <trkpt lat="48.83417" lon="2.35378">
        <ele>59.400001525879</ele>
        <time>2015-11-02T19:46:56.000Z</time>
      </trkpt>
      <trkpt lat="48.83406" lon="2.35389">
        <ele>60</ele>
        <time>2015-11-02T19:46:58.000Z</time>
      </trkpt>
      <trkpt lat="48.83388" lon="2.35402">
        <ele>60</ele>
        <time>2015-11-02T19:47:01.000Z</time>
      </trkpt>
      <trkpt lat="48.83383" lon="2.35407">
        <ele>60</ele>
        <time>2015-11-02T19:47:02.000Z</time>
      </trkpt>
      <trkpt lat="48.83363" lon="2.35423">
        <ele>60</ele>
        <time>2015-11-02T19:47:06.000Z</time>
      </trkpt>
      <trkpt lat="48.83344" lon="2.35428">
        <ele>60.400001525879</ele>
        <time>2015-11-02T19:47:09.000Z</time>
      </trkpt>
      <trkpt lat="48.83339" lon="2.35432">
        <ele>60.599998474121</ele>
        <time>2015-11-02T19:47:10.000Z</time>
      </trkpt>
      <trkpt lat="48.83328" lon="2.35438">
        <ele>61</ele>
        <time>2015-11-02T19:47:12.000Z</time>
      </trkpt>
      <trkpt lat="48.83307" lon="2.35454">
        <ele>61.599998474121</ele>
        <time>2015-11-02T19:47:16.000Z</time>
      </trkpt>
      <trkpt lat="48.83286" lon="2.35464">
        <ele>62.200000762939</ele>
        <time>2015-11-02T19:47:20.000Z</time>
      </trkpt>
      <trkpt lat="48.83272" lon="2.35475">
        <ele>62.799999237061</ele>
        <time>2015-11-02T19:47:23.000Z</time>
      </trkpt>
      <trkpt lat="48.83254" lon="2.35485">
        <ele>63</ele>
        <time>2015-11-02T19:47:27.000Z</time>
      </trkpt>
      <trkpt lat="48.83237" lon="2.35496">
        <ele>62.200000762939</ele>
        <time>2015-11-02T19:47:31.000Z</time>
      </trkpt>
      <trkpt lat="48.83233" lon="2.35498">
        <ele>62</ele>
        <time>2015-11-02T19:47:32.000Z</time>
      </trkpt>
      <trkpt lat="48.83213" lon="2.35501">
        <ele>61.599998474121</ele>
        <time>2015-11-02T19:47:39.000Z</time>
      </trkpt>
      <trkpt lat="48.83217" lon="2.35493">
        <ele>61.799999237061</ele>
        <time>2015-11-02T19:48:35.000Z</time>
      </trkpt>
      <trkpt lat="48.83205" lon="2.35508">
        <ele>61.400001525879</ele>
        <time>2015-11-02T19:49:10.000Z</time>
      </trkpt>
      <trkpt lat="48.83191" lon="2.35506">
        <ele>61</ele>
        <time>2015-11-02T19:49:22.000Z</time>
      </trkpt>
      <trkpt lat="48.83178" lon="2.35486">
        <ele>61.599998474121</ele>
        <time>2015-11-02T19:49:31.000Z</time>
      </trkpt>
      <trkpt lat="48.83161" lon="2.35471">
        <ele>62.400001525879</ele>
        <time>2015-11-02T19:49:40.000Z</time>
      </trkpt>
      <trkpt lat="48.83146" lon="2.35459">
        <ele>63</ele>
        <time>2015-11-02T19:50:08.000Z</time>
      </trkpt>
      <trkpt lat="48.83138" lon="2.35461">
        <ele>63.400001525879</ele>
        <time>2015-11-02T19:50:28.000Z</time>
      </trkpt>
      <trkpt lat="48.83123" lon="2.3548">
        <ele>64.199996948242</ele>
        <time>2015-11-02T19:50:39.000Z</time>
      </trkpt>
      <trkpt lat="48.83108" lon="2.35497">
        <ele>64.800003051758</ele>
        <time>2015-11-02T19:50:46.000Z</time>
      </trkpt>
      <trkpt lat="48.83092" lon="2.35511">
        <ele>65.599998474121</ele>
        <time>2015-11-02T19:50:54.000Z</time>
      </trkpt>
      <trkpt lat="48.8309" lon="2.35513">
        <ele>65.599998474121</ele>
        <time>2015-11-02T19:50:55.000Z</time>
      </trkpt>
      <trkpt lat="48.83082" lon="2.35541">
        <ele>65.400001525879</ele>
        <time>2015-11-02T19:51:04.000Z</time>
      </trkpt>
      <trkpt lat="48.83081" lon="2.35558">
        <ele>65</ele>
        <time>2015-11-02T19:51:09.000Z</time>
      </trkpt>
      <trkpt lat="48.83071" lon="2.35568">
        <ele>66.800003051758</ele>
        <time>2015-11-02T19:51:15.000Z</time>
      </trkpt>
      <trkpt lat="48.83071" lon="2.35591">
        <ele>67.599998474121</ele>
        <time>2015-11-02T19:51:38.000Z</time>
      </trkpt>
      <trkpt lat="48.83075" lon="2.35619">
        <ele>67.400001525879</ele>
        <time>2015-11-02T19:51:45.000Z</time>
      </trkpt>
      <trkpt lat="48.83078" lon="2.35636">
        <ele>67.199996948242</ele>
        <time>2015-11-02T19:51:50.000Z</time>
      </trkpt>
      <trkpt lat="48.8309" lon="2.35661">
        <ele>65.199996948242</ele>
        <time>2015-11-02T19:51:57.000Z</time>
      </trkpt>
      <trkpt lat="48.83102" lon="2.35688">
        <ele>65.199996948242</ele>
        <time>2015-11-02T19:52:02.000Z</time>
      </trkpt>
      <trkpt lat="48.8311" lon="2.35712">
        <ele>65.599998474121</ele>
        <time>2015-11-02T19:52:06.000Z</time>
      </trkpt>
      <trkpt lat="48.83121" lon="2.35739">
        <ele>66.199996948242</ele>
        <time>2015-11-02T19:52:10.000Z</time>
      </trkpt>
      <trkpt lat="48.83132" lon="2.35768">
        <ele>65.599998474121</ele>
        <time>2015-11-02T19:52:14.000Z</time>
      </trkpt>
      <trkpt lat="48.83142" lon="2.35795">
        <ele>64.400001525879</ele>
        <time>2015-11-02T19:52:18.000Z</time>
      </trkpt>
      <trkpt lat="48.83158" lon="2.35813">
        <ele>63.400001525879</ele>
        <time>2015-11-02T19:52:22.000Z</time>
      </trkpt>
      <trkpt lat="48.83167" lon="2.35839">
        <ele>62.200000762939</ele>
        <time>2015-11-02T19:52:26.000Z</time>
      </trkpt>
      <trkpt lat="48.83176" lon="2.35861">
        <ele>60.799999237061</ele>
        <time>2015-11-02T19:52:29.000Z</time>
      </trkpt>
      <trkpt lat="48.83186" lon="2.35884">
        <ele>59.599998474121</ele>
        <time>2015-11-02T19:52:32.000Z</time>
      </trkpt>
      <trkpt lat="48.83194" lon="2.35909">
        <ele>58.400001525879</ele>
        <time>2015-11-02T19:52:35.000Z</time>
      </trkpt>
      <trkpt lat="48.83201" lon="2.35927">
        <ele>58</ele>
        <time>2015-11-02T19:52:37.000Z</time>
      </trkpt>
      <trkpt lat="48.83213" lon="2.35954">
        <ele>57.200000762939</ele>
        <time>2015-11-02T19:52:40.000Z</time>
      </trkpt>
      <trkpt lat="48.83223" lon="2.35981">
        <ele>56.400001525879</ele>
        <time>2015-11-02T19:52:43.000Z</time>
      </trkpt>
      <trkpt lat="48.83234" lon="2.36009">
        <ele>56.200000762939</ele>
        <time>2015-11-02T19:52:46.000Z</time>
      </trkpt>
      <trkpt lat="48.83245" lon="2.36036">
        <ele>56.599998474121</ele>
        <time>2015-11-02T19:52:49.000Z</time>
      </trkpt>
      <trkpt lat="48.83255" lon="2.36061">
        <ele>57.200000762939</ele>
        <time>2015-11-02T19:52:52.000Z</time>
      </trkpt>
      <trkpt lat="48.83265" lon="2.36086">
        <ele>57</ele>
        <time>2015-11-02T19:52:55.000Z</time>
      </trkpt>
      <trkpt lat="48.83276" lon="2.36111">
        <ele>56</ele>
        <time>2015-11-02T19:52:58.000Z</time>
      </trkpt>
      <trkpt lat="48.83287" lon="2.36136">
        <ele>54.799999237061</ele>
        <time>2015-11-02T19:53:01.000Z</time>
      </trkpt>
      <trkpt lat="48.83295" lon="2.36169">
        <ele>52.799999237061</ele>
        <time>2015-11-02T19:53:05.000Z</time>
      </trkpt>
      <trkpt lat="48.83303" lon="2.36197">
        <ele>51.599998474121</ele>
        <time>2015-11-02T19:53:09.000Z</time>
      </trkpt>
      <trkpt lat="48.8331" lon="2.36226">
        <ele>51.599998474121</ele>
        <time>2015-11-02T19:53:13.000Z</time>
      </trkpt>
      <trkpt lat="48.83312" lon="2.36234">
        <ele>51.599998474121</ele>
        <time>2015-11-02T19:53:14.000Z</time>
      </trkpt>
      <trkpt lat="48.83323" lon="2.36265">
        <ele>51.200000762939</ele>
        <time>2015-11-02T19:53:18.000Z</time>
      </trkpt>
      <trkpt lat="48.83334" lon="2.36296">
        <ele>50.599998474121</ele>
        <time>2015-11-02T19:53:22.000Z</time>
      </trkpt>
      <trkpt lat="48.83345" lon="2.36324">
        <ele>50.400001525879</ele>
        <time>2015-11-02T19:53:26.000Z</time>
      </trkpt>
      <trkpt lat="48.83349" lon="2.36349">
        <ele>50</ele>
        <time>2015-11-02T19:53:32.000Z</time>
      </trkpt>
      <trkpt lat="48.83331" lon="2.36367">
        <ele>50.400001525879</ele>
        <time>2015-11-02T19:53:44.000Z</time>
      </trkpt>
      <trkpt lat="48.83333" lon="2.36396">
        <ele>50</ele>
        <time>2015-11-02T19:53:54.000Z</time>
      </trkpt>
      <trkpt lat="48.83346" lon="2.36419">
        <ele>49.200000762939</ele>
        <time>2015-11-02T19:53:58.000Z</time>
      </trkpt>
      <trkpt lat="48.83359" lon="2.36446">
        <ele>48.799999237061</ele>
        <time>2015-11-02T19:54:02.000Z</time>
      </trkpt>
      <trkpt lat="48.8337" lon="2.3647">
        <ele>48.200000762939</ele>
        <time>2015-11-02T19:54:06.000Z</time>
      </trkpt>
      <trkpt lat="48.83385" lon="2.36492">
        <ele>47.200000762939</ele>
        <time>2015-11-02T19:54:10.000Z</time>
      </trkpt>
      <trkpt lat="48.83388" lon="2.36498">
        <ele>47</ele>
        <time>2015-11-02T19:54:11.000Z</time>
      </trkpt>
      <trkpt lat="48.83401" lon="2.36525">
        <ele>46.599998474121</ele>
        <time>2015-11-02T19:54:15.000Z</time>
      </trkpt>
      <trkpt lat="48.83409" lon="2.36551">
        <ele>46.400001525879</ele>
        <time>2015-11-02T19:54:19.000Z</time>
      </trkpt>
      <trkpt lat="48.83417" lon="2.36581">
        <ele>45.599998474121</ele>
        <time>2015-11-02T19:54:23.000Z</time>
      </trkpt>
      <trkpt lat="48.83425" lon="2.3661">
        <ele>44</ele>
        <time>2015-11-02T19:54:27.000Z</time>
      </trkpt>
      <trkpt lat="48.83434" lon="2.36636">
        <ele>42.599998474121</ele>
        <time>2015-11-02T19:54:30.000Z</time>
      </trkpt>
      <trkpt lat="48.83442" lon="2.36662">
        <ele>41</ele>
        <time>2015-11-02T19:54:33.000Z</time>
      </trkpt>
      <trkpt lat="48.83452" lon="2.3669">
        <ele>41.400001525879</ele>
        <time>2015-11-02T19:54:36.000Z</time>
      </trkpt>
      <trkpt lat="48.83463" lon="2.36717">
        <ele>42</ele>
        <time>2015-11-02T19:54:39.000Z</time>
      </trkpt>
      <trkpt lat="48.83466" lon="2.36727">
        <ele>42.200000762939</ele>
        <time>2015-11-02T19:54:40.000Z</time>
      </trkpt>
      <trkpt lat="48.83477" lon="2.36755">
        <ele>42.599998474121</ele>
        <time>2015-11-02T19:54:43.000Z</time>
      </trkpt>
      <trkpt lat="48.83488" lon="2.36783">
        <ele>42.200000762939</ele>
        <time>2015-11-02T19:54:46.000Z</time>
      </trkpt>
      <trkpt lat="48.83498" lon="2.3681">
        <ele>41.799999237061</ele>
        <time>2015-11-02T19:54:49.000Z</time>
      </trkpt>
      <trkpt lat="48.8351" lon="2.36835">
        <ele>41.400001525879</ele>
        <time>2015-11-02T19:54:52.000Z</time>
      </trkpt>
      <trkpt lat="48.83522" lon="2.36862">
        <ele>40.599998474121</ele>
        <time>2015-11-02T19:54:55.000Z</time>
      </trkpt>
      <trkpt lat="48.83526" lon="2.36891">
        <ele>40.200000762939</ele>
        <time>2015-11-02T19:54:58.000Z</time>
      </trkpt>
      <trkpt lat="48.83534" lon="2.36919">
        <ele>39.599998474121</ele>
        <time>2015-11-02T19:55:02.000Z</time>
      </trkpt>
      <trkpt lat="48.83536" lon="2.36926">
        <ele>39.599998474121</ele>
        <time>2015-11-02T19:55:03.000Z</time>
      </trkpt>
      <trkpt lat="48.83545" lon="2.36949">
        <ele>39.200000762939</ele>
        <time>2015-11-02T19:55:07.000Z</time>
      </trkpt>
      <trkpt lat="48.83555" lon="2.36977">
        <ele>38.799999237061</ele>
        <time>2015-11-02T19:55:11.000Z</time>
      </trkpt>
      <trkpt lat="48.83559" lon="2.36984">
        <ele>38.599998474121</ele>
        <time>2015-11-02T19:55:12.000Z</time>
      </trkpt>
      <trkpt lat="48.83573" lon="2.37015">
        <ele>38.400001525879</ele>
        <time>2015-11-02T19:55:16.000Z</time>
      </trkpt>
      <trkpt lat="48.83586" lon="2.37038">
        <ele>38.200000762939</ele>
        <time>2015-11-02T19:55:19.000Z</time>
      </trkpt>
      <trkpt lat="48.83595" lon="2.37054">
        <ele>38</ele>
        <time>2015-11-02T19:55:21.000Z</time>
      </trkpt>
      <trkpt lat="48.83609" lon="2.37076">
        <ele>37.400001525879</ele>
        <time>2015-11-02T19:55:24.000Z</time>
      </trkpt>
      <trkpt lat="48.83622" lon="2.37099">
        <ele>36.799999237061</ele>
        <time>2015-11-02T19:55:28.000Z</time>
      </trkpt>
      <trkpt lat="48.83633" lon="2.3712">
        <ele>36.200000762939</ele>
        <time>2015-11-02T19:55:32.000Z</time>
      </trkpt>
      <trkpt lat="48.83641" lon="2.37135">
        <ele>35.599998474121</ele>
        <time>2015-11-02T19:55:36.000Z</time>
      </trkpt>
      <trkpt lat="48.83646" lon="2.37154">
        <ele>35.400001525879</ele>
        <time>2015-11-02T19:55:44.000Z</time>
      </trkpt>
      <trkpt lat="48.83638" lon="2.37152">
        <ele>36.200000762939</ele>
        <time>2015-11-02T19:55:49.000Z</time>
      </trkpt>
      <trkpt lat="48.83613" lon="2.3717">
        <ele>38.799999237061</ele>
        <time>2015-11-02T19:55:55.000Z</time>
      </trkpt>
      <trkpt lat="48.83601" lon="2.37184">
        <ele>38.799999237061</ele>
        <time>2015-11-02T19:55:58.000Z</time>
      </trkpt>
      <trkpt lat="48.83579" lon="2.37196">
        <ele>38.400001525879</ele>
        <time>2015-11-02T19:56:01.000Z</time>
      </trkpt>
      <trkpt lat="48.83559" lon="2.37215">
        <ele>38.400001525879</ele>
        <time>2015-11-02T19:56:05.000Z</time>
      </trkpt>
      <trkpt lat="48.83542" lon="2.37227">
        <ele>39</ele>
        <time>2015-11-02T19:56:08.000Z</time>
      </trkpt>
      <trkpt lat="48.83527" lon="2.37243">
        <ele>39.799999237061</ele>
        <time>2015-11-02T19:56:11.000Z</time>
      </trkpt>
      <trkpt lat="48.8351" lon="2.37258">
        <ele>40.799999237061</ele>
        <time>2015-11-02T19:56:14.000Z</time>
      </trkpt>
      <trkpt lat="48.83493" lon="2.37272">
        <ele>41.799999237061</ele>
        <time>2015-11-02T19:56:17.000Z</time>
      </trkpt>
      <trkpt lat="48.83476" lon="2.37286">
        <ele>43</ele>
        <time>2015-11-02T19:56:20.000Z</time>
      </trkpt>
      <trkpt lat="48.83461" lon="2.373">
        <ele>41.200000762939</ele>
        <time>2015-11-02T19:56:23.000Z</time>
      </trkpt>
      <trkpt lat="48.83452" lon="2.37312">
        <ele>40.200000762939</ele>
        <time>2015-11-02T19:56:25.000Z</time>
      </trkpt>
      <trkpt lat="48.83434" lon="2.37327">
        <ele>38.599998474121</ele>
        <time>2015-11-02T19:56:29.000Z</time>
      </trkpt>
      <trkpt lat="48.83426" lon="2.37335">
        <ele>38.200000762939</ele>
        <time>2015-11-02T19:56:31.000Z</time>
      </trkpt>
      <trkpt lat="48.8341" lon="2.37352">
        <ele>37.200000762939</ele>
        <time>2015-11-02T19:56:35.000Z</time>
      </trkpt>
      <trkpt lat="48.83406" lon="2.37357">
        <ele>36.799999237061</ele>
        <time>2015-11-02T19:56:36.000Z</time>
      </trkpt>
      <trkpt lat="48.83393" lon="2.37375">
        <ele>36.200000762939</ele>
        <time>2015-11-02T19:56:40.000Z</time>
      </trkpt>
      <trkpt lat="48.83383" lon="2.37392">
        <ele>36.799999237061</ele>
        <time>2015-11-02T19:56:43.000Z</time>
      </trkpt>
      <trkpt lat="48.83366" lon="2.37409">
        <ele>37.599998474121</ele>
        <time>2015-11-02T19:56:47.000Z</time>
      </trkpt>
      <trkpt lat="48.83362" lon="2.37413">
        <ele>37.799999237061</ele>
        <time>2015-11-02T19:56:48.000Z</time>
      </trkpt>
      <trkpt lat="48.83347" lon="2.37426">
        <ele>38</ele>
        <time>2015-11-02T19:56:51.000Z</time>
      </trkpt>
      <trkpt lat="48.83332" lon="2.37439">
        <ele>37.400001525879</ele>
        <time>2015-11-02T19:56:54.000Z</time>
      </trkpt>
      <trkpt lat="48.83314" lon="2.37455">
        <ele>37</ele>
        <time>2015-11-02T19:56:58.000Z</time>
      </trkpt>
      <trkpt lat="48.83296" lon="2.37471">
        <ele>36.799999237061</ele>
        <time>2015-11-02T19:57:02.000Z</time>
      </trkpt>
      <trkpt lat="48.83279" lon="2.37488">
        <ele>36.799999237061</ele>
        <time>2015-11-02T19:57:06.000Z</time>
      </trkpt>
      <trkpt lat="48.8326" lon="2.37506">
        <ele>37</ele>
        <time>2015-11-02T19:57:10.000Z</time>
      </trkpt>
      <trkpt lat="48.8324" lon="2.37525">
        <ele>37.200000762939</ele>
        <time>2015-11-02T19:57:14.000Z</time>
      </trkpt>
      <trkpt lat="48.8323" lon="2.37534">
        <ele>37.200000762939</ele>
        <time>2015-11-02T19:57:16.000Z</time>
      </trkpt>
      <trkpt lat="48.83211" lon="2.37553">
        <ele>38.599998474121</ele>
        <time>2015-11-02T19:57:20.000Z</time>
      </trkpt>
      <trkpt lat="48.83193" lon="2.37566">
        <ele>39.799999237061</ele>
        <time>2015-11-02T19:57:24.000Z</time>
      </trkpt>
      <trkpt lat="48.83176" lon="2.37583">
        <ele>40.400001525879</ele>
        <time>2015-11-02T19:57:29.000Z</time>
      </trkpt>
      <trkpt lat="48.83171" lon="2.37589">
        <ele>40.400001525879</ele>
        <time>2015-11-02T19:57:31.000Z</time>
      </trkpt>
      <trkpt lat="48.83155" lon="2.37579">
        <ele>39.400001525879</ele>
        <time>2015-11-02T19:57:39.000Z</time>
      </trkpt>
      <trkpt lat="48.83154" lon="2.37577">
        <ele>39.200000762939</ele>
        <time>2015-11-02T19:57:40.000Z</time>
      </trkpt>
      <trkpt lat="48.8314" lon="2.37586">
        <ele>38.799999237061</ele>
        <time>2015-11-02T19:57:52.000Z</time>
      </trkpt>
      <trkpt lat="48.83133" lon="2.3759">
        <ele>38.599998474121</ele>
        <time>2015-11-02T19:57:53.000Z</time>
      </trkpt>
      <trkpt lat="48.83115" lon="2.37601">
        <ele>38.200000762939</ele>
        <time>2015-11-02T19:57:58.000Z</time>
      </trkpt>
      <trkpt lat="48.83098" lon="2.37617">
        <ele>38.400001525879</ele>
        <time>2015-11-02T19:58:04.000Z</time>
      </trkpt>
      <trkpt lat="48.83082" lon="2.37637">
        <ele>39.200000762939</ele>
        <time>2015-11-02T19:58:10.000Z</time>
      </trkpt>
      <trkpt lat="48.83066" lon="2.37657">
        <ele>39.400001525879</ele>
        <time>2015-11-02T19:58:17.000Z</time>
      </trkpt>
      <trkpt lat="48.83058" lon="2.37668">
        <ele>39.400001525879</ele>
        <time>2015-11-02T19:58:22.000Z</time>
      </trkpt>
      <trkpt lat="48.83055" lon="2.37682">
        <ele>39</ele>
        <time>2015-11-02T19:58:37.000Z</time>
      </trkpt>
      <trkpt lat="48.83046" lon="2.37677">
        <ele>39</ele>
        <time>2015-11-02T19:58:53.000Z</time>
      </trkpt>
      <trkpt lat="48.83027" lon="2.37692">
        <ele>38.400001525879</ele>
        <time>2015-11-02T19:59:00.000Z</time>
      </trkpt>
      <trkpt lat="48.83008" lon="2.37705">
        <ele>38.799999237061</ele>
        <time>2015-11-02T19:59:05.000Z</time>
      </trkpt>
      <trkpt lat="48.82991" lon="2.3772">
        <ele>39.200000762939</ele>
        <time>2015-11-02T19:59:10.000Z</time>
      </trkpt>
      <trkpt lat="48.82973" lon="2.37734">
        <ele>40.200000762939</ele>
        <time>2015-11-02T19:59:14.000Z</time>
      </trkpt>
      <trkpt lat="48.82957" lon="2.37746">
        <ele>41</ele>
        <time>2015-11-02T19:59:18.000Z</time>
      </trkpt>
      <trkpt lat="48.82939" lon="2.37762">
        <ele>41</ele>
        <time>2015-11-02T19:59:23.000Z</time>
      </trkpt>
      <trkpt lat="48.82921" lon="2.37778">
        <ele>39</ele>
        <time>2015-11-02T19:59:28.000Z</time>
      </trkpt>
      <trkpt lat="48.82905" lon="2.37792">
        <ele>37.200000762939</ele>
        <time>2015-11-02T19:59:33.000Z</time>
      </trkpt>
      <trkpt lat="48.82887" lon="2.37808">
        <ele>36.200000762939</ele>
        <time>2015-11-02T19:59:38.000Z</time>
      </trkpt>
      <trkpt lat="48.82866" lon="2.37823">
        <ele>35.400001525879</ele>
        <time>2015-11-02T19:59:43.000Z</time>
      </trkpt>
      <trkpt lat="48.82851" lon="2.37839">
        <ele>34.599998474121</ele>
        <time>2015-11-02T19:59:47.000Z</time>
      </trkpt>
      <trkpt lat="48.82845" lon="2.37849">
        <ele>34</ele>
        <time>2015-11-02T19:59:49.000Z</time>
      </trkpt>
      <trkpt lat="48.8284" lon="2.37879">
        <ele>32.400001525879</ele>
        <time>2015-11-02T19:59:53.000Z</time>
      </trkpt>
      <trkpt lat="48.82832" lon="2.37894">
        <ele>31.39999961853</ele>
        <time>2015-11-02T19:59:56.000Z</time>
      </trkpt>
      <trkpt lat="48.82827" lon="2.37902">
        <ele>31</ele>
        <time>2015-11-02T19:59:58.000Z</time>
      </trkpt>
      <trkpt lat="48.82815" lon="2.37928">
        <ele>30.60000038147</ele>
        <time>2015-11-02T20:00:03.000Z</time>
      </trkpt>
      <trkpt lat="48.8281" lon="2.37931">
        <ele>30.60000038147</ele>
        <time>2015-11-02T20:00:04.000Z</time>
      </trkpt>
      <trkpt lat="48.82794" lon="2.37948">
        <ele>30.200000762939</ele>
        <time>2015-11-02T20:00:08.000Z</time>
      </trkpt>
      <trkpt lat="48.8278" lon="2.37966">
        <ele>29</ele>
        <time>2015-11-02T20:00:12.000Z</time>
      </trkpt>
      <trkpt lat="48.82771" lon="2.37975">
        <ele>28.200000762939</ele>
        <time>2015-11-02T20:00:14.000Z</time>
      </trkpt>
      <trkpt lat="48.82753" lon="2.3799">
        <ele>28.39999961853</ele>
        <time>2015-11-02T20:00:18.000Z</time>
      </trkpt>
      <trkpt lat="48.82749" lon="2.37995">
        <ele>28.39999961853</ele>
        <time>2015-11-02T20:00:19.000Z</time>
      </trkpt>
      <trkpt lat="48.82734" lon="2.38011">
        <ele>29.200000762939</ele>
        <time>2015-11-02T20:00:23.000Z</time>
      </trkpt>
      <trkpt lat="48.82719" lon="2.38027">
        <ele>30</ele>
        <time>2015-11-02T20:00:27.000Z</time>
      </trkpt>
      <trkpt lat="48.82705" lon="2.38037">
        <ele>30.200000762939</ele>
        <time>2015-11-02T20:00:30.000Z</time>
      </trkpt>
      <trkpt lat="48.82686" lon="2.38049">
        <ele>30.39999961853</ele>
        <time>2015-11-02T20:00:34.000Z</time>
      </trkpt>
      <trkpt lat="48.82671" lon="2.38059">
        <ele>31.60000038147</ele>
        <time>2015-11-02T20:00:37.000Z</time>
      </trkpt>
      <trkpt lat="48.82654" lon="2.38074">
        <ele>32.200000762939</ele>
        <time>2015-11-02T20:00:41.000Z</time>
      </trkpt>
      <trkpt lat="48.82651" lon="2.38077">
        <ele>32.400001525879</ele>
        <time>2015-11-02T20:00:42.000Z</time>
      </trkpt>
      <trkpt lat="48.82639" lon="2.38087">
        <ele>32.799999237061</ele>
        <time>2015-11-02T20:00:45.000Z</time>
      </trkpt>
      <trkpt lat="48.82621" lon="2.38105">
        <ele>33.599998474121</ele>
        <time>2015-11-02T20:00:50.000Z</time>
      </trkpt>
      <trkpt lat="48.82617" lon="2.38109">
        <ele>33.599998474121</ele>
        <time>2015-11-02T20:00:51.000Z</time>
      </trkpt>
      <trkpt lat="48.82614" lon="2.38114">
        <ele>33.599998474121</ele>
        <time>2015-11-02T20:00:52.000Z</time>
      </trkpt>
      <trkpt lat="48.82603" lon="2.38137">
        <ele>33.400001525879</ele>
        <time>2015-11-02T20:00:57.000Z</time>
      </trkpt>
      <trkpt lat="48.82598" lon="2.38149">
        <ele>33.200000762939</ele>
        <time>2015-11-02T20:01:00.000Z</time>
      </trkpt>
      <trkpt lat="48.82593" lon="2.38161">
        <ele>33.200000762939</ele>
        <time>2015-11-02T20:01:04.000Z</time>
      </trkpt>
      <trkpt lat="48.82589" lon="2.38168">
        <ele>33.400001525879</ele>
        <time>2015-11-02T20:01:08.000Z</time>
      </trkpt>
      <trkpt lat="48.82583" lon="2.38157">
        <ele>33.400001525879</ele>
        <time>2015-11-02T20:01:52.000Z</time>
      </trkpt>
      <trkpt lat="48.82581" lon="2.38171">
        <ele>33.599998474121</ele>
        <time>2015-11-02T20:02:19.000Z</time>
      </trkpt>
      <trkpt lat="48.8258" lon="2.38176">
        <ele>33.799999237061</ele>
        <time>2015-11-02T20:02:22.000Z</time>
      </trkpt>
      <trkpt lat="48.82574" lon="2.38202">
        <ele>34.200000762939</ele>
        <time>2015-11-02T20:02:48.000Z</time>
      </trkpt>
      <trkpt lat="48.82581" lon="2.38228">
        <ele>34.400001525879</ele>
        <time>2015-11-02T20:02:55.000Z</time>
      </trkpt>
      <trkpt lat="48.82588" lon="2.38253">
        <ele>34.400001525879</ele>
        <time>2015-11-02T20:03:01.000Z</time>
      </trkpt>
      <trkpt lat="48.82596" lon="2.38279">
        <ele>34.200000762939</ele>
        <time>2015-11-02T20:03:07.000Z</time>
      </trkpt>
      <trkpt lat="48.82606" lon="2.38306">
        <ele>34</ele>
        <time>2015-11-02T20:03:13.000Z</time>
      </trkpt>
      <trkpt lat="48.82615" lon="2.38332">
        <ele>33.799999237061</ele>
        <time>2015-11-02T20:03:18.000Z</time>
      </trkpt>
      <trkpt lat="48.82628" lon="2.38359">
        <ele>33.400001525879</ele>
        <time>2015-11-02T20:03:23.000Z</time>
      </trkpt>
      <trkpt lat="48.82638" lon="2.38382">
        <ele>33.200000762939</ele>
        <time>2015-11-02T20:03:27.000Z</time>
      </trkpt>
      <trkpt lat="48.82649" lon="2.38408">
        <ele>33</ele>
        <time>2015-11-02T20:03:31.000Z</time>
      </trkpt>
      <trkpt lat="48.8266" lon="2.38434">
        <ele>32.400001525879</ele>
        <time>2015-11-02T20:03:35.000Z</time>
      </trkpt>
      <trkpt lat="48.82671" lon="2.38463">
        <ele>31.799999237061</ele>
        <time>2015-11-02T20:03:39.000Z</time>
      </trkpt>
      <trkpt lat="48.82684" lon="2.38492">
        <ele>31.200000762939</ele>
        <time>2015-11-02T20:03:43.000Z</time>
      </trkpt>
      <trkpt lat="48.82698" lon="2.38521">
        <ele>31.200000762939</ele>
        <time>2015-11-02T20:03:47.000Z</time>
      </trkpt>
      <trkpt lat="48.82713" lon="2.38548">
        <ele>31.39999961853</ele>
        <time>2015-11-02T20:03:51.000Z</time>
      </trkpt>
      <trkpt lat="48.82727" lon="2.38571">
        <ele>31.39999961853</ele>
        <time>2015-11-02T20:03:55.000Z</time>
      </trkpt>
      <trkpt lat="48.82741" lon="2.38596">
        <ele>31.39999961853</ele>
        <time>2015-11-02T20:03:59.000Z</time>
      </trkpt>
      <trkpt lat="48.82752" lon="2.38623">
        <ele>31.200000762939</ele>
        <time>2015-11-02T20:04:03.000Z</time>
      </trkpt>
      <trkpt lat="48.82757" lon="2.38636">
        <ele>31.200000762939</ele>
        <time>2015-11-02T20:04:05.000Z</time>
      </trkpt>
      <trkpt lat="48.8277" lon="2.38661">
        <ele>31</ele>
        <time>2015-11-02T20:04:09.000Z</time>
      </trkpt>
      <trkpt lat="48.82784" lon="2.3869">
        <ele>30.60000038147</ele>
        <time>2015-11-02T20:04:13.000Z</time>
      </trkpt>
      <trkpt lat="48.82788" lon="2.38697">
        <ele>30.39999961853</ele>
        <time>2015-11-02T20:04:14.000Z</time>
      </trkpt>
      <trkpt lat="48.82799" lon="2.3872">
        <ele>30</ele>
        <time>2015-11-02T20:04:17.000Z</time>
      </trkpt>
      <trkpt lat="48.8281" lon="2.38745">
        <ele>29.60000038147</ele>
        <time>2015-11-02T20:04:20.000Z</time>
      </trkpt>
      <trkpt lat="48.82823" lon="2.38769">
        <ele>29.60000038147</ele>
        <time>2015-11-02T20:04:23.000Z</time>
      </trkpt>
      <trkpt lat="48.82835" lon="2.38794">
        <ele>29.799999237061</ele>
        <time>2015-11-02T20:04:26.000Z</time>
      </trkpt>
      <trkpt lat="48.82847" lon="2.38819">
        <ele>30</ele>
        <time>2015-11-02T20:04:29.000Z</time>
      </trkpt>
      <trkpt lat="48.82858" lon="2.38845">
        <ele>30.200000762939</ele>
        <time>2015-11-02T20:04:32.000Z</time>
      </trkpt>
      <trkpt lat="48.8287" lon="2.38871">
        <ele>31.200000762939</ele>
        <time>2015-11-02T20:04:35.000Z</time>
      </trkpt>
      <trkpt lat="48.82878" lon="2.38889">
        <ele>31.799999237061</ele>
        <time>2015-11-02T20:04:37.000Z</time>
      </trkpt>
      <trkpt lat="48.82889" lon="2.38917">
        <ele>32.799999237061</ele>
        <time>2015-11-02T20:04:40.000Z</time>
      </trkpt>
      <trkpt lat="48.82899" lon="2.38947">
        <ele>34.400001525879</ele>
        <time>2015-11-02T20:04:43.000Z</time>
      </trkpt>
      <trkpt lat="48.82909" lon="2.38977">
        <ele>36</ele>
        <time>2015-11-02T20:04:46.000Z</time>
      </trkpt>
      <trkpt lat="48.82918" lon="2.39007">
        <ele>37.400001525879</ele>
        <time>2015-11-02T20:04:49.000Z</time>
      </trkpt>
      <trkpt lat="48.82927" lon="2.39035">
        <ele>37.799999237061</ele>
        <time>2015-11-02T20:04:52.000Z</time>
      </trkpt>
      <trkpt lat="48.82937" lon="2.39061">
        <ele>38.200000762939</ele>
        <time>2015-11-02T20:04:55.000Z</time>
      </trkpt>
      <trkpt lat="48.82949" lon="2.39088">
        <ele>37.599998474121</ele>
        <time>2015-11-02T20:04:58.000Z</time>
      </trkpt>
      <trkpt lat="48.82961" lon="2.39114">
        <ele>37</ele>
        <time>2015-11-02T20:05:01.000Z</time>
      </trkpt>
      <trkpt lat="48.82973" lon="2.3914">
        <ele>36.200000762939</ele>
        <time>2015-11-02T20:05:04.000Z</time>
      </trkpt>
      <trkpt lat="48.82984" lon="2.39167">
        <ele>35.599998474121</ele>
        <time>2015-11-02T20:05:07.000Z</time>
      </trkpt>
      <trkpt lat="48.82987" lon="2.39176">
        <ele>35.599998474121</ele>
        <time>2015-11-02T20:05:08.000Z</time>
      </trkpt>
      <trkpt lat="48.82996" lon="2.39203">
        <ele>36.200000762939</ele>
        <time>2015-11-02T20:05:11.000Z</time>
      </trkpt>
      <trkpt lat="48.83006" lon="2.39234">
        <ele>36.799999237061</ele>
        <time>2015-11-02T20:05:15.000Z</time>
      </trkpt>
      <trkpt lat="48.83014" lon="2.39256">
        <ele>37.200000762939</ele>
        <time>2015-11-02T20:05:18.000Z</time>
      </trkpt>
      <trkpt lat="48.83022" lon="2.39289">
        <ele>37</ele>
        <time>2015-11-02T20:05:22.000Z</time>
      </trkpt>
      <trkpt lat="48.83027" lon="2.39315">
        <ele>37.200000762939</ele>
        <time>2015-11-02T20:05:25.000Z</time>
      </trkpt>
      <trkpt lat="48.83032" lon="2.39343">
        <ele>37</ele>
        <time>2015-11-02T20:05:28.000Z</time>
      </trkpt>
      <trkpt lat="48.83037" lon="2.3937">
        <ele>36.400001525879</ele>
        <time>2015-11-02T20:05:31.000Z</time>
      </trkpt>
      <trkpt lat="48.83042" lon="2.39398">
        <ele>35.799999237061</ele>
        <time>2015-11-02T20:05:34.000Z</time>
      </trkpt>
      <trkpt lat="48.83049" lon="2.39424">
        <ele>35.599998474121</ele>
        <time>2015-11-02T20:05:37.000Z</time>
      </trkpt>
      <trkpt lat="48.83051" lon="2.39433">
        <ele>35.599998474121</ele>
        <time>2015-11-02T20:05:38.000Z</time>
      </trkpt>
      <trkpt lat="48.83057" lon="2.3946">
        <ele>35.799999237061</ele>
        <time>2015-11-02T20:05:41.000Z</time>
      </trkpt>
      <trkpt lat="48.83064" lon="2.39487">
        <ele>35.599998474121</ele>
        <time>2015-11-02T20:05:44.000Z</time>
      </trkpt>
      <trkpt lat="48.83071" lon="2.39514">
        <ele>35.200000762939</ele>
        <time>2015-11-02T20:05:47.000Z</time>
      </trkpt>
      <trkpt lat="48.83077" lon="2.39542">
        <ele>34.400001525879</ele>
        <time>2015-11-02T20:05:50.000Z</time>
      </trkpt>
      <trkpt lat="48.83084" lon="2.39569">
        <ele>34</ele>
        <time>2015-11-02T20:05:53.000Z</time>
      </trkpt>
      <trkpt lat="48.83092" lon="2.39595">
        <ele>34.200000762939</ele>
        <time>2015-11-02T20:05:56.000Z</time>
      </trkpt>
      <trkpt lat="48.831" lon="2.39621">
        <ele>34.400001525879</ele>
        <time>2015-11-02T20:05:59.000Z</time>
      </trkpt>
      <trkpt lat="48.83108" lon="2.39645">
        <ele>35</ele>
        <time>2015-11-02T20:06:02.000Z</time>
      </trkpt>
      <trkpt lat="48.8312" lon="2.39676">
        <ele>36.599998474121</ele>
        <time>2015-11-02T20:06:06.000Z</time>
      </trkpt>
      <trkpt lat="48.83127" lon="2.39696">
        <ele>37.799999237061</ele>
        <time>2015-11-02T20:06:09.000Z</time>
      </trkpt>
      <trkpt lat="48.83136" lon="2.3972">
        <ele>39.200000762939</ele>
        <time>2015-11-02T20:06:14.000Z</time>
      </trkpt>
      <trkpt lat="48.83143" lon="2.39737">
        <ele>40.400001525879</ele>
        <time>2015-11-02T20:06:19.000Z</time>
      </trkpt>
      <trkpt lat="48.83143" lon="2.39743">
        <ele>40.400001525879</ele>
        <time>2015-11-02T20:06:22.000Z</time>
      </trkpt>
      <trkpt lat="48.83132" lon="2.39722">
        <ele>38.799999237061</ele>
        <time>2015-11-02T20:06:44.000Z</time>
      </trkpt>
      <trkpt lat="48.83122" lon="2.39696">
        <ele>37.400001525879</ele>
        <time>2015-11-02T20:06:50.000Z</time>
      </trkpt>
      <trkpt lat="48.83111" lon="2.39667">
        <ele>35.599998474121</ele>
        <time>2015-11-02T20:06:55.000Z</time>
      </trkpt>
      <trkpt lat="48.83102" lon="2.39641">
        <ele>34.799999237061</ele>
        <time>2015-11-02T20:06:59.000Z</time>
      </trkpt>
      <trkpt lat="48.83092" lon="2.39614">
        <ele>34.400001525879</ele>
        <time>2015-11-02T20:07:03.000Z</time>
      </trkpt>
      <trkpt lat="48.83083" lon="2.39585">
        <ele>34</ele>
        <time>2015-11-02T20:07:07.000Z</time>
      </trkpt>
      <trkpt lat="48.83079" lon="2.3957">
        <ele>34</ele>
        <time>2015-11-02T20:07:09.000Z</time>
      </trkpt>
      <trkpt lat="48.83071" lon="2.3954">
        <ele>34.200000762939</ele>
        <time>2015-11-02T20:07:13.000Z</time>
      </trkpt>
      <trkpt lat="48.83069" lon="2.39533">
        <ele>34.400001525879</ele>
        <time>2015-11-02T20:07:14.000Z</time>
      </trkpt>
      <trkpt lat="48.83063" lon="2.3951">
        <ele>35</ele>
        <time>2015-11-02T20:07:17.000Z</time>
      </trkpt>
      <trkpt lat="48.83057" lon="2.39478">
        <ele>35.400001525879</ele>
        <time>2015-11-02T20:07:21.000Z</time>
      </trkpt>
      <trkpt lat="48.8305" lon="2.39446">
        <ele>35.599998474121</ele>
        <time>2015-11-02T20:07:25.000Z</time>
      </trkpt>
      <trkpt lat="48.83042" lon="2.39416">
        <ele>35.400001525879</ele>
        <time>2015-11-02T20:07:29.000Z</time>
      </trkpt>
      <trkpt lat="48.83036" lon="2.39388">
        <ele>36</ele>
        <time>2015-11-02T20:07:33.000Z</time>
      </trkpt>
      <trkpt lat="48.8303" lon="2.3936">
        <ele>36.599998474121</ele>
        <time>2015-11-02T20:07:38.000Z</time>
      </trkpt>
      <trkpt lat="48.83023" lon="2.3933">
        <ele>37</ele>
        <time>2015-11-02T20:07:43.000Z</time>
      </trkpt>
      <trkpt lat="48.83015" lon="2.393">
        <ele>37.200000762939</ele>
        <time>2015-11-02T20:07:48.000Z</time>
      </trkpt>
      <trkpt lat="48.83007" lon="2.39271">
        <ele>37.400001525879</ele>
        <time>2015-11-02T20:07:52.000Z</time>
      </trkpt>
      <trkpt lat="48.83001" lon="2.39243">
        <ele>37.400001525879</ele>
        <time>2015-11-02T20:07:56.000Z</time>
      </trkpt>
      <trkpt lat="48.82994" lon="2.39216">
        <ele>36.599998474121</ele>
        <time>2015-11-02T20:08:00.000Z</time>
      </trkpt>
      <trkpt lat="48.82985" lon="2.39189">
        <ele>36</ele>
        <time>2015-11-02T20:08:04.000Z</time>
      </trkpt>
      <trkpt lat="48.82983" lon="2.39183">
        <ele>36</ele>
        <time>2015-11-02T20:08:05.000Z</time>
      </trkpt>
      <trkpt lat="48.82973" lon="2.39155">
        <ele>35.799999237061</ele>
        <time>2015-11-02T20:08:10.000Z</time>
      </trkpt>
      <trkpt lat="48.82968" lon="2.39144">
        <ele>36.200000762939</ele>
        <time>2015-11-02T20:08:12.000Z</time>
      </trkpt>
      <trkpt lat="48.82957" lon="2.39121">
        <ele>36.799999237061</ele>
        <time>2015-11-02T20:08:16.000Z</time>
      </trkpt>
      <trkpt lat="48.82944" lon="2.39099">
        <ele>37.599998474121</ele>
        <time>2015-11-02T20:08:21.000Z</time>
      </trkpt>
      <trkpt lat="48.82933" lon="2.39078">
        <ele>37.799999237061</ele>
        <time>2015-11-02T20:08:28.000Z</time>
      </trkpt>
      <trkpt lat="48.82933" lon="2.39057">
        <ele>37.799999237061</ele>
        <time>2015-11-02T20:08:34.000Z</time>
      </trkpt>
      <trkpt lat="48.82933" lon="2.39028">
        <ele>38.200000762939</ele>
        <time>2015-11-02T20:08:40.000Z</time>
      </trkpt>
      <trkpt lat="48.82925" lon="2.38999">
        <ele>38</ele>
        <time>2015-11-02T20:08:46.000Z</time>
      </trkpt>
      <trkpt lat="48.82924" lon="2.38995">
        <ele>37.799999237061</ele>
        <time>2015-11-02T20:08:47.000Z</time>
      </trkpt>
      <trkpt lat="48.82928" lon="2.38984">
        <ele>37.799999237061</ele>
        <time>2015-11-02T20:08:52.000Z</time>
      </trkpt>
      <trkpt lat="48.8293" lon="2.3898">
        <ele>37.799999237061</ele>
        <time>2015-11-02T20:08:54.000Z</time>
      </trkpt>
      <trkpt lat="48.82925" lon="2.38964">
        <ele>37</ele>
        <time>2015-11-02T20:08:59.000Z</time>
      </trkpt>
      <trkpt lat="48.82913" lon="2.38936">
        <ele>35.400001525879</ele>
        <time>2015-11-02T20:09:05.000Z</time>
      </trkpt>
      <trkpt lat="48.82903" lon="2.38911">
        <ele>34</ele>
        <time>2015-11-02T20:09:10.000Z</time>
      </trkpt>
      <trkpt lat="48.82891" lon="2.38884">
        <ele>33</ele>
        <time>2015-11-02T20:09:15.000Z</time>
      </trkpt>
      <trkpt lat="48.82881" lon="2.38859">
        <ele>32.200000762939</ele>
        <time>2015-11-02T20:09:21.000Z</time>
      </trkpt>
      <trkpt lat="48.82879" lon="2.38854">
        <ele>32</ele>
        <time>2015-11-02T20:09:23.000Z</time>
      </trkpt>
      <trkpt lat="48.82895" lon="2.38842">
        <ele>32.599998474121</ele>
        <time>2015-11-02T20:09:51.000Z</time>
      </trkpt>
      <trkpt lat="48.82909" lon="2.3882">
        <ele>33</ele>
        <time>2015-11-02T20:09:59.000Z</time>
      </trkpt>
      <trkpt lat="48.82926" lon="2.38801">
        <ele>34</ele>
        <time>2015-11-02T20:10:06.000Z</time>
      </trkpt>
      <trkpt lat="48.82937" lon="2.3878">
        <ele>34.799999237061</ele>
        <time>2015-11-02T20:10:11.000Z</time>
      </trkpt>
      <trkpt lat="48.82952" lon="2.38755">
        <ele>36</ele>
        <time>2015-11-02T20:10:16.000Z</time>
      </trkpt>
      <trkpt lat="48.82965" lon="2.38736">
        <ele>36.599998474121</ele>
        <time>2015-11-02T20:10:21.000Z</time>
      </trkpt>
      <trkpt lat="48.82976" lon="2.38726">
        <ele>37</ele>
        <time>2015-11-02T20:10:26.000Z</time>
      </trkpt>
      <trkpt lat="48.82985" lon="2.3872">
        <ele>37.599998474121</ele>
        <time>2015-11-02T20:10:30.000Z</time>
      </trkpt>
      <trkpt lat="48.82995" lon="2.3872">
        <ele>38.400001525879</ele>
        <time>2015-11-02T20:11:11.000Z</time>
      </trkpt>
      <trkpt lat="48.82999" lon="2.38718">
        <ele>38.599998474121</ele>
        <time>2015-11-02T20:11:50.000Z</time>
      </trkpt>
      <trkpt lat="48.83017" lon="2.38702">
        <ele>39.400001525879</ele>
        <time>2015-11-02T20:11:59.000Z</time>
      </trkpt>
      <trkpt lat="48.83033" lon="2.38684">
        <ele>39.799999237061</ele>
        <time>2015-11-02T20:12:05.000Z</time>
      </trkpt>
      <trkpt lat="48.83049" lon="2.38669">
        <ele>40.400001525879</ele>
        <time>2015-11-02T20:12:14.000Z</time>
      </trkpt>
      <trkpt lat="48.83068" lon="2.38678">
        <ele>42.400001525879</ele>
        <time>2015-11-02T20:12:20.000Z</time>
      </trkpt>
      <trkpt lat="48.83083" lon="2.38694">
        <ele>44.599998474121</ele>
        <time>2015-11-02T20:12:25.000Z</time>
      </trkpt>
      <trkpt lat="48.831" lon="2.38713">
        <ele>46.799999237061</ele>
        <time>2015-11-02T20:12:30.000Z</time>
      </trkpt>
      <trkpt lat="48.83116" lon="2.38731">
        <ele>47</ele>
        <time>2015-11-02T20:12:34.000Z</time>
      </trkpt>
      <trkpt lat="48.83133" lon="2.38754">
        <ele>46.200000762939</ele>
        <time>2015-11-02T20:12:38.000Z</time>
      </trkpt>
      <trkpt lat="48.83149" lon="2.38771">
        <ele>45.400001525879</ele>
        <time>2015-11-02T20:12:41.000Z</time>
      </trkpt>
      <trkpt lat="48.83164" lon="2.38789">
        <ele>45</ele>
        <time>2015-11-02T20:12:44.000Z</time>
      </trkpt>
      <trkpt lat="48.83181" lon="2.38812">
        <ele>44.599998474121</ele>
        <time>2015-11-02T20:12:48.000Z</time>
      </trkpt>
      <trkpt lat="48.83197" lon="2.38837">
        <ele>44.799999237061</ele>
        <time>2015-11-02T20:12:52.000Z</time>
      </trkpt>
      <trkpt lat="48.8321" lon="2.38864">
        <ele>45.599998474121</ele>
        <time>2015-11-02T20:12:56.000Z</time>
      </trkpt>
      <trkpt lat="48.8322" lon="2.38883">
        <ele>46.200000762939</ele>
        <time>2015-11-02T20:12:59.000Z</time>
      </trkpt>
      <trkpt lat="48.83232" lon="2.38909">
        <ele>47</ele>
        <time>2015-11-02T20:13:03.000Z</time>
      </trkpt>
      <trkpt lat="48.83238" lon="2.38921">
        <ele>46.799999237061</ele>
        <time>2015-11-02T20:13:05.000Z</time>
      </trkpt>
      <trkpt lat="48.83245" lon="2.38934">
        <ele>46.200000762939</ele>
        <time>2015-11-02T20:13:07.000Z</time>
      </trkpt>
      <trkpt lat="48.83257" lon="2.38959">
        <ele>45.400001525879</ele>
        <time>2015-11-02T20:13:11.000Z</time>
      </trkpt>
      <trkpt lat="48.83267" lon="2.38982">
        <ele>44.400001525879</ele>
        <time>2015-11-02T20:13:15.000Z</time>
      </trkpt>
      <trkpt lat="48.83276" lon="2.39007">
        <ele>43.599998474121</ele>
        <time>2015-11-02T20:13:20.000Z</time>
      </trkpt>
      <trkpt lat="48.83282" lon="2.39024">
        <ele>42.599998474121</ele>
        <time>2015-11-02T20:13:24.000Z</time>
      </trkpt>
      <trkpt lat="48.8329" lon="2.39021">
        <ele>42.599998474121</ele>
        <time>2015-11-02T20:13:48.000Z</time>
      </trkpt>
      <trkpt lat="48.83304" lon="2.38999">
        <ele>41.400001525879</ele>
        <time>2015-11-02T20:13:59.000Z</time>
      </trkpt>
      <trkpt lat="48.83319" lon="2.3898">
        <ele>40</ele>
        <time>2015-11-02T20:14:04.000Z</time>
      </trkpt>
      <trkpt lat="48.83326" lon="2.38971">
        <ele>39.400001525879</ele>
        <time>2015-11-02T20:14:06.000Z</time>
      </trkpt>
      <trkpt lat="48.83344" lon="2.38951">
        <ele>38.799999237061</ele>
        <time>2015-11-02T20:14:10.000Z</time>
      </trkpt>
      <trkpt lat="48.83363" lon="2.38929">
        <ele>39</ele>
        <time>2015-11-02T20:14:14.000Z</time>
      </trkpt>
      <trkpt lat="48.83377" lon="2.3891">
        <ele>39.200000762939</ele>
        <time>2015-11-02T20:14:17.000Z</time>
      </trkpt>
      <trkpt lat="48.83384" lon="2.38896">
        <ele>39.200000762939</ele>
        <time>2015-11-02T20:14:19.000Z</time>
      </trkpt>
      <trkpt lat="48.83399" lon="2.38871">
        <ele>39.200000762939</ele>
        <time>2015-11-02T20:14:23.000Z</time>
      </trkpt>
      <trkpt lat="48.83416" lon="2.38847">
        <ele>40.599998474121</ele>
        <time>2015-11-02T20:14:27.000Z</time>
      </trkpt>
      <trkpt lat="48.83432" lon="2.38823">
        <ele>41.400001525879</ele>
        <time>2015-11-02T20:14:31.000Z</time>
      </trkpt>
      <trkpt lat="48.83447" lon="2.38804">
        <ele>41.799999237061</ele>
        <time>2015-11-02T20:14:35.000Z</time>
      </trkpt>
      <trkpt lat="48.83453" lon="2.38794">
        <ele>41.799999237061</ele>
        <time>2015-11-02T20:14:37.000Z</time>
      </trkpt>
      <trkpt lat="48.83467" lon="2.38769">
        <ele>41.799999237061</ele>
        <time>2015-11-02T20:14:42.000Z</time>
      </trkpt>
      <trkpt lat="48.83481" lon="2.3875">
        <ele>43</ele>
        <time>2015-11-02T20:14:46.000Z</time>
      </trkpt>
      <trkpt lat="48.83489" lon="2.38743">
        <ele>43.200000762939</ele>
        <time>2015-11-02T20:14:48.000Z</time>
      </trkpt>
      <trkpt lat="48.83503" lon="2.38726">
        <ele>43.200000762939</ele>
        <time>2015-11-02T20:14:53.000Z</time>
      </trkpt>
      <trkpt lat="48.8352" lon="2.38709">
        <ele>43</ele>
        <time>2015-11-02T20:14:59.000Z</time>
      </trkpt>
      <trkpt lat="48.83525" lon="2.38702">
        <ele>42.599998474121</ele>
        <time>2015-11-02T20:15:01.000Z</time>
      </trkpt>
      <trkpt lat="48.83538" lon="2.38688">
        <ele>40.599998474121</ele>
        <time>2015-11-02T20:15:05.000Z</time>
      </trkpt>
      <trkpt lat="48.83552" lon="2.38666">
        <ele>39.599998474121</ele>
        <time>2015-11-02T20:15:10.000Z</time>
      </trkpt>
      <trkpt lat="48.83566" lon="2.38648">
        <ele>39</ele>
        <time>2015-11-02T20:15:15.000Z</time>
      </trkpt>
      <trkpt lat="48.8358" lon="2.38645">
        <ele>38.200000762939</ele>
        <time>2015-11-02T20:15:21.000Z</time>
      </trkpt>
      <trkpt lat="48.83581" lon="2.38646">
        <ele>38.200000762939</ele>
        <time>2015-11-02T20:15:24.000Z</time>
      </trkpt>
      <trkpt lat="48.83583" lon="2.38645">
        <ele>38</ele>
        <time>2015-11-02T20:15:49.000Z</time>
      </trkpt>
      <trkpt lat="48.83594" lon="2.38667">
        <ele>37.599998474121</ele>
        <time>2015-11-02T20:15:55.000Z</time>
      </trkpt>
      <trkpt lat="48.83603" lon="2.38691">
        <ele>37.200000762939</ele>
        <time>2015-11-02T20:15:59.000Z</time>
      </trkpt>
      <trkpt lat="48.83619" lon="2.38716">
        <ele>36.599998474121</ele>
        <time>2015-11-02T20:16:03.000Z</time>
      </trkpt>
      <trkpt lat="48.8363" lon="2.38738">
        <ele>36.400001525879</ele>
        <time>2015-11-02T20:16:07.000Z</time>
      </trkpt>
      <trkpt lat="48.83641" lon="2.38763">
        <ele>36.400001525879</ele>
        <time>2015-11-02T20:16:12.000Z</time>
      </trkpt>
      <trkpt lat="48.83655" lon="2.38782">
        <ele>36.200000762939</ele>
        <time>2015-11-02T20:16:17.000Z</time>
      </trkpt>
      <trkpt lat="48.83666" lon="2.38807">
        <ele>36.200000762939</ele>
        <time>2015-11-02T20:16:22.000Z</time>
      </trkpt>
      <trkpt lat="48.83659" lon="2.38822">
        <ele>36.799999237061</ele>
        <time>2015-11-02T20:16:27.000Z</time>
      </trkpt>
      <trkpt lat="48.83657" lon="2.38851">
        <ele>37.200000762939</ele>
        <time>2015-11-02T20:16:34.000Z</time>
      </trkpt>
      <trkpt lat="48.83656" lon="2.38859">
        <ele>37.200000762939</ele>
        <time>2015-11-02T20:16:39.000Z</time>
      </trkpt>
      <trkpt lat="48.83659" lon="2.38895">
        <ele>36.599998474121</ele>
        <time>2015-11-02T20:16:46.000Z</time>
      </trkpt>
      <trkpt lat="48.83663" lon="2.38902">
        <ele>36.400001525879</ele>
        <time>2015-11-02T20:16:47.000Z</time>
      </trkpt>
      <trkpt lat="48.83683" lon="2.38937">
        <ele>37</ele>
        <time>2015-11-02T20:16:49.000Z</time>
      </trkpt>
      <trkpt lat="48.83692" lon="2.38961">
        <ele>38.200000762939</ele>
        <time>2015-11-02T20:16:51.000Z</time>
      </trkpt>
      <trkpt lat="48.83696" lon="2.3899">
        <ele>39.599998474121</ele>
        <time>2015-11-02T20:16:53.000Z</time>
      </trkpt>
      <trkpt lat="48.83706" lon="2.39014">
        <ele>40.400001525879</ele>
        <time>2015-11-02T20:16:56.000Z</time>
      </trkpt>
      <trkpt lat="48.83715" lon="2.39034">
        <ele>40.799999237061</ele>
        <time>2015-11-02T20:16:59.000Z</time>
      </trkpt>
      <trkpt lat="48.83722" lon="2.39062">
        <ele>41.599998474121</ele>
        <time>2015-11-02T20:17:03.000Z</time>
      </trkpt>
      <trkpt lat="48.83725" lon="2.39074">
        <ele>41.799999237061</ele>
        <time>2015-11-02T20:17:05.000Z</time>
      </trkpt>
      <trkpt lat="48.83728" lon="2.39085">
        <ele>42</ele>
        <time>2015-11-02T20:17:07.000Z</time>
      </trkpt>
      <trkpt lat="48.8373" lon="2.39099">
        <ele>42.400001525879</ele>
        <time>2015-11-02T20:17:10.000Z</time>
      </trkpt>
      <trkpt lat="48.83726" lon="2.39123">
        <ele>42.799999237061</ele>
        <time>2015-11-02T20:17:19.000Z</time>
      </trkpt>
      <trkpt lat="48.83723" lon="2.39128">
        <ele>42.799999237061</ele>
        <time>2015-11-02T20:17:20.000Z</time>
      </trkpt>
      <trkpt lat="48.83716" lon="2.39142">
        <ele>42.599998474121</ele>
        <time>2015-11-02T20:17:23.000Z</time>
      </trkpt>
      <trkpt lat="48.83703" lon="2.39168">
        <ele>42.400001525879</ele>
        <time>2015-11-02T20:17:29.000Z</time>
      </trkpt>
      <trkpt lat="48.83701" lon="2.39173">
        <ele>42.400001525879</ele>
        <time>2015-11-02T20:17:30.000Z</time>
      </trkpt>
      <trkpt lat="48.83696" lon="2.3919">
        <ele>42.599998474121</ele>
        <time>2015-11-02T20:17:34.000Z</time>
      </trkpt>
      <trkpt lat="48.83691" lon="2.39218">
        <ele>42.799999237061</ele>
        <time>2015-11-02T20:17:43.000Z</time>
      </trkpt>
      <trkpt lat="48.83691" lon="2.39221">
        <ele>42.799999237061</ele>
        <time>2015-11-02T20:17:45.000Z</time>
      </trkpt>
      <trkpt lat="48.83682" lon="2.39218">
        <ele>43</ele>
        <time>2015-11-02T20:18:16.000Z</time>
      </trkpt>
      <trkpt lat="48.83678" lon="2.39215">
        <ele>43</ele>
        <time>2015-11-02T20:18:43.000Z</time>
      </trkpt>
      <trkpt lat="48.83685" lon="2.39218">
        <ele>42.799999237061</ele>
        <time>2015-11-02T20:18:54.000Z</time>
      </trkpt>
      <trkpt lat="48.83692" lon="2.39222">
        <ele>42.799999237061</ele>
        <time>2015-11-02T20:19:22.000Z</time>
      </trkpt>
      <trkpt lat="48.83689" lon="2.3921">
        <ele>42.599998474121</ele>
        <time>2015-11-02T20:20:11.000Z</time>
      </trkpt>
      <trkpt lat="48.83686" lon="2.39208">
        <ele>42.599998474121</ele>
        <time>2015-11-02T20:21:16.000Z</time>
      </trkpt>
      <trkpt lat="48.83687" lon="2.39226">
        <ele>42.799999237061</ele>
        <time>2015-11-02T20:21:40.000Z</time>
      </trkpt>
      <trkpt lat="48.83683" lon="2.39256">
        <ele>43.400001525879</ele>
        <time>2015-11-02T20:21:46.000Z</time>
      </trkpt>
      <trkpt lat="48.83675" lon="2.39286">
        <ele>44.200000762939</ele>
        <time>2015-11-02T20:21:52.000Z</time>
      </trkpt>
      <trkpt lat="48.83669" lon="2.39312">
        <ele>44.799999237061</ele>
        <time>2015-11-02T20:21:59.000Z</time>
      </trkpt>
      <trkpt lat="48.83663" lon="2.39338">
        <ele>44.599998474121</ele>
        <time>2015-11-02T20:22:04.000Z</time>
      </trkpt>
      <trkpt lat="48.83655" lon="2.39367">
        <ele>44.799999237061</ele>
        <time>2015-11-02T20:22:09.000Z</time>
      </trkpt>
      <trkpt lat="48.83646" lon="2.39397">
        <ele>44.200000762939</ele>
        <time>2015-11-02T20:22:14.000Z</time>
      </trkpt>
      <trkpt lat="48.83641" lon="2.3943">
        <ele>43.599998474121</ele>
        <time>2015-11-02T20:22:19.000Z</time>
      </trkpt>
      <trkpt lat="48.83639" lon="2.39462">
        <ele>44.200000762939</ele>
        <time>2015-11-02T20:22:23.000Z</time>
      </trkpt>
      <trkpt lat="48.83632" lon="2.39491">
        <ele>44.799999237061</ele>
        <time>2015-11-02T20:22:27.000Z</time>
      </trkpt>
      <trkpt lat="48.83624" lon="2.3952">
        <ele>45.799999237061</ele>
        <time>2015-11-02T20:22:31.000Z</time>
      </trkpt>
      <trkpt lat="48.83619" lon="2.39548">
        <ele>46</ele>
        <time>2015-11-02T20:22:35.000Z</time>
      </trkpt>
      <trkpt lat="48.83616" lon="2.3957">
        <ele>46.200000762939</ele>
        <time>2015-11-02T20:22:38.000Z</time>
      </trkpt>
      <trkpt lat="48.83612" lon="2.39584">
        <ele>46.400001525879</ele>
        <time>2015-11-02T20:22:40.000Z</time>
      </trkpt>
      <trkpt lat="48.83604" lon="2.39612">
        <ele>46.799999237061</ele>
        <time>2015-11-02T20:22:44.000Z</time>
      </trkpt>
      <trkpt lat="48.83594" lon="2.39639">
        <ele>47.599998474121</ele>
        <time>2015-11-02T20:22:48.000Z</time>
      </trkpt>
      <trkpt lat="48.8359" lon="2.39653">
        <ele>48</ele>
        <time>2015-11-02T20:22:50.000Z</time>
      </trkpt>
      <trkpt lat="48.83586" lon="2.39683">
        <ele>47.799999237061</ele>
        <time>2015-11-02T20:22:54.000Z</time>
      </trkpt>
      <trkpt lat="48.83583" lon="2.39711">
        <ele>47.799999237061</ele>
        <time>2015-11-02T20:22:58.000Z</time>
      </trkpt>
      <trkpt lat="48.83583" lon="2.39724">
        <ele>47.799999237061</ele>
        <time>2015-11-02T20:23:00.000Z</time>
      </trkpt>
      <trkpt lat="48.83578" lon="2.39755">
        <ele>48.599998474121</ele>
        <time>2015-11-02T20:23:05.000Z</time>
      </trkpt>
      <trkpt lat="48.83575" lon="2.39762">
        <ele>48.799999237061</ele>
        <time>2015-11-02T20:23:06.000Z</time>
      </trkpt>
      <trkpt lat="48.83572" lon="2.39792">
        <ele>50</ele>
        <time>2015-11-02T20:23:11.000Z</time>
      </trkpt>
      <trkpt lat="48.83559" lon="2.39815">
        <ele>49.200000762939</ele>
        <time>2015-11-02T20:23:15.000Z</time>
      </trkpt>
      <trkpt lat="48.83545" lon="2.39841">
        <ele>47.799999237061</ele>
        <time>2015-11-02T20:23:19.000Z</time>
      </trkpt>
      <trkpt lat="48.83537" lon="2.39863">
        <ele>46.799999237061</ele>
        <time>2015-11-02T20:23:22.000Z</time>
      </trkpt>
      <trkpt lat="48.8353" lon="2.3989">
        <ele>45.799999237061</ele>
        <time>2015-11-02T20:23:26.000Z</time>
      </trkpt>
      <trkpt lat="48.8352" lon="2.39916">
        <ele>45</ele>
        <time>2015-11-02T20:23:30.000Z</time>
      </trkpt>
      <trkpt lat="48.83519" lon="2.39922">
        <ele>45.200000762939</ele>
        <time>2015-11-02T20:23:31.000Z</time>
      </trkpt>
      <trkpt lat="48.83513" lon="2.3995">
        <ele>45.799999237061</ele>
        <time>2015-11-02T20:23:35.000Z</time>
      </trkpt>
      <trkpt lat="48.83504" lon="2.39979">
        <ele>46.400001525879</ele>
        <time>2015-11-02T20:23:39.000Z</time>
      </trkpt>
      <trkpt lat="48.83494" lon="2.40006">
        <ele>46</ele>
        <time>2015-11-02T20:23:43.000Z</time>
      </trkpt>
      <trkpt lat="48.83493" lon="2.40014">
        <ele>45.799999237061</ele>
        <time>2015-11-02T20:23:44.000Z</time>
      </trkpt>
      <trkpt lat="48.8349" lon="2.40032">
        <ele>45.599998474121</ele>
        <time>2015-11-02T20:23:47.000Z</time>
      </trkpt>
      <trkpt lat="48.83492" lon="2.40052">
        <ele>45.400001525879</ele>
        <time>2015-11-02T20:23:50.000Z</time>
      </trkpt>
      <trkpt lat="48.83488" lon="2.40071">
        <ele>44.599998474121</ele>
        <time>2015-11-02T20:23:54.000Z</time>
      </trkpt>
      <trkpt lat="48.83475" lon="2.40089">
        <ele>44</ele>
        <time>2015-11-02T20:24:00.000Z</time>
      </trkpt>
      <trkpt lat="48.83468" lon="2.40096">
        <ele>44</ele>
        <time>2015-11-02T20:24:02.000Z</time>
      </trkpt>
      <trkpt lat="48.83458" lon="2.40103">
        <ele>44</ele>
        <time>2015-11-02T20:24:04.000Z</time>
      </trkpt>
      <trkpt lat="48.83444" lon="2.40117">
        <ele>43.599998474121</ele>
        <time>2015-11-02T20:24:07.000Z</time>
      </trkpt>
      <trkpt lat="48.83434" lon="2.40124">
        <ele>43.799999237061</ele>
        <time>2015-11-02T20:24:09.000Z</time>
      </trkpt>
      <trkpt lat="48.83417" lon="2.40141">
        <ele>45.200000762939</ele>
        <time>2015-11-02T20:24:13.000Z</time>
      </trkpt>
      <trkpt lat="48.83413" lon="2.40144">
        <ele>45.599998474121</ele>
        <time>2015-11-02T20:24:14.000Z</time>
      </trkpt>
      <trkpt lat="48.83395" lon="2.40158">
        <ele>46.200000762939</ele>
        <time>2015-11-02T20:24:18.000Z</time>
      </trkpt>
      <trkpt lat="48.8338" lon="2.40169">
        <ele>46.799999237061</ele>
        <time>2015-11-02T20:24:22.000Z</time>
      </trkpt>
      <trkpt lat="48.83363" lon="2.40182">
        <ele>47.400001525879</ele>
        <time>2015-11-02T20:24:27.000Z</time>
      </trkpt>
      <trkpt lat="48.83359" lon="2.40189">
        <ele>47.200000762939</ele>
        <time>2015-11-02T20:24:29.000Z</time>
      </trkpt>
      <trkpt lat="48.83351" lon="2.40198">
        <ele>46.799999237061</ele>
        <time>2015-11-02T20:24:38.000Z</time>
      </trkpt>
      <trkpt lat="48.83346" lon="2.40205">
        <ele>46.400001525879</ele>
        <time>2015-11-02T20:24:49.000Z</time>
      </trkpt>
      <trkpt lat="48.83341" lon="2.4021">
        <ele>46.200000762939</ele>
        <time>2015-11-02T20:24:53.000Z</time>
      </trkpt>
      <trkpt lat="48.83336" lon="2.40214">
        <ele>46</ele>
        <time>2015-11-02T20:24:58.000Z</time>
      </trkpt>
      <trkpt lat="48.83326" lon="2.40238">
        <ele>45.200000762939</ele>
        <time>2015-11-02T20:25:11.000Z</time>
      </trkpt>
      <trkpt lat="48.83313" lon="2.40265">
        <ele>44.599998474121</ele>
        <time>2015-11-02T20:25:17.000Z</time>
      </trkpt>
      <trkpt lat="48.833" lon="2.40285">
        <ele>44.400001525879</ele>
        <time>2015-11-02T20:25:20.000Z</time>
      </trkpt>
      <trkpt lat="48.83289" lon="2.40301">
        <ele>45</ele>
        <time>2015-11-02T20:25:22.000Z</time>
      </trkpt>
      <trkpt lat="48.83275" lon="2.40324">
        <ele>45.799999237061</ele>
        <time>2015-11-02T20:25:25.000Z</time>
      </trkpt>
      <trkpt lat="48.83265" lon="2.4034">
        <ele>46.400001525879</ele>
        <time>2015-11-02T20:25:27.000Z</time>
      </trkpt>
      <trkpt lat="48.83256" lon="2.40355">
        <ele>47.400001525879</ele>
        <time>2015-11-02T20:25:29.000Z</time>
      </trkpt>
      <trkpt lat="48.83241" lon="2.4038">
        <ele>48.599998474121</ele>
        <time>2015-11-02T20:25:33.000Z</time>
      </trkpt>
      <trkpt lat="48.83226" lon="2.40383">
        <ele>49.200000762939</ele>
        <time>2015-11-02T20:25:40.000Z</time>
      </trkpt>
      <trkpt lat="48.83217" lon="2.40368">
        <ele>48.400001525879</ele>
        <time>2015-11-02T20:25:57.000Z</time>
      </trkpt>
      <trkpt lat="48.83209" lon="2.40352">
        <ele>47.799999237061</ele>
        <time>2015-11-02T20:26:03.000Z</time>
      </trkpt>
      <trkpt lat="48.83195" lon="2.40335">
        <ele>47</ele>
        <time>2015-11-02T20:26:09.000Z</time>
      </trkpt>
      <trkpt lat="48.83177" lon="2.40317">
        <ele>47.200000762939</ele>
        <time>2015-11-02T20:26:15.000Z</time>
      </trkpt>
      <trkpt lat="48.83163" lon="2.40298">
        <ele>47.400001525879</ele>
        <time>2015-11-02T20:26:20.000Z</time>
      </trkpt>
      <trkpt lat="48.83147" lon="2.40274">
        <ele>47.799999237061</ele>
        <time>2015-11-02T20:26:25.000Z</time>
      </trkpt>
      <trkpt lat="48.83135" lon="2.40253">
        <ele>48.200000762939</ele>
        <time>2015-11-02T20:26:29.000Z</time>
      </trkpt>
      <trkpt lat="48.83125" lon="2.40224">
        <ele>47.400001525879</ele>
        <time>2015-11-02T20:26:33.000Z</time>
      </trkpt>
      <trkpt lat="48.83115" lon="2.40191">
        <ele>46</ele>
        <time>2015-11-02T20:26:37.000Z</time>
      </trkpt>
      <trkpt lat="48.83106" lon="2.40163">
        <ele>45</ele>
        <time>2015-11-02T20:26:40.000Z</time>
      </trkpt>
      <trkpt lat="48.83101" lon="2.40135">
        <ele>45.400001525879</ele>
        <time>2015-11-02T20:26:43.000Z</time>
      </trkpt>
      <trkpt lat="48.83096" lon="2.40106">
        <ele>45.799999237061</ele>
        <time>2015-11-02T20:26:46.000Z</time>
      </trkpt>
      <trkpt lat="48.83091" lon="2.40077">
        <ele>46.400001525879</ele>
        <time>2015-11-02T20:26:49.000Z</time>
      </trkpt>
      <trkpt lat="48.8309" lon="2.40068">
        <ele>46.599998474121</ele>
        <time>2015-11-02T20:26:50.000Z</time>
      </trkpt>
      <trkpt lat="48.83087" lon="2.4004">
        <ele>47.200000762939</ele>
        <time>2015-11-02T20:26:53.000Z</time>
      </trkpt>
      <trkpt lat="48.83082" lon="2.40006">
        <ele>47.799999237061</ele>
        <time>2015-11-02T20:26:57.000Z</time>
      </trkpt>
      <trkpt lat="48.83078" lon="2.39977">
        <ele>47.200000762939</ele>
        <time>2015-11-02T20:27:01.000Z</time>
      </trkpt>
      <trkpt lat="48.83079" lon="2.39946">
        <ele>46.599998474121</ele>
        <time>2015-11-02T20:27:07.000Z</time>
      </trkpt>
      <trkpt lat="48.83079" lon="2.39943">
        <ele>46.599998474121</ele>
        <time>2015-11-02T20:27:08.000Z</time>
      </trkpt>
      <trkpt lat="48.83063" lon="2.3994">
        <ele>46.799999237061</ele>
        <time>2015-11-02T20:27:28.000Z</time>
      </trkpt>
      <trkpt lat="48.83047" lon="2.39963">
        <ele>47.799999237061</ele>
        <time>2015-11-02T20:27:34.000Z</time>
      </trkpt>
      <trkpt lat="48.83034" lon="2.39987">
        <ele>49.200000762939</ele>
        <time>2015-11-02T20:27:39.000Z</time>
      </trkpt>
      <trkpt lat="48.83022" lon="2.40008">
        <ele>49.599998474121</ele>
        <time>2015-11-02T20:27:43.000Z</time>
      </trkpt>
      <trkpt lat="48.83007" lon="2.40031">
        <ele>48.400001525879</ele>
        <time>2015-11-02T20:27:47.000Z</time>
      </trkpt>
      <trkpt lat="48.82991" lon="2.40056">
        <ele>47.400001525879</ele>
        <time>2015-11-02T20:27:51.000Z</time>
      </trkpt>
      <trkpt lat="48.82975" lon="2.40079">
        <ele>48.200000762939</ele>
        <time>2015-11-02T20:27:55.000Z</time>
      </trkpt>
      <trkpt lat="48.8296" lon="2.40102">
        <ele>48.200000762939</ele>
        <time>2015-11-02T20:27:59.000Z</time>
      </trkpt>
      <trkpt lat="48.82947" lon="2.40124">
        <ele>50.400001525879</ele>
        <time>2015-11-02T20:28:03.000Z</time>
      </trkpt>
      <trkpt lat="48.82933" lon="2.40149">
        <ele>52.400001525879</ele>
        <time>2015-11-02T20:28:07.000Z</time>
      </trkpt>
      <trkpt lat="48.82918" lon="2.40175">
        <ele>53.200000762939</ele>
        <time>2015-11-02T20:28:11.000Z</time>
      </trkpt>
      <trkpt lat="48.82903" lon="2.40199">
        <ele>53.400001525879</ele>
        <time>2015-11-02T20:28:15.000Z</time>
      </trkpt>
      <trkpt lat="48.82887" lon="2.40222">
        <ele>53</ele>
        <time>2015-11-02T20:28:19.000Z</time>
      </trkpt>
      <trkpt lat="48.82876" lon="2.40239">
        <ele>52.599998474121</ele>
        <time>2015-11-02T20:28:22.000Z</time>
      </trkpt>
      <trkpt lat="48.8286" lon="2.4026">
        <ele>52.200000762939</ele>
        <time>2015-11-02T20:28:26.000Z</time>
      </trkpt>
      <trkpt lat="48.82848" lon="2.40275">
        <ele>52.200000762939</ele>
        <time>2015-11-02T20:28:29.000Z</time>
      </trkpt>
      <trkpt lat="48.82832" lon="2.40301">
        <ele>52.599998474121</ele>
        <time>2015-11-02T20:28:33.000Z</time>
      </trkpt>
      <trkpt lat="48.8282" lon="2.40321">
        <ele>53.200000762939</ele>
        <time>2015-11-02T20:28:36.000Z</time>
      </trkpt>
      <trkpt lat="48.82815" lon="2.40327">
        <ele>53.400001525879</ele>
        <time>2015-11-02T20:28:37.000Z</time>
      </trkpt>
      <trkpt lat="48.82801" lon="2.40349">
        <ele>54.200000762939</ele>
        <time>2015-11-02T20:28:40.000Z</time>
      </trkpt>
      <trkpt lat="48.82787" lon="2.40372">
        <ele>55.200000762939</ele>
        <time>2015-11-02T20:28:43.000Z</time>
      </trkpt>
      <trkpt lat="48.82775" lon="2.40389">
        <ele>56.200000762939</ele>
        <time>2015-11-02T20:28:46.000Z</time>
      </trkpt>
      <trkpt lat="48.82765" lon="2.40404">
        <ele>56.799999237061</ele>
        <time>2015-11-02T20:29:10.000Z</time>
      </trkpt>
      <trkpt lat="48.82756" lon="2.40418">
        <ele>56.400001525879</ele>
        <time>2015-11-02T20:29:13.000Z</time>
      </trkpt>
      <trkpt lat="48.82743" lon="2.40441">
        <ele>56.200000762939</ele>
        <time>2015-11-02T20:29:16.000Z</time>
      </trkpt>
      <trkpt lat="48.82729" lon="2.40465">
        <ele>56.200000762939</ele>
        <time>2015-11-02T20:29:19.000Z</time>
      </trkpt>
      <trkpt lat="48.82716" lon="2.40485">
        <ele>56.400001525879</ele>
        <time>2015-11-02T20:29:22.000Z</time>
      </trkpt>
      <trkpt lat="48.827" lon="2.40511">
        <ele>56</ele>
        <time>2015-11-02T20:29:26.000Z</time>
      </trkpt>
      <trkpt lat="48.82687" lon="2.40531">
        <ele>56.799999237061</ele>
        <time>2015-11-02T20:29:29.000Z</time>
      </trkpt>
      <trkpt lat="48.82671" lon="2.40558">
        <ele>57.400001525879</ele>
        <time>2015-11-02T20:29:33.000Z</time>
      </trkpt>
      <trkpt lat="48.82658" lon="2.40577">
        <ele>57.200000762939</ele>
        <time>2015-11-02T20:29:36.000Z</time>
      </trkpt>
      <trkpt lat="48.82645" lon="2.40597">
        <ele>56.400001525879</ele>
        <time>2015-11-02T20:29:39.000Z</time>
      </trkpt>
      <trkpt lat="48.8263" lon="2.40619">
        <ele>55.799999237061</ele>
        <time>2015-11-02T20:29:42.000Z</time>
      </trkpt>
      <trkpt lat="48.82615" lon="2.4064">
        <ele>55.799999237061</ele>
        <time>2015-11-02T20:29:45.000Z</time>
      </trkpt>
      <trkpt lat="48.82598" lon="2.40661">
        <ele>55.799999237061</ele>
        <time>2015-11-02T20:29:48.000Z</time>
      </trkpt>
      <trkpt lat="48.82581" lon="2.40682">
        <ele>54.599998474121</ele>
        <time>2015-11-02T20:29:51.000Z</time>
      </trkpt>
      <trkpt lat="48.82568" lon="2.40703">
        <ele>53.200000762939</ele>
        <time>2015-11-02T20:29:54.000Z</time>
      </trkpt>
      <trkpt lat="48.82554" lon="2.40726">
        <ele>53</ele>
        <time>2015-11-02T20:29:57.000Z</time>
      </trkpt>
      <trkpt lat="48.8254" lon="2.40749">
        <ele>53</ele>
        <time>2015-11-02T20:30:00.000Z</time>
      </trkpt>
      <trkpt lat="48.82527" lon="2.40772">
        <ele>53</ele>
        <time>2015-11-02T20:30:03.000Z</time>
      </trkpt>
      <trkpt lat="48.82516" lon="2.40794">
        <ele>53.599998474121</ele>
        <time>2015-11-02T20:30:06.000Z</time>
      </trkpt>
      <trkpt lat="48.82503" lon="2.40815">
        <ele>54</ele>
        <time>2015-11-02T20:30:09.000Z</time>
      </trkpt>
      <trkpt lat="48.8249" lon="2.40837">
        <ele>53.799999237061</ele>
        <time>2015-11-02T20:30:12.000Z</time>
      </trkpt>
      <trkpt lat="48.82478" lon="2.40858">
        <ele>54</ele>
        <time>2015-11-02T20:30:15.000Z</time>
      </trkpt>
      <trkpt lat="48.82463" lon="2.40886">
        <ele>53.799999237061</ele>
        <time>2015-11-02T20:30:19.000Z</time>
      </trkpt>
      <trkpt lat="48.8245" lon="2.40908">
        <ele>53.400001525879</ele>
        <time>2015-11-02T20:30:22.000Z</time>
      </trkpt>
      <trkpt lat="48.82436" lon="2.4093">
        <ele>53.200000762939</ele>
        <time>2015-11-02T20:30:25.000Z</time>
      </trkpt>
      <trkpt lat="48.82422" lon="2.40951">
        <ele>53.400001525879</ele>
        <time>2015-11-02T20:30:28.000Z</time>
      </trkpt>
      <trkpt lat="48.82409" lon="2.40974">
        <ele>53.599998474121</ele>
        <time>2015-11-02T20:30:31.000Z</time>
      </trkpt>
      <trkpt lat="48.82393" lon="2.40998">
        <ele>53.799999237061</ele>
        <time>2015-11-02T20:30:34.000Z</time>
      </trkpt>
      <trkpt lat="48.82377" lon="2.41022">
        <ele>53.599998474121</ele>
        <time>2015-11-02T20:30:37.000Z</time>
      </trkpt>
      <trkpt lat="48.82372" lon="2.4103">
        <ele>53.599998474121</ele>
        <time>2015-11-02T20:30:38.000Z</time>
      </trkpt>
      <trkpt lat="48.82357" lon="2.4105">
        <ele>53.599998474121</ele>
        <time>2015-11-02T20:30:41.000Z</time>
      </trkpt>
      <trkpt lat="48.82343" lon="2.41071">
        <ele>52.799999237061</ele>
        <time>2015-11-02T20:30:44.000Z</time>
      </trkpt>
      <trkpt lat="48.8233" lon="2.4109">
        <ele>54</ele>
        <time>2015-11-02T20:30:47.000Z</time>
      </trkpt>
      <trkpt lat="48.82313" lon="2.41113">
        <ele>54</ele>
        <time>2015-11-02T20:30:51.000Z</time>
      </trkpt>
      <trkpt lat="48.82297" lon="2.41135">
        <ele>54.599998474121</ele>
        <time>2015-11-02T20:30:55.000Z</time>
      </trkpt>
      <trkpt lat="48.8228" lon="2.4116">
        <ele>55.599998474121</ele>
        <time>2015-11-02T20:30:59.000Z</time>
      </trkpt>
      <trkpt lat="48.82267" lon="2.41182">
        <ele>55</ele>
        <time>2015-11-02T20:31:02.000Z</time>
      </trkpt>
      <trkpt lat="48.82252" lon="2.41204">
        <ele>53</ele>
        <time>2015-11-02T20:31:05.000Z</time>
      </trkpt>
      <trkpt lat="48.82238" lon="2.41227">
        <ele>51.599998474121</ele>
        <time>2015-11-02T20:31:08.000Z</time>
      </trkpt>
      <trkpt lat="48.82223" lon="2.41248">
        <ele>51.200000762939</ele>
        <time>2015-11-02T20:31:11.000Z</time>
      </trkpt>
      <trkpt lat="48.82209" lon="2.41271">
        <ele>50.799999237061</ele>
        <time>2015-11-02T20:31:14.000Z</time>
      </trkpt>
      <trkpt lat="48.82197" lon="2.41292">
        <ele>51.200000762939</ele>
        <time>2015-11-02T20:31:17.000Z</time>
      </trkpt>
      <trkpt lat="48.82186" lon="2.41313">
        <ele>51.400001525879</ele>
        <time>2015-11-02T20:31:20.000Z</time>
      </trkpt>
      <trkpt lat="48.82172" lon="2.41337">
        <ele>52.200000762939</ele>
        <time>2015-11-02T20:31:24.000Z</time>
      </trkpt>
      <trkpt lat="48.82159" lon="2.41359">
        <ele>52.599998474121</ele>
        <time>2015-11-02T20:31:28.000Z</time>
      </trkpt>
      <trkpt lat="48.82149" lon="2.41375">
        <ele>53</ele>
        <time>2015-11-02T20:31:31.000Z</time>
      </trkpt>
      <trkpt lat="48.82144" lon="2.41384">
        <ele>53.200000762939</ele>
        <time>2015-11-02T20:31:33.000Z</time>
      </trkpt>
      <trkpt lat="48.82132" lon="2.414">
        <ele>53.599998474121</ele>
        <time>2015-11-02T20:31:40.000Z</time>
      </trkpt>
      <trkpt lat="48.82128" lon="2.41388">
        <ele>53.400001525879</ele>
        <time>2015-11-02T20:31:51.000Z</time>
      </trkpt>
      <trkpt lat="48.82122" lon="2.41404">
        <ele>53.599998474121</ele>
        <time>2015-11-02T20:32:35.000Z</time>
      </trkpt>
      <trkpt lat="48.82107" lon="2.41428">
        <ele>54</ele>
        <time>2015-11-02T20:32:43.000Z</time>
      </trkpt>
      <trkpt lat="48.82095" lon="2.41451">
        <ele>53.599998474121</ele>
        <time>2015-11-02T20:32:50.000Z</time>
      </trkpt>
      <trkpt lat="48.82081" lon="2.41468">
        <ele>52.799999237061</ele>
        <time>2015-11-02T20:32:57.000Z</time>
      </trkpt>
      <trkpt lat="48.82062" lon="2.41462">
        <ele>52.200000762939</ele>
        <time>2015-11-02T20:33:03.000Z</time>
      </trkpt>
      <trkpt lat="48.82043" lon="2.41448">
        <ele>51.400001525879</ele>
        <time>2015-11-02T20:33:08.000Z</time>
      </trkpt>
      <trkpt lat="48.82028" lon="2.41434">
        <ele>50.799999237061</ele>
        <time>2015-11-02T20:33:12.000Z</time>
      </trkpt>
      <trkpt lat="48.8201" lon="2.41422">
        <ele>49.599998474121</ele>
        <time>2015-11-02T20:33:16.000Z</time>
      </trkpt>
      <trkpt lat="48.81993" lon="2.41408">
        <ele>47.799999237061</ele>
        <time>2015-11-02T20:33:20.000Z</time>
      </trkpt>
      <trkpt lat="48.81971" lon="2.41397">
        <ele>45.599998474121</ele>
        <time>2015-11-02T20:33:24.000Z</time>
      </trkpt>
      <trkpt lat="48.81954" lon="2.41391">
        <ele>44.200000762939</ele>
        <time>2015-11-02T20:33:27.000Z</time>
      </trkpt>
      <trkpt lat="48.81931" lon="2.414">
        <ele>43.599998474121</ele>
        <time>2015-11-02T20:33:30.000Z</time>
      </trkpt>
      <trkpt lat="48.8191" lon="2.41423">
        <ele>43</ele>
        <time>2015-11-02T20:33:33.000Z</time>
      </trkpt>
      <trkpt lat="48.81888" lon="2.41439">
        <ele>41.799999237061</ele>
        <time>2015-11-02T20:33:36.000Z</time>
      </trkpt>
      <trkpt lat="48.81869" lon="2.4146">
        <ele>39.799999237061</ele>
        <time>2015-11-02T20:33:39.000Z</time>
      </trkpt>
      <trkpt lat="48.81852" lon="2.41481">
        <ele>37.799999237061</ele>
        <time>2015-11-02T20:33:42.000Z</time>
      </trkpt>
      <trkpt lat="48.81833" lon="2.41498">
        <ele>37.400001525879</ele>
        <time>2015-11-02T20:33:45.000Z</time>
      </trkpt>
      <trkpt lat="48.81814" lon="2.41515">
        <ele>37.799999237061</ele>
        <time>2015-11-02T20:33:48.000Z</time>
      </trkpt>
      <trkpt lat="48.81796" lon="2.41533">
        <ele>38.200000762939</ele>
        <time>2015-11-02T20:33:51.000Z</time>
      </trkpt>
      <trkpt lat="48.8178" lon="2.41553">
        <ele>38.799999237061</ele>
        <time>2015-11-02T20:33:54.000Z</time>
      </trkpt>
      <trkpt lat="48.81775" lon="2.4156">
        <ele>39</ele>
        <time>2015-11-02T20:33:55.000Z</time>
      </trkpt>
      <trkpt lat="48.8176" lon="2.41583">
        <ele>38.799999237061</ele>
        <time>2015-11-02T20:33:58.000Z</time>
      </trkpt>
      <trkpt lat="48.81751" lon="2.41597">
        <ele>37.200000762939</ele>
        <time>2015-11-02T20:34:00.000Z</time>
      </trkpt>
      <trkpt lat="48.81738" lon="2.41619">
        <ele>35</ele>
        <time>2015-11-02T20:34:03.000Z</time>
      </trkpt>
      <trkpt lat="48.81727" lon="2.41642">
        <ele>34.200000762939</ele>
        <time>2015-11-02T20:34:06.000Z</time>
      </trkpt>
      <trkpt lat="48.81718" lon="2.41665">
        <ele>34.400001525879</ele>
        <time>2015-11-02T20:34:09.000Z</time>
      </trkpt>
      <trkpt lat="48.81712" lon="2.41692">
        <ele>33.400001525879</ele>
        <time>2015-11-02T20:34:12.000Z</time>
      </trkpt>
      <trkpt lat="48.81709" lon="2.41724">
        <ele>34.599998474121</ele>
        <time>2015-11-02T20:34:15.000Z</time>
      </trkpt>
      <trkpt lat="48.81713" lon="2.41757">
        <ele>35.400001525879</ele>
        <time>2015-11-02T20:34:18.000Z</time>
      </trkpt>
      <trkpt lat="48.8172" lon="2.41791">
        <ele>34.799999237061</ele>
        <time>2015-11-02T20:34:21.000Z</time>
      </trkpt>
      <trkpt lat="48.81726" lon="2.41822">
        <ele>33.799999237061</ele>
        <time>2015-11-02T20:34:24.000Z</time>
      </trkpt>
      <trkpt lat="48.8173" lon="2.41851">
        <ele>33.599998474121</ele>
        <time>2015-11-02T20:34:27.000Z</time>
      </trkpt>
      <trkpt lat="48.81734" lon="2.41885">
        <ele>33.599998474121</ele>
        <time>2015-11-02T20:34:31.000Z</time>
      </trkpt>
      <trkpt lat="48.81735" lon="2.41894">
        <ele>33.799999237061</ele>
        <time>2015-11-02T20:34:32.000Z</time>
      </trkpt>
      <trkpt lat="48.81734" lon="2.41921">
        <ele>34.200000762939</ele>
        <time>2015-11-02T20:34:36.000Z</time>
      </trkpt>
      <trkpt lat="48.81732" lon="2.41949">
        <ele>34.799999237061</ele>
        <time>2015-11-02T20:34:44.000Z</time>
      </trkpt>
      <trkpt lat="48.81732" lon="2.41956">
        <ele>35</ele>
        <time>2015-11-02T20:34:49.000Z</time>
      </trkpt>
      <trkpt lat="48.81716" lon="2.41954">
        <ele>34.599998474121</ele>
        <time>2015-11-02T20:35:27.000Z</time>
      </trkpt>
      <trkpt lat="48.81696" lon="2.41953">
        <ele>33.799999237061</ele>
        <time>2015-11-02T20:35:34.000Z</time>
      </trkpt>
      <trkpt lat="48.81676" lon="2.41954">
        <ele>34</ele>
        <time>2015-11-02T20:35:39.000Z</time>
      </trkpt>
      <trkpt lat="48.81657" lon="2.41954">
        <ele>34.599998474121</ele>
        <time>2015-11-02T20:35:44.000Z</time>
      </trkpt>
      <trkpt lat="48.81638" lon="2.41953">
        <ele>35.400001525879</ele>
        <time>2015-11-02T20:35:49.000Z</time>
      </trkpt>
      <trkpt lat="48.8162" lon="2.41952">
        <ele>36.200000762939</ele>
        <time>2015-11-02T20:35:54.000Z</time>
      </trkpt>
      <trkpt lat="48.81602" lon="2.41962">
        <ele>37</ele>
        <time>2015-11-02T20:36:01.000Z</time>
      </trkpt>
      <trkpt lat="48.81583" lon="2.41972">
        <ele>37</ele>
        <time>2015-11-02T20:36:07.000Z</time>
      </trkpt>
      <trkpt lat="48.81566" lon="2.41984">
        <ele>37.200000762939</ele>
        <time>2015-11-02T20:36:12.000Z</time>
      </trkpt>
      <trkpt lat="48.8155" lon="2.41997">
        <ele>37.599998474121</ele>
        <time>2015-11-02T20:36:17.000Z</time>
      </trkpt>
      <trkpt lat="48.81539" lon="2.42006">
        <ele>37.799999237061</ele>
        <time>2015-11-02T20:36:23.000Z</time>
      </trkpt>
      <trkpt lat="48.81525" lon="2.42024">
        <ele>37.599998474121</ele>
        <time>2015-11-02T20:36:54.000Z</time>
      </trkpt>
      <trkpt lat="48.8151" lon="2.42041">
        <ele>37.599998474121</ele>
        <time>2015-11-02T20:36:59.000Z</time>
      </trkpt>
      <trkpt lat="48.81494" lon="2.42052">
        <ele>37.799999237061</ele>
        <time>2015-11-02T20:37:04.000Z</time>
      </trkpt>
      <trkpt lat="48.81474" lon="2.42064">
        <ele>38.200000762939</ele>
        <time>2015-11-02T20:37:09.000Z</time>
      </trkpt>
      <trkpt lat="48.81454" lon="2.42076">
        <ele>38.599998474121</ele>
        <time>2015-11-02T20:37:14.000Z</time>
      </trkpt>
      <trkpt lat="48.81435" lon="2.42086">
        <ele>38.799999237061</ele>
        <time>2015-11-02T20:37:19.000Z</time>
      </trkpt>
      <trkpt lat="48.81416" lon="2.42096">
        <ele>38.200000762939</ele>
        <time>2015-11-02T20:37:24.000Z</time>
      </trkpt>
      <trkpt lat="48.81397" lon="2.42109">
        <ele>37.599998474121</ele>
        <time>2015-11-02T20:37:29.000Z</time>
      </trkpt>
      <trkpt lat="48.8138" lon="2.42121">
        <ele>37.400001525879</ele>
        <time>2015-11-02T20:37:33.000Z</time>
      </trkpt>
      <trkpt lat="48.81364" lon="2.42132">
        <ele>37.599998474121</ele>
        <time>2015-11-02T20:37:37.000Z</time>
      </trkpt>
      <trkpt lat="48.81347" lon="2.42143">
        <ele>37.799999237061</ele>
        <time>2015-11-02T20:37:41.000Z</time>
      </trkpt>
      <trkpt lat="48.8133" lon="2.42155">
        <ele>37.799999237061</ele>
        <time>2015-11-02T20:37:45.000Z</time>
      </trkpt>
      <trkpt lat="48.81314" lon="2.42166">
        <ele>37.599998474121</ele>
        <time>2015-11-02T20:37:49.000Z</time>
      </trkpt>
      <trkpt lat="48.81294" lon="2.42179">
        <ele>37.200000762939</ele>
        <time>2015-11-02T20:37:54.000Z</time>
      </trkpt>
      <trkpt lat="48.81275" lon="2.42195">
        <ele>37</ele>
        <time>2015-11-02T20:37:59.000Z</time>
      </trkpt>
      <trkpt lat="48.81271" lon="2.42197">
        <ele>37</ele>
        <time>2015-11-02T20:38:00.000Z</time>
      </trkpt>
      <trkpt lat="48.81254" lon="2.42209">
        <ele>37.200000762939</ele>
        <time>2015-11-02T20:38:04.000Z</time>
      </trkpt>
      <trkpt lat="48.81237" lon="2.42221">
        <ele>37.400001525879</ele>
        <time>2015-11-02T20:38:08.000Z</time>
      </trkpt>
      <trkpt lat="48.81218" lon="2.42232">
        <ele>37.599998474121</ele>
        <time>2015-11-02T20:38:13.000Z</time>
      </trkpt>
      <trkpt lat="48.81215" lon="2.42234">
        <ele>37.599998474121</ele>
        <time>2015-11-02T20:38:14.000Z</time>
      </trkpt>
      <trkpt lat="48.81197" lon="2.42243">
        <ele>37.799999237061</ele>
        <time>2015-11-02T20:38:20.000Z</time>
      </trkpt>
      <trkpt lat="48.81194" lon="2.42244">
        <ele>38</ele>
        <time>2015-11-02T20:38:21.000Z</time>
      </trkpt>
      <trkpt lat="48.81184" lon="2.4225">
        <ele>37.799999237061</ele>
        <time>2015-11-02T20:38:25.000Z</time>
      </trkpt>
      <trkpt lat="48.81165" lon="2.42253">
        <ele>37.400001525879</ele>
        <time>2015-11-02T20:38:35.000Z</time>
      </trkpt>
      <trkpt lat="48.8116" lon="2.42256">
        <ele>37.400001525879</ele>
        <time>2015-11-02T20:38:39.000Z</time>
      </trkpt>
      <trkpt lat="48.81148" lon="2.42266">
        <ele>37</ele>
        <time>2015-11-02T20:38:46.000Z</time>
      </trkpt>
      <trkpt lat="48.8113" lon="2.42279">
        <ele>36.599998474121</ele>
        <time>2015-11-02T20:38:53.000Z</time>
      </trkpt>
      <trkpt lat="48.81112" lon="2.42291">
        <ele>35.799999237061</ele>
        <time>2015-11-02T20:38:58.000Z</time>
      </trkpt>
      <trkpt lat="48.81092" lon="2.42303">
        <ele>35.599998474121</ele>
        <time>2015-11-02T20:39:03.000Z</time>
      </trkpt>
      <trkpt lat="48.81071" lon="2.42318">
        <ele>36.200000762939</ele>
        <time>2015-11-02T20:39:08.000Z</time>
      </trkpt>
      <trkpt lat="48.81051" lon="2.42332">
        <ele>37.599998474121</ele>
        <time>2015-11-02T20:39:13.000Z</time>
      </trkpt>
      <trkpt lat="48.81033" lon="2.42343">
        <ele>38.799999237061</ele>
        <time>2015-11-02T20:39:17.000Z</time>
      </trkpt>
      <trkpt lat="48.81013" lon="2.42355">
        <ele>38.599998474121</ele>
        <time>2015-11-02T20:39:21.000Z</time>
      </trkpt>
      <trkpt lat="48.80993" lon="2.42368">
        <ele>38</ele>
        <time>2015-11-02T20:39:25.000Z</time>
      </trkpt>
      <trkpt lat="48.80971" lon="2.42382">
        <ele>37.599998474121</ele>
        <time>2015-11-02T20:39:29.000Z</time>
      </trkpt>
      <trkpt lat="48.80955" lon="2.42393">
        <ele>37.599998474121</ele>
        <time>2015-11-02T20:39:32.000Z</time>
      </trkpt>
      <trkpt lat="48.80939" lon="2.42404">
        <ele>37.799999237061</ele>
        <time>2015-11-02T20:39:35.000Z</time>
      </trkpt>
      <trkpt lat="48.80921" lon="2.42415">
        <ele>37.599998474121</ele>
        <time>2015-11-02T20:39:38.000Z</time>
      </trkpt>
      <trkpt lat="48.80903" lon="2.42426">
        <ele>37.200000762939</ele>
        <time>2015-11-02T20:39:41.000Z</time>
      </trkpt>
      <trkpt lat="48.80882" lon="2.4244">
        <ele>36.599998474121</ele>
        <time>2015-11-02T20:39:45.000Z</time>
      </trkpt>
      <trkpt lat="48.80861" lon="2.42453">
        <ele>37.599998474121</ele>
        <time>2015-11-02T20:39:49.000Z</time>
      </trkpt>
      <trkpt lat="48.8085" lon="2.42459">
        <ele>38.200000762939</ele>
        <time>2015-11-02T20:39:51.000Z</time>
      </trkpt>
      <trkpt lat="48.80829" lon="2.42471">
        <ele>39.400001525879</ele>
        <time>2015-11-02T20:39:55.000Z</time>
      </trkpt>
      <trkpt lat="48.80807" lon="2.42486">
        <ele>39.200000762939</ele>
        <time>2015-11-02T20:39:59.000Z</time>
      </trkpt>
      <trkpt lat="48.8079" lon="2.42497">
        <ele>39.200000762939</ele>
        <time>2015-11-02T20:40:02.000Z</time>
      </trkpt>
      <trkpt lat="48.80768" lon="2.42511">
        <ele>38.799999237061</ele>
        <time>2015-11-02T20:40:06.000Z</time>
      </trkpt>
      <trkpt lat="48.80752" lon="2.42521">
        <ele>39</ele>
        <time>2015-11-02T20:40:09.000Z</time>
      </trkpt>
      <trkpt lat="48.80731" lon="2.42535">
        <ele>39</ele>
        <time>2015-11-02T20:40:13.000Z</time>
      </trkpt>
      <trkpt lat="48.80715" lon="2.4255">
        <ele>39.400001525879</ele>
        <time>2015-11-02T20:40:17.000Z</time>
      </trkpt>
      <trkpt lat="48.80711" lon="2.42553">
        <ele>39.400001525879</ele>
        <time>2015-11-02T20:40:18.000Z</time>
      </trkpt>
      <trkpt lat="48.80692" lon="2.42552">
        <ele>40</ele>
        <time>2015-11-02T20:40:24.000Z</time>
      </trkpt>
      <trkpt lat="48.80685" lon="2.42556">
        <ele>40</ele>
        <time>2015-11-02T20:40:28.000Z</time>
      </trkpt>
      <trkpt lat="48.80683" lon="2.42558">
        <ele>39.799999237061</ele>
        <time>2015-11-02T20:40:29.000Z</time>
      </trkpt>
      <trkpt lat="48.80665" lon="2.42567">
        <ele>39.599998474121</ele>
        <time>2015-11-02T20:40:34.000Z</time>
      </trkpt>
      <trkpt lat="48.80656" lon="2.42571">
        <ele>39.400001525879</ele>
        <time>2015-11-02T20:40:37.000Z</time>
      </trkpt>
      <trkpt lat="48.80652" lon="2.42573">
        <ele>39.400001525879</ele>
        <time>2015-11-02T20:40:39.000Z</time>
      </trkpt>
      <trkpt lat="48.80643" lon="2.42578">
        <ele>39.400001525879</ele>
        <time>2015-11-02T20:40:42.000Z</time>
      </trkpt>
      <trkpt lat="48.8063" lon="2.42585">
        <ele>39.200000762939</ele>
        <time>2015-11-02T20:40:46.000Z</time>
      </trkpt>
      <trkpt lat="48.8061" lon="2.42596">
        <ele>38.599998474121</ele>
        <time>2015-11-02T20:40:52.000Z</time>
      </trkpt>
      <trkpt lat="48.80606" lon="2.42604">
        <ele>38.200000762939</ele>
        <time>2015-11-02T20:40:54.000Z</time>
      </trkpt>
      <trkpt lat="48.80592" lon="2.42623">
        <ele>37</ele>
        <time>2015-11-02T20:41:00.000Z</time>
      </trkpt>
      <trkpt lat="48.80588" lon="2.42625">
        <ele>36.599998474121</ele>
        <time>2015-11-02T20:41:01.000Z</time>
      </trkpt>
      <trkpt lat="48.80571" lon="2.42637">
        <ele>35.799999237061</ele>
        <time>2015-11-02T20:41:05.000Z</time>
      </trkpt>
      <trkpt lat="48.80551" lon="2.42651">
        <ele>36.400001525879</ele>
        <time>2015-11-02T20:41:09.000Z</time>
      </trkpt>
      <trkpt lat="48.80533" lon="2.42662">
        <ele>36.799999237061</ele>
        <time>2015-11-02T20:41:12.000Z</time>
      </trkpt>
      <trkpt lat="48.80516" lon="2.42675">
        <ele>37.200000762939</ele>
        <time>2015-11-02T20:41:15.000Z</time>
      </trkpt>
      <trkpt lat="48.80499" lon="2.42688">
        <ele>37.599998474121</ele>
        <time>2015-11-02T20:41:18.000Z</time>
      </trkpt>
      <trkpt lat="48.80487" lon="2.42696">
        <ele>37.799999237061</ele>
        <time>2015-11-02T20:41:20.000Z</time>
      </trkpt>
      <trkpt lat="48.8047" lon="2.42704">
        <ele>38</ele>
        <time>2015-11-02T20:41:23.000Z</time>
      </trkpt>
      <trkpt lat="48.80451" lon="2.42716">
        <ele>38.400001525879</ele>
        <time>2015-11-02T20:41:26.000Z</time>
      </trkpt>
      <trkpt lat="48.80435" lon="2.4273">
        <ele>38.799999237061</ele>
        <time>2015-11-02T20:41:29.000Z</time>
      </trkpt>
      <trkpt lat="48.80416" lon="2.42746">
        <ele>38.200000762939</ele>
        <time>2015-11-02T20:41:33.000Z</time>
      </trkpt>
      <trkpt lat="48.80394" lon="2.42761">
        <ele>37.200000762939</ele>
        <time>2015-11-02T20:41:37.000Z</time>
      </trkpt>
      <trkpt lat="48.80385" lon="2.4277">
        <ele>36.799999237061</ele>
        <time>2015-11-02T20:41:39.000Z</time>
      </trkpt>
      <trkpt lat="48.80367" lon="2.42787">
        <ele>37</ele>
        <time>2015-11-02T20:41:43.000Z</time>
      </trkpt>
      <trkpt lat="48.80352" lon="2.42795">
        <ele>37</ele>
        <time>2015-11-02T20:41:46.000Z</time>
      </trkpt>
      <trkpt lat="48.80331" lon="2.42812">
        <ele>37.200000762939</ele>
        <time>2015-11-02T20:41:50.000Z</time>
      </trkpt>
      <trkpt lat="48.80319" lon="2.42819">
        <ele>36.599998474121</ele>
        <time>2015-11-02T20:41:52.000Z</time>
      </trkpt>
      <trkpt lat="48.80302" lon="2.42832">
        <ele>36</ele>
        <time>2015-11-02T20:41:55.000Z</time>
      </trkpt>
      <trkpt lat="48.80292" lon="2.42841">
        <ele>35.799999237061</ele>
        <time>2015-11-02T20:41:57.000Z</time>
      </trkpt>
      <trkpt lat="48.80274" lon="2.42862">
        <ele>35</ele>
        <time>2015-11-02T20:42:01.000Z</time>
      </trkpt>
      <trkpt lat="48.80258" lon="2.42886">
        <ele>34.599998474121</ele>
        <time>2015-11-02T20:42:05.000Z</time>
      </trkpt>
      <trkpt lat="48.80242" lon="2.42911">
        <ele>34.200000762939</ele>
        <time>2015-11-02T20:42:09.000Z</time>
      </trkpt>
      <trkpt lat="48.80231" lon="2.4293">
        <ele>34.400001525879</ele>
        <time>2015-11-02T20:42:12.000Z</time>
      </trkpt>
      <trkpt lat="48.80218" lon="2.42956">
        <ele>34.599998474121</ele>
        <time>2015-11-02T20:42:16.000Z</time>
      </trkpt>
      <trkpt lat="48.80209" lon="2.42975">
        <ele>35</ele>
        <time>2015-11-02T20:42:19.000Z</time>
      </trkpt>
      <trkpt lat="48.80198" lon="2.43001">
        <ele>35.200000762939</ele>
        <time>2015-11-02T20:42:23.000Z</time>
      </trkpt>
      <trkpt lat="48.80184" lon="2.43027">
        <ele>35</ele>
        <time>2015-11-02T20:42:27.000Z</time>
      </trkpt>
      <trkpt lat="48.80181" lon="2.43033">
        <ele>35</ele>
        <time>2015-11-02T20:42:28.000Z</time>
      </trkpt>
      <trkpt lat="48.80168" lon="2.43059">
        <ele>34.799999237061</ele>
        <time>2015-11-02T20:42:32.000Z</time>
      </trkpt>
      <trkpt lat="48.80155" lon="2.43083">
        <ele>35</ele>
        <time>2015-11-02T20:42:36.000Z</time>
      </trkpt>
      <trkpt lat="48.80142" lon="2.43107">
        <ele>36.400001525879</ele>
        <time>2015-11-02T20:42:40.000Z</time>
      </trkpt>
      <trkpt lat="48.80138" lon="2.43112">
        <ele>36.799999237061</ele>
        <time>2015-11-02T20:42:41.000Z</time>
      </trkpt>
      <trkpt lat="48.80126" lon="2.43133">
        <ele>37.400001525879</ele>
        <time>2015-11-02T20:42:46.000Z</time>
      </trkpt>
      <trkpt lat="48.80122" lon="2.43144">
        <ele>37.599998474121</ele>
        <time>2015-11-02T20:42:49.000Z</time>
      </trkpt>
      <trkpt lat="48.80122" lon="2.43157">
        <ele>38</ele>
        <time>2015-11-02T20:42:53.000Z</time>
      </trkpt>
      <trkpt lat="48.80119" lon="2.43173">
        <ele>38.599998474121</ele>
        <time>2015-11-02T20:43:40.000Z</time>
      </trkpt>
      <trkpt lat="48.80109" lon="2.43174">
        <ele>38.200000762939</ele>
        <time>2015-11-02T20:44:37.000Z</time>
      </trkpt>
      <trkpt lat="48.80093" lon="2.4319">
        <ele>37.200000762939</ele>
        <time>2015-11-02T20:44:46.000Z</time>
      </trkpt>
      <trkpt lat="48.80074" lon="2.43198">
        <ele>36.200000762939</ele>
        <time>2015-11-02T20:44:51.000Z</time>
      </trkpt>
      <trkpt lat="48.80056" lon="2.43204">
        <ele>35.200000762939</ele>
        <time>2015-11-02T20:44:55.000Z</time>
      </trkpt>
      <trkpt lat="48.80037" lon="2.4321">
        <ele>34.599998474121</ele>
        <time>2015-11-02T20:44:59.000Z</time>
      </trkpt>
      <trkpt lat="48.8002" lon="2.43219">
        <ele>34.200000762939</ele>
        <time>2015-11-02T20:45:03.000Z</time>
      </trkpt>
      <trkpt lat="48.8" lon="2.4323">
        <ele>34.200000762939</ele>
        <time>2015-11-02T20:45:08.000Z</time>
      </trkpt>
      <trkpt lat="48.79979" lon="2.43242">
        <ele>34.400001525879</ele>
        <time>2015-11-02T20:45:13.000Z</time>
      </trkpt>
      <trkpt lat="48.79962" lon="2.43253">
        <ele>34.400001525879</ele>
        <time>2015-11-02T20:45:17.000Z</time>
      </trkpt>
      <trkpt lat="48.79943" lon="2.43261">
        <ele>34.200000762939</ele>
        <time>2015-11-02T20:45:21.000Z</time>
      </trkpt>
      <trkpt lat="48.79921" lon="2.43273">
        <ele>34</ele>
        <time>2015-11-02T20:45:26.000Z</time>
      </trkpt>
      <trkpt lat="48.79904" lon="2.43281">
        <ele>34</ele>
        <time>2015-11-02T20:45:30.000Z</time>
      </trkpt>
      <trkpt lat="48.79886" lon="2.43288">
        <ele>33.799999237061</ele>
        <time>2015-11-02T20:45:34.000Z</time>
      </trkpt>
      <trkpt lat="48.79879" lon="2.43289">
        <ele>33.599998474121</ele>
        <time>2015-11-02T20:45:36.000Z</time>
      </trkpt>
      <trkpt lat="48.7987" lon="2.43291">
        <ele>33.400001525879</ele>
        <time>2015-11-02T20:45:38.000Z</time>
      </trkpt>
      <trkpt lat="48.79851" lon="2.43298">
        <ele>32.799999237061</ele>
        <time>2015-11-02T20:45:43.000Z</time>
      </trkpt>
      <trkpt lat="48.79844" lon="2.43301">
        <ele>32.799999237061</ele>
        <time>2015-11-02T20:45:45.000Z</time>
      </trkpt>
      <trkpt lat="48.79825" lon="2.43311">
        <ele>32.799999237061</ele>
        <time>2015-11-02T20:45:52.000Z</time>
      </trkpt>
      <trkpt lat="48.79819" lon="2.43316">
        <ele>32.799999237061</ele>
        <time>2015-11-02T20:45:56.000Z</time>
      </trkpt>
      <trkpt lat="48.79811" lon="2.43314">
        <ele>33</ele>
        <time>2015-11-02T20:46:02.000Z</time>
      </trkpt>
      <trkpt lat="48.79794" lon="2.43314">
        <ele>33.200000762939</ele>
        <time>2015-11-02T20:46:15.000Z</time>
      </trkpt>
      <trkpt lat="48.79776" lon="2.43318">
        <ele>33.200000762939</ele>
        <time>2015-11-02T20:46:23.000Z</time>
      </trkpt>
      <trkpt lat="48.79757" lon="2.43322">
        <ele>33</ele>
        <time>2015-11-02T20:46:29.000Z</time>
      </trkpt>
      <trkpt lat="48.79739" lon="2.4331">
        <ele>33</ele>
        <time>2015-11-02T20:46:35.000Z</time>
      </trkpt>
      <trkpt lat="48.79732" lon="2.43285">
        <ele>33.599998474121</ele>
        <time>2015-11-02T20:46:40.000Z</time>
      </trkpt>
      <trkpt lat="48.79726" lon="2.43273">
        <ele>33.799999237061</ele>
        <time>2015-11-02T20:46:43.000Z</time>
      </trkpt>
      <trkpt lat="48.79714" lon="2.43271">
        <ele>33.799999237061</ele>
        <time>2015-11-02T20:46:47.000Z</time>
      </trkpt>
      <trkpt lat="48.79695" lon="2.43266">
        <ele>33.599998474121</ele>
        <time>2015-11-02T20:46:52.000Z</time>
      </trkpt>
      <trkpt lat="48.79676" lon="2.43251">
        <ele>34</ele>
        <time>2015-11-02T20:46:57.000Z</time>
      </trkpt>
      <trkpt lat="48.7966" lon="2.43237">
        <ele>34</ele>
        <time>2015-11-02T20:47:01.000Z</time>
      </trkpt>
      <trkpt lat="48.79644" lon="2.43224">
        <ele>34</ele>
        <time>2015-11-02T20:47:05.000Z</time>
      </trkpt>
      <trkpt lat="48.79627" lon="2.43212">
        <ele>33.799999237061</ele>
        <time>2015-11-02T20:47:09.000Z</time>
      </trkpt>
      <trkpt lat="48.79613" lon="2.43207">
        <ele>33.799999237061</ele>
        <time>2015-11-02T20:47:12.000Z</time>
      </trkpt>
      <trkpt lat="48.79594" lon="2.43209">
        <ele>34</ele>
        <time>2015-11-02T20:47:16.000Z</time>
      </trkpt>
      <trkpt lat="48.79576" lon="2.43211">
        <ele>34</ele>
        <time>2015-11-02T20:47:20.000Z</time>
      </trkpt>
      <trkpt lat="48.79568" lon="2.43212">
        <ele>34.200000762939</ele>
        <time>2015-11-02T20:47:22.000Z</time>
      </trkpt>
      <trkpt lat="48.79546" lon="2.43216">
        <ele>33.599998474121</ele>
        <time>2015-11-02T20:47:27.000Z</time>
      </trkpt>
      <trkpt lat="48.79527" lon="2.43218">
        <ele>33.200000762939</ele>
        <time>2015-11-02T20:47:31.000Z</time>
      </trkpt>
      <trkpt lat="48.79508" lon="2.4322">
        <ele>33.400001525879</ele>
        <time>2015-11-02T20:47:35.000Z</time>
      </trkpt>
      <trkpt lat="48.795" lon="2.43221">
        <ele>33.599998474121</ele>
        <time>2015-11-02T20:47:37.000Z</time>
      </trkpt>
      <trkpt lat="48.79477" lon="2.43224">
        <ele>33.599998474121</ele>
        <time>2015-11-02T20:47:42.000Z</time>
      </trkpt>
      <trkpt lat="48.79458" lon="2.43226">
        <ele>33.599998474121</ele>
        <time>2015-11-02T20:47:46.000Z</time>
      </trkpt>
      <trkpt lat="48.79453" lon="2.43227">
        <ele>33.599998474121</ele>
        <time>2015-11-02T20:47:47.000Z</time>
      </trkpt>
      <trkpt lat="48.79434" lon="2.43232">
        <ele>33.400001525879</ele>
        <time>2015-11-02T20:47:51.000Z</time>
      </trkpt>
      <trkpt lat="48.79416" lon="2.43235">
        <ele>33.200000762939</ele>
        <time>2015-11-02T20:47:55.000Z</time>
      </trkpt>
      <trkpt lat="48.79397" lon="2.43238">
        <ele>33.400001525879</ele>
        <time>2015-11-02T20:47:59.000Z</time>
      </trkpt>
      <trkpt lat="48.79387" lon="2.43239">
        <ele>33.599998474121</ele>
        <time>2015-11-02T20:48:01.000Z</time>
      </trkpt>
      <trkpt lat="48.79373" lon="2.43242">
        <ele>33.799999237061</ele>
        <time>2015-11-02T20:48:04.000Z</time>
      </trkpt>
      <trkpt lat="48.79354" lon="2.43246">
        <ele>34</ele>
        <time>2015-11-02T20:48:08.000Z</time>
      </trkpt>
      <trkpt lat="48.7935" lon="2.43246">
        <ele>34.200000762939</ele>
        <time>2015-11-02T20:48:09.000Z</time>
      </trkpt>
      <trkpt lat="48.79331" lon="2.43247">
        <ele>34.400001525879</ele>
        <time>2015-11-02T20:48:13.000Z</time>
      </trkpt>
      <trkpt lat="48.79312" lon="2.43251">
        <ele>34.400001525879</ele>
        <time>2015-11-02T20:48:17.000Z</time>
      </trkpt>
      <trkpt lat="48.79293" lon="2.43253">
        <ele>34.599998474121</ele>
        <time>2015-11-02T20:48:21.000Z</time>
      </trkpt>
      <trkpt lat="48.79275" lon="2.43256">
        <ele>34.799999237061</ele>
        <time>2015-11-02T20:48:25.000Z</time>
      </trkpt>
      <trkpt lat="48.7927" lon="2.43257">
        <ele>34.799999237061</ele>
        <time>2015-11-02T20:48:26.000Z</time>
      </trkpt>
      <trkpt lat="48.79251" lon="2.43259">
        <ele>34.599998474121</ele>
        <time>2015-11-02T20:48:30.000Z</time>
      </trkpt>
      <trkpt lat="48.79232" lon="2.43261">
        <ele>34.400001525879</ele>
        <time>2015-11-02T20:48:34.000Z</time>
      </trkpt>
      <trkpt lat="48.79212" lon="2.43264">
        <ele>34.200000762939</ele>
        <time>2015-11-02T20:48:38.000Z</time>
      </trkpt>
      <trkpt lat="48.7919" lon="2.43266">
        <ele>34.400001525879</ele>
        <time>2015-11-02T20:48:42.000Z</time>
      </trkpt>
      <trkpt lat="48.79185" lon="2.43266">
        <ele>34.200000762939</ele>
        <time>2015-11-02T20:48:43.000Z</time>
      </trkpt>
      <trkpt lat="48.79165" lon="2.43269">
        <ele>33.400001525879</ele>
        <time>2015-11-02T20:48:47.000Z</time>
      </trkpt>
      <trkpt lat="48.79143" lon="2.43273">
        <ele>32.400001525879</ele>
        <time>2015-11-02T20:48:51.000Z</time>
      </trkpt>
      <trkpt lat="48.79133" lon="2.43276">
        <ele>32</ele>
        <time>2015-11-02T20:48:53.000Z</time>
      </trkpt>
      <trkpt lat="48.79126" lon="2.433">
        <ele>31.799999237061</ele>
        <time>2015-11-02T20:48:57.000Z</time>
      </trkpt>
      <trkpt lat="48.7913" lon="2.43329">
        <ele>32.400001525879</ele>
        <time>2015-11-02T20:49:01.000Z</time>
      </trkpt>
      <trkpt lat="48.79134" lon="2.43358">
        <ele>32.799999237061</ele>
        <time>2015-11-02T20:49:05.000Z</time>
      </trkpt>
      <trkpt lat="48.79137" lon="2.43373">
        <ele>33.400001525879</ele>
        <time>2015-11-02T20:49:07.000Z</time>
      </trkpt>
      <trkpt lat="48.79141" lon="2.43401">
        <ele>35.200000762939</ele>
        <time>2015-11-02T20:49:11.000Z</time>
      </trkpt>
      <trkpt lat="48.79141" lon="2.43409">
        <ele>35.599998474121</ele>
        <time>2015-11-02T20:49:12.000Z</time>
      </trkpt>
      <trkpt lat="48.79142" lon="2.43422">
        <ele>35.799999237061</ele>
        <time>2015-11-02T20:49:14.000Z</time>
      </trkpt>
      <trkpt lat="48.79146" lon="2.43452">
        <ele>34.599998474121</ele>
        <time>2015-11-02T20:49:19.000Z</time>
      </trkpt>
      <trkpt lat="48.7915" lon="2.43473">
        <ele>34</ele>
        <time>2015-11-02T20:49:25.000Z</time>
      </trkpt>
      <trkpt lat="48.79135" lon="2.43483">
        <ele>33.599998474121</ele>
        <time>2015-11-02T20:49:30.000Z</time>
      </trkpt>
      <trkpt lat="48.79126" lon="2.43486">
        <ele>33.400001525879</ele>
        <time>2015-11-02T20:49:33.000Z</time>
      </trkpt>
      <trkpt lat="48.7912" lon="2.43488">
        <ele>33.400001525879</ele>
        <time>2015-11-02T20:49:35.000Z</time>
      </trkpt>
      <trkpt lat="48.79104" lon="2.43493">
        <ele>33.200000762939</ele>
        <time>2015-11-02T20:49:41.000Z</time>
      </trkpt>
      <trkpt lat="48.79085" lon="2.43499">
        <ele>33.200000762939</ele>
        <time>2015-11-02T20:49:47.000Z</time>
      </trkpt>
      <trkpt lat="48.79065" lon="2.43505">
        <ele>33.400001525879</ele>
        <time>2015-11-02T20:49:53.000Z</time>
      </trkpt>
      <trkpt lat="48.79045" lon="2.4351">
        <ele>33.799999237061</ele>
        <time>2015-11-02T20:49:58.000Z</time>
      </trkpt>
      <trkpt lat="48.79025" lon="2.43515">
        <ele>33.799999237061</ele>
        <time>2015-11-02T20:50:03.000Z</time>
      </trkpt>
      <trkpt lat="48.79006" lon="2.43519">
        <ele>33.599998474121</ele>
        <time>2015-11-02T20:50:07.000Z</time>
      </trkpt>
      <trkpt lat="48.78988" lon="2.43524">
        <ele>33.200000762939</ele>
        <time>2015-11-02T20:50:11.000Z</time>
      </trkpt>
      <trkpt lat="48.78969" lon="2.43529">
        <ele>33</ele>
        <time>2015-11-02T20:50:15.000Z</time>
      </trkpt>
      <trkpt lat="48.7895" lon="2.43534">
        <ele>33.599998474121</ele>
        <time>2015-11-02T20:50:19.000Z</time>
      </trkpt>
      <trkpt lat="48.78928" lon="2.43539">
        <ele>34</ele>
        <time>2015-11-02T20:50:23.000Z</time>
      </trkpt>
      <trkpt lat="48.78906" lon="2.43545">
        <ele>34.400001525879</ele>
        <time>2015-11-02T20:50:27.000Z</time>
      </trkpt>
      <trkpt lat="48.78886" lon="2.4355">
        <ele>34.599998474121</ele>
        <time>2015-11-02T20:50:31.000Z</time>
      </trkpt>
      <trkpt lat="48.78864" lon="2.43557">
        <ele>34.599998474121</ele>
        <time>2015-11-02T20:50:35.000Z</time>
      </trkpt>
      <trkpt lat="48.78843" lon="2.43563">
        <ele>34.599998474121</ele>
        <time>2015-11-02T20:50:39.000Z</time>
      </trkpt>
      <trkpt lat="48.7882" lon="2.43568">
        <ele>34</ele>
        <time>2015-11-02T20:50:43.000Z</time>
      </trkpt>
      <trkpt lat="48.78798" lon="2.43572">
        <ele>33</ele>
        <time>2015-11-02T20:50:47.000Z</time>
      </trkpt>
      <trkpt lat="48.78776" lon="2.43577">
        <ele>32.200000762939</ele>
        <time>2015-11-02T20:50:51.000Z</time>
      </trkpt>
      <trkpt lat="48.78764" lon="2.43579">
        <ele>32</ele>
        <time>2015-11-02T20:50:53.000Z</time>
      </trkpt>
      <trkpt lat="48.78743" lon="2.43585">
        <ele>31.39999961853</ele>
        <time>2015-11-02T20:50:57.000Z</time>
      </trkpt>
      <trkpt lat="48.7872" lon="2.43591">
        <ele>31</ele>
        <time>2015-11-02T20:51:01.000Z</time>
      </trkpt>
      <trkpt lat="48.78698" lon="2.43597">
        <ele>30.60000038147</ele>
        <time>2015-11-02T20:51:05.000Z</time>
      </trkpt>
      <trkpt lat="48.78676" lon="2.43605">
        <ele>30.799999237061</ele>
        <time>2015-11-02T20:51:09.000Z</time>
      </trkpt>
      <trkpt lat="48.78654" lon="2.43612">
        <ele>31.60000038147</ele>
        <time>2015-11-02T20:51:13.000Z</time>
      </trkpt>
      <trkpt lat="48.78631" lon="2.43618">
        <ele>32.200000762939</ele>
        <time>2015-11-02T20:51:17.000Z</time>
      </trkpt>
      <trkpt lat="48.78614" lon="2.43622">
        <ele>32.400001525879</ele>
        <time>2015-11-02T20:51:20.000Z</time>
      </trkpt>
      <trkpt lat="48.78594" lon="2.43625">
        <ele>32.599998474121</ele>
        <time>2015-11-02T20:51:23.000Z</time>
      </trkpt>
      <trkpt lat="48.78574" lon="2.43628">
        <ele>33</ele>
        <time>2015-11-02T20:51:26.000Z</time>
      </trkpt>
      <trkpt lat="48.78555" lon="2.43632">
        <ele>33</ele>
        <time>2015-11-02T20:51:29.000Z</time>
      </trkpt>
      <trkpt lat="48.78535" lon="2.43636">
        <ele>33</ele>
        <time>2015-11-02T20:51:32.000Z</time>
      </trkpt>
      <trkpt lat="48.78515" lon="2.4364">
        <ele>33.200000762939</ele>
        <time>2015-11-02T20:51:35.000Z</time>
      </trkpt>
      <trkpt lat="48.78495" lon="2.43642">
        <ele>33.799999237061</ele>
        <time>2015-11-02T20:51:38.000Z</time>
      </trkpt>
      <trkpt lat="48.78477" lon="2.43647">
        <ele>33.599998474121</ele>
        <time>2015-11-02T20:51:41.000Z</time>
      </trkpt>
      <trkpt lat="48.78461" lon="2.43651">
        <ele>33.599998474121</ele>
        <time>2015-11-02T20:51:44.000Z</time>
      </trkpt>
      <trkpt lat="48.78443" lon="2.43645">
        <ele>33.799999237061</ele>
        <time>2015-11-02T20:51:48.000Z</time>
      </trkpt>
      <trkpt lat="48.78424" lon="2.43651">
        <ele>33.400001525879</ele>
        <time>2015-11-02T20:51:53.000Z</time>
      </trkpt>
      <trkpt lat="48.7842" lon="2.43656">
        <ele>33.400001525879</ele>
        <time>2015-11-02T20:51:55.000Z</time>
      </trkpt>
      <trkpt lat="48.78405" lon="2.43663">
        <ele>33.799999237061</ele>
        <time>2015-11-02T20:52:04.000Z</time>
      </trkpt>
      <trkpt lat="48.78393" lon="2.43667">
        <ele>34</ele>
        <time>2015-11-02T20:52:08.000Z</time>
      </trkpt>
      <trkpt lat="48.78385" lon="2.4367">
        <ele>34.200000762939</ele>
        <time>2015-11-02T20:52:11.000Z</time>
      </trkpt>
      <trkpt lat="48.78379" lon="2.43672">
        <ele>34.200000762939</ele>
        <time>2015-11-02T20:52:13.000Z</time>
      </trkpt>
      <trkpt lat="48.78359" lon="2.43678">
        <ele>34.599998474121</ele>
        <time>2015-11-02T20:52:19.000Z</time>
      </trkpt>
      <trkpt lat="48.7834" lon="2.43684">
        <ele>34.400001525879</ele>
        <time>2015-11-02T20:52:24.000Z</time>
      </trkpt>
      <trkpt lat="48.78322" lon="2.43688">
        <ele>34</ele>
        <time>2015-11-02T20:52:29.000Z</time>
      </trkpt>
      <trkpt lat="48.78302" lon="2.43693">
        <ele>33.799999237061</ele>
        <time>2015-11-02T20:52:34.000Z</time>
      </trkpt>
      <trkpt lat="48.78282" lon="2.43697">
        <ele>33.799999237061</ele>
        <time>2015-11-02T20:52:39.000Z</time>
      </trkpt>
      <trkpt lat="48.78261" lon="2.43701">
        <ele>34</ele>
        <time>2015-11-02T20:52:44.000Z</time>
      </trkpt>
      <trkpt lat="48.7824" lon="2.43708">
        <ele>34</ele>
        <time>2015-11-02T20:52:49.000Z</time>
      </trkpt>
      <trkpt lat="48.7822" lon="2.43713">
        <ele>33.799999237061</ele>
        <time>2015-11-02T20:52:53.000Z</time>
      </trkpt>
      <trkpt lat="48.78209" lon="2.43716">
        <ele>33.599998474121</ele>
        <time>2015-11-02T20:52:55.000Z</time>
      </trkpt>
      <trkpt lat="48.78189" lon="2.43722">
        <ele>33.400001525879</ele>
        <time>2015-11-02T20:52:59.000Z</time>
      </trkpt>
      <trkpt lat="48.78169" lon="2.43727">
        <ele>33.200000762939</ele>
        <time>2015-11-02T20:53:03.000Z</time>
      </trkpt>
      <trkpt lat="48.7815" lon="2.43732">
        <ele>33.200000762939</ele>
        <time>2015-11-02T20:53:07.000Z</time>
      </trkpt>
      <trkpt lat="48.78138" lon="2.43733">
        <ele>33.200000762939</ele>
        <time>2015-11-02T20:53:09.000Z</time>
      </trkpt>
      <trkpt lat="48.7812" lon="2.43737">
        <ele>33.200000762939</ele>
        <time>2015-11-02T20:53:12.000Z</time>
      </trkpt>
      <trkpt lat="48.78102" lon="2.43741">
        <ele>33</ele>
        <time>2015-11-02T20:53:15.000Z</time>
      </trkpt>
      <trkpt lat="48.78079" lon="2.43745">
        <ele>33.400001525879</ele>
        <time>2015-11-02T20:53:19.000Z</time>
      </trkpt>
      <trkpt lat="48.78056" lon="2.43749">
        <ele>33.599998474121</ele>
        <time>2015-11-02T20:53:23.000Z</time>
      </trkpt>
      <trkpt lat="48.78034" lon="2.43754">
        <ele>33.799999237061</ele>
        <time>2015-11-02T20:53:27.000Z</time>
      </trkpt>
      <trkpt lat="48.78014" lon="2.43759">
        <ele>34</ele>
        <time>2015-11-02T20:53:31.000Z</time>
      </trkpt>
      <trkpt lat="48.77995" lon="2.43763">
        <ele>34</ele>
        <time>2015-11-02T20:53:35.000Z</time>
      </trkpt>
      <trkpt lat="48.77977" lon="2.43769">
        <ele>34</ele>
        <time>2015-11-02T20:53:41.000Z</time>
      </trkpt>
      <trkpt lat="48.77958" lon="2.43773">
        <ele>34</ele>
        <time>2015-11-02T20:53:54.000Z</time>
      </trkpt>
      <trkpt lat="48.77938" lon="2.43781">
        <ele>33.599998474121</ele>
        <time>2015-11-02T20:54:01.000Z</time>
      </trkpt>
      <trkpt lat="48.7792" lon="2.43788">
        <ele>35.200000762939</ele>
        <time>2015-11-02T20:54:06.000Z</time>
      </trkpt>
      <trkpt lat="48.779" lon="2.43796">
        <ele>37</ele>
        <time>2015-11-02T20:54:11.000Z</time>
      </trkpt>
      <trkpt lat="48.77878" lon="2.43803">
        <ele>37</ele>
        <time>2015-11-02T20:54:16.000Z</time>
      </trkpt>
      <trkpt lat="48.77861" lon="2.43808">
        <ele>36.799999237061</ele>
        <time>2015-11-02T20:54:20.000Z</time>
      </trkpt>
      <trkpt lat="48.7784" lon="2.43813">
        <ele>36</ele>
        <time>2015-11-02T20:54:24.000Z</time>
      </trkpt>
      <trkpt lat="48.77818" lon="2.43819">
        <ele>35.799999237061</ele>
        <time>2015-11-02T20:54:28.000Z</time>
      </trkpt>
      <trkpt lat="48.77795" lon="2.43825">
        <ele>36</ele>
        <time>2015-11-02T20:54:32.000Z</time>
      </trkpt>
      <trkpt lat="48.77772" lon="2.43831">
        <ele>36</ele>
        <time>2015-11-02T20:54:36.000Z</time>
      </trkpt>
      <trkpt lat="48.7775" lon="2.43838">
        <ele>37.400001525879</ele>
        <time>2015-11-02T20:54:40.000Z</time>
      </trkpt>
      <trkpt lat="48.77729" lon="2.43845">
        <ele>38.799999237061</ele>
        <time>2015-11-02T20:54:44.000Z</time>
      </trkpt>
      <trkpt lat="48.77707" lon="2.43853">
        <ele>40</ele>
        <time>2015-11-02T20:54:48.000Z</time>
      </trkpt>
      <trkpt lat="48.77688" lon="2.43856">
        <ele>40.400001525879</ele>
        <time>2015-11-02T20:54:52.000Z</time>
      </trkpt>
      <trkpt lat="48.77671" lon="2.43861">
        <ele>39.200000762939</ele>
        <time>2015-11-02T20:54:56.000Z</time>
      </trkpt>
      <trkpt lat="48.77652" lon="2.43864">
        <ele>38</ele>
        <time>2015-11-02T20:55:00.000Z</time>
      </trkpt>
      <trkpt lat="48.77648" lon="2.43864">
        <ele>37.799999237061</ele>
        <time>2015-11-02T20:55:01.000Z</time>
      </trkpt>
      <trkpt lat="48.77637" lon="2.43862">
        <ele>37.200000762939</ele>
        <time>2015-11-02T20:55:05.000Z</time>
      </trkpt>
      <trkpt lat="48.77633" lon="2.43861">
        <ele>37</ele>
        <time>2015-11-02T20:55:06.000Z</time>
      </trkpt>
      <trkpt lat="48.77621" lon="2.43863">
        <ele>36.799999237061</ele>
        <time>2015-11-02T20:55:09.000Z</time>
      </trkpt>
      <trkpt lat="48.776" lon="2.43866">
        <ele>36.400001525879</ele>
        <time>2015-11-02T20:55:13.000Z</time>
      </trkpt>
      <trkpt lat="48.77595" lon="2.43867">
        <ele>36.400001525879</ele>
        <time>2015-11-02T20:55:14.000Z</time>
      </trkpt>
      <trkpt lat="48.77575" lon="2.43872">
        <ele>36.200000762939</ele>
        <time>2015-11-02T20:55:18.000Z</time>
      </trkpt>
      <trkpt lat="48.77569" lon="2.43874">
        <ele>36</ele>
        <time>2015-11-02T20:55:19.000Z</time>
      </trkpt>
      <trkpt lat="48.7755" lon="2.4388">
        <ele>36.200000762939</ele>
        <time>2015-11-02T20:55:23.000Z</time>
      </trkpt>
      <trkpt lat="48.77531" lon="2.43885">
        <ele>36.200000762939</ele>
        <time>2015-11-02T20:55:27.000Z</time>
      </trkpt>
      <trkpt lat="48.77513" lon="2.4389">
        <ele>36.599998474121</ele>
        <time>2015-11-02T20:55:31.000Z</time>
      </trkpt>
      <trkpt lat="48.77509" lon="2.43892">
        <ele>36.799999237061</ele>
        <time>2015-11-02T20:55:32.000Z</time>
      </trkpt>
      <trkpt lat="48.7749" lon="2.43897">
        <ele>37</ele>
        <time>2015-11-02T20:55:37.000Z</time>
      </trkpt>
      <trkpt lat="48.77474" lon="2.43901">
        <ele>37</ele>
        <time>2015-11-02T20:55:43.000Z</time>
      </trkpt>
      <trkpt lat="48.77468" lon="2.43916">
        <ele>37</ele>
        <time>2015-11-02T20:56:24.000Z</time>
      </trkpt>
      <trkpt lat="48.77471" lon="2.43895">
        <ele>37</ele>
        <time>2015-11-02T20:57:30.000Z</time>
      </trkpt>
      <trkpt lat="48.77459" lon="2.43879">
        <ele>37</ele>
        <time>2015-11-02T20:58:01.000Z</time>
      </trkpt>
      <trkpt lat="48.77441" lon="2.43867">
        <ele>37</ele>
        <time>2015-11-02T20:58:09.000Z</time>
      </trkpt>
      <trkpt lat="48.77437" lon="2.43865">
        <ele>37</ele>
        <time>2015-11-02T20:58:12.000Z</time>
      </trkpt>
      <trkpt lat="48.77419" lon="2.43872">
        <ele>36.799999237061</ele>
        <time>2015-11-02T20:58:19.000Z</time>
      </trkpt>
      <trkpt lat="48.77414" lon="2.43874">
        <ele>36.799999237061</ele>
        <time>2015-11-02T20:58:27.000Z</time>
      </trkpt>
      <trkpt lat="48.77402" lon="2.43898">
        <ele>36.200000762939</ele>
        <time>2015-11-02T20:58:42.000Z</time>
      </trkpt>
      <trkpt lat="48.7739" lon="2.4392">
        <ele>35.200000762939</ele>
        <time>2015-11-02T20:58:51.000Z</time>
      </trkpt>
      <trkpt lat="48.77383" lon="2.43921">
        <ele>35</ele>
        <time>2015-11-02T20:58:56.000Z</time>
      </trkpt>
      <trkpt lat="48.77387" lon="2.4391">
        <ele>35.400001525879</ele>
        <time>2015-11-02T20:59:44.000Z</time>
      </trkpt>
      <trkpt lat="48.774" lon="2.43892">
        <ele>36.200000762939</ele>
        <time>2015-11-02T21:00:04.000Z</time>
      </trkpt>
      <trkpt lat="48.77401" lon="2.43871">
        <ele>36.599998474121</ele>
        <time>2015-11-02T21:00:33.000Z</time>
      </trkpt>
      <trkpt lat="48.77392" lon="2.43842">
        <ele>36.400001525879</ele>
        <time>2015-11-02T21:00:41.000Z</time>
      </trkpt>
      <trkpt lat="48.77384" lon="2.43814">
        <ele>36.200000762939</ele>
        <time>2015-11-02T21:00:47.000Z</time>
      </trkpt>
      <trkpt lat="48.77377" lon="2.43786">
        <ele>35.799999237061</ele>
        <time>2015-11-02T21:00:53.000Z</time>
      </trkpt>
      <trkpt lat="48.77369" lon="2.43761">
        <ele>35.400001525879</ele>
        <time>2015-11-02T21:01:00.000Z</time>
      </trkpt>
      <trkpt lat="48.77359" lon="2.43735">
        <ele>34.799999237061</ele>
        <time>2015-11-02T21:01:07.000Z</time>
      </trkpt>
      <trkpt lat="48.77352" lon="2.43709">
        <ele>34.599998474121</ele>
        <time>2015-11-02T21:01:12.000Z</time>
      </trkpt>
      <trkpt lat="48.77344" lon="2.43683">
        <ele>34.200000762939</ele>
        <time>2015-11-02T21:01:17.000Z</time>
      </trkpt>
      <trkpt lat="48.77337" lon="2.43655">
        <ele>34.200000762939</ele>
        <time>2015-11-02T21:01:22.000Z</time>
      </trkpt>
      <trkpt lat="48.7733" lon="2.43629">
        <ele>34.799999237061</ele>
        <time>2015-11-02T21:01:26.000Z</time>
      </trkpt>
      <trkpt lat="48.77322" lon="2.436">
        <ele>35.599998474121</ele>
        <time>2015-11-02T21:01:31.000Z</time>
      </trkpt>
      <trkpt lat="48.77319" lon="2.43588">
        <ele>35.799999237061</ele>
        <time>2015-11-02T21:01:34.000Z</time>
      </trkpt>
      <trkpt lat="48.77312" lon="2.43561">
        <ele>35.799999237061</ele>
        <time>2015-11-02T21:01:40.000Z</time>
      </trkpt>
      <trkpt lat="48.77302" lon="2.43537">
        <ele>35.400001525879</ele>
        <time>2015-11-02T21:01:46.000Z</time>
      </trkpt>
      <trkpt lat="48.77293" lon="2.43518">
        <ele>35.200000762939</ele>
        <time>2015-11-02T21:01:56.000Z</time>
      </trkpt>
      <trkpt lat="48.77291" lon="2.43516">
        <ele>35.200000762939</ele>
        <time>2015-11-02T21:01:58.000Z</time>
      </trkpt>
      <trkpt lat="48.77286" lon="2.43494">
        <ele>34.799999237061</ele>
        <time>2015-11-02T21:02:41.000Z</time>
      </trkpt>
      <trkpt lat="48.77282" lon="2.43482">
        <ele>34.400001525879</ele>
        <time>2015-11-02T21:03:36.000Z</time>
      </trkpt>
      <trkpt lat="48.77283" lon="2.43467">
        <ele>33.799999237061</ele>
        <time>2015-11-02T21:03:40.000Z</time>
      </trkpt>
      <trkpt lat="48.77286" lon="2.43442">
        <ele>33</ele>
        <time>2015-11-02T21:03:50.000Z</time>
      </trkpt>
      <trkpt lat="48.77292" lon="2.43436">
        <ele>32.799999237061</ele>
        <time>2015-11-02T21:03:58.000Z</time>
      </trkpt>
      <trkpt lat="48.77293" lon="2.4343">
        <ele>32.599998474121</ele>
        <time>2015-11-02T21:04:02.000Z</time>
      </trkpt>
      <trkpt lat="48.77284" lon="2.43402">
        <ele>32.200000762939</ele>
        <time>2015-11-02T21:04:09.000Z</time>
      </trkpt>
      <trkpt lat="48.77281" lon="2.43396">
        <ele>32</ele>
        <time>2015-11-02T21:04:10.000Z</time>
      </trkpt>
      <trkpt lat="48.77273" lon="2.43378">
        <ele>31.60000038147</ele>
        <time>2015-11-02T21:04:13.000Z</time>
      </trkpt>
      <trkpt lat="48.77264" lon="2.43354">
        <ele>31.39999961853</ele>
        <time>2015-11-02T21:04:18.000Z</time>
      </trkpt>
      <trkpt lat="48.7726" lon="2.43342">
        <ele>31.39999961853</ele>
        <time>2015-11-02T21:04:22.000Z</time>
      </trkpt>
      <trkpt lat="48.77252" lon="2.43324">
        <ele>31.60000038147</ele>
        <time>2015-11-02T21:04:27.000Z</time>
      </trkpt>
      <trkpt lat="48.77242" lon="2.43296">
        <ele>32.200000762939</ele>
        <time>2015-11-02T21:04:31.000Z</time>
      </trkpt>
      <trkpt lat="48.7723" lon="2.43266">
        <ele>33.400001525879</ele>
        <time>2015-11-02T21:04:35.000Z</time>
      </trkpt>
      <trkpt lat="48.77221" lon="2.43242">
        <ele>34</ele>
        <time>2015-11-02T21:04:38.000Z</time>
      </trkpt>
      <trkpt lat="48.77212" lon="2.43217">
        <ele>34.400001525879</ele>
        <time>2015-11-02T21:04:41.000Z</time>
      </trkpt>
      <trkpt lat="48.77208" lon="2.43199">
        <ele>34.599998474121</ele>
        <time>2015-11-02T21:04:43.000Z</time>
      </trkpt>
      <trkpt lat="48.772" lon="2.43172">
        <ele>34.799999237061</ele>
        <time>2015-11-02T21:04:46.000Z</time>
      </trkpt>
      <trkpt lat="48.77192" lon="2.43145">
        <ele>35</ele>
        <time>2015-11-02T21:04:49.000Z</time>
      </trkpt>
      <trkpt lat="48.77187" lon="2.43127">
        <ele>35</ele>
        <time>2015-11-02T21:04:51.000Z</time>
      </trkpt>
      <trkpt lat="48.77178" lon="2.43101">
        <ele>34.599998474121</ele>
        <time>2015-11-02T21:04:54.000Z</time>
      </trkpt>
      <trkpt lat="48.77169" lon="2.43075">
        <ele>34.200000762939</ele>
        <time>2015-11-02T21:04:57.000Z</time>
      </trkpt>
      <trkpt lat="48.7716" lon="2.4305">
        <ele>33.400001525879</ele>
        <time>2015-11-02T21:05:00.000Z</time>
      </trkpt>
      <trkpt lat="48.77153" lon="2.43022">
        <ele>32.400001525879</ele>
        <time>2015-11-02T21:05:03.000Z</time>
      </trkpt>
      <trkpt lat="48.77151" lon="2.43014">
        <ele>32.200000762939</ele>
        <time>2015-11-02T21:05:04.000Z</time>
      </trkpt>
      <trkpt lat="48.77147" lon="2.42997">
        <ele>31.60000038147</ele>
        <time>2015-11-02T21:05:06.000Z</time>
      </trkpt>
      <trkpt lat="48.7714" lon="2.42971">
        <ele>32</ele>
        <time>2015-11-02T21:05:09.000Z</time>
      </trkpt>
      <trkpt lat="48.77133" lon="2.42944">
        <ele>32.599998474121</ele>
        <time>2015-11-02T21:05:12.000Z</time>
      </trkpt>
      <trkpt lat="48.77126" lon="2.42919">
        <ele>32.599998474121</ele>
        <time>2015-11-02T21:05:15.000Z</time>
      </trkpt>
      <trkpt lat="48.77119" lon="2.42893">
        <ele>33.200000762939</ele>
        <time>2015-11-02T21:05:18.000Z</time>
      </trkpt>
      <trkpt lat="48.77111" lon="2.42867">
        <ele>34</ele>
        <time>2015-11-02T21:05:21.000Z</time>
      </trkpt>
      <trkpt lat="48.77104" lon="2.42839">
        <ele>34.799999237061</ele>
        <time>2015-11-02T21:05:24.000Z</time>
      </trkpt>
      <trkpt lat="48.77096" lon="2.42813">
        <ele>35</ele>
        <time>2015-11-02T21:05:27.000Z</time>
      </trkpt>
      <trkpt lat="48.77089" lon="2.42789">
        <ele>34.799999237061</ele>
        <time>2015-11-02T21:05:30.000Z</time>
      </trkpt>
      <trkpt lat="48.77083" lon="2.42762">
        <ele>34.599998474121</ele>
        <time>2015-11-02T21:05:33.000Z</time>
      </trkpt>
      <trkpt lat="48.77076" lon="2.42734">
        <ele>34.599998474121</ele>
        <time>2015-11-02T21:05:36.000Z</time>
      </trkpt>
      <trkpt lat="48.77067" lon="2.42706">
        <ele>34.599998474121</ele>
        <time>2015-11-02T21:05:39.000Z</time>
      </trkpt>
      <trkpt lat="48.77059" lon="2.42679">
        <ele>34.799999237061</ele>
        <time>2015-11-02T21:05:42.000Z</time>
      </trkpt>
      <trkpt lat="48.77051" lon="2.42652">
        <ele>34.599998474121</ele>
        <time>2015-11-02T21:05:45.000Z</time>
      </trkpt>
      <trkpt lat="48.77042" lon="2.42627">
        <ele>34</ele>
        <time>2015-11-02T21:05:48.000Z</time>
      </trkpt>
      <trkpt lat="48.77035" lon="2.4261">
        <ele>33.599998474121</ele>
        <time>2015-11-02T21:05:50.000Z</time>
      </trkpt>
      <trkpt lat="48.77027" lon="2.42585">
        <ele>33</ele>
        <time>2015-11-02T21:05:53.000Z</time>
      </trkpt>
      <trkpt lat="48.77021" lon="2.42568">
        <ele>33.200000762939</ele>
        <time>2015-11-02T21:05:55.000Z</time>
      </trkpt>
      <trkpt lat="48.77014" lon="2.42542">
        <ele>33.599998474121</ele>
        <time>2015-11-02T21:05:58.000Z</time>
      </trkpt>
      <trkpt lat="48.77008" lon="2.42516">
        <ele>34</ele>
        <time>2015-11-02T21:06:01.000Z</time>
      </trkpt>
      <trkpt lat="48.76999" lon="2.42485">
        <ele>34</ele>
        <time>2015-11-02T21:06:05.000Z</time>
      </trkpt>
      <trkpt lat="48.76989" lon="2.42453">
        <ele>33.599998474121</ele>
        <time>2015-11-02T21:06:09.000Z</time>
      </trkpt>
      <trkpt lat="48.76984" lon="2.42421">
        <ele>33</ele>
        <time>2015-11-02T21:06:12.000Z</time>
      </trkpt>
      <trkpt lat="48.76975" lon="2.42397">
        <ele>32.599998474121</ele>
        <time>2015-11-02T21:06:15.000Z</time>
      </trkpt>
      <trkpt lat="48.76966" lon="2.42364">
        <ele>32.200000762939</ele>
        <time>2015-11-02T21:06:19.000Z</time>
      </trkpt>
      <trkpt lat="48.76957" lon="2.42331">
        <ele>31.799999237061</ele>
        <time>2015-11-02T21:06:23.000Z</time>
      </trkpt>
      <trkpt lat="48.76947" lon="2.42299">
        <ele>31.799999237061</ele>
        <time>2015-11-02T21:06:27.000Z</time>
      </trkpt>
      <trkpt lat="48.76937" lon="2.42266">
        <ele>32</ele>
        <time>2015-11-02T21:06:31.000Z</time>
      </trkpt>
      <trkpt lat="48.76929" lon="2.42234">
        <ele>32.200000762939</ele>
        <time>2015-11-02T21:06:35.000Z</time>
      </trkpt>
      <trkpt lat="48.76919" lon="2.42204">
        <ele>32.799999237061</ele>
        <time>2015-11-02T21:06:39.000Z</time>
      </trkpt>
      <trkpt lat="48.76909" lon="2.42174">
        <ele>33.200000762939</ele>
        <time>2015-11-02T21:06:43.000Z</time>
      </trkpt>
      <trkpt lat="48.76899" lon="2.42146">
        <ele>33.400001525879</ele>
        <time>2015-11-02T21:06:47.000Z</time>
      </trkpt>
      <trkpt lat="48.76896" lon="2.42139">
        <ele>33.400001525879</ele>
        <time>2015-11-02T21:06:48.000Z</time>
      </trkpt>
      <trkpt lat="48.76888" lon="2.42109">
        <ele>33.599998474121</ele>
        <time>2015-11-02T21:06:52.000Z</time>
      </trkpt>
      <trkpt lat="48.76881" lon="2.42084">
        <ele>33.400001525879</ele>
        <time>2015-11-02T21:06:56.000Z</time>
      </trkpt>
      <trkpt lat="48.76872" lon="2.42053">
        <ele>32.799999237061</ele>
        <time>2015-11-02T21:07:01.000Z</time>
      </trkpt>
      <trkpt lat="48.76861" lon="2.4202">
        <ele>32.400001525879</ele>
        <time>2015-11-02T21:07:05.000Z</time>
      </trkpt>
      <trkpt lat="48.76852" lon="2.4199">
        <ele>32.200000762939</ele>
        <time>2015-11-02T21:07:08.000Z</time>
      </trkpt>
      <trkpt lat="48.76844" lon="2.41959">
        <ele>32.599998474121</ele>
        <time>2015-11-02T21:07:11.000Z</time>
      </trkpt>
      <trkpt lat="48.76835" lon="2.41927">
        <ele>33</ele>
        <time>2015-11-02T21:07:14.000Z</time>
      </trkpt>
      <trkpt lat="48.76825" lon="2.41895">
        <ele>33.400001525879</ele>
        <time>2015-11-02T21:07:17.000Z</time>
      </trkpt>
      <trkpt lat="48.76816" lon="2.41862">
        <ele>33.599998474121</ele>
        <time>2015-11-02T21:07:20.000Z</time>
      </trkpt>
      <trkpt lat="48.76805" lon="2.41829">
        <ele>34</ele>
        <time>2015-11-02T21:07:23.000Z</time>
      </trkpt>
      <trkpt lat="48.76796" lon="2.41795">
        <ele>34</ele>
        <time>2015-11-02T21:07:26.000Z</time>
      </trkpt>
      <trkpt lat="48.76787" lon="2.4176">
        <ele>34</ele>
        <time>2015-11-02T21:07:29.000Z</time>
      </trkpt>
      <trkpt lat="48.76778" lon="2.41727">
        <ele>34.200000762939</ele>
        <time>2015-11-02T21:07:32.000Z</time>
      </trkpt>
      <trkpt lat="48.76768" lon="2.41695">
        <ele>34.599998474121</ele>
        <time>2015-11-02T21:07:35.000Z</time>
      </trkpt>
      <trkpt lat="48.76758" lon="2.41664">
        <ele>35</ele>
        <time>2015-11-02T21:07:38.000Z</time>
      </trkpt>
      <trkpt lat="48.7675" lon="2.41634">
        <ele>34.799999237061</ele>
        <time>2015-11-02T21:07:41.000Z</time>
      </trkpt>
      <trkpt lat="48.76741" lon="2.41605">
        <ele>34.599998474121</ele>
        <time>2015-11-02T21:07:44.000Z</time>
      </trkpt>
      <trkpt lat="48.76733" lon="2.41579">
        <ele>34.400001525879</ele>
        <time>2015-11-02T21:07:47.000Z</time>
      </trkpt>
      <trkpt lat="48.76725" lon="2.41553">
        <ele>34.799999237061</ele>
        <time>2015-11-02T21:07:50.000Z</time>
      </trkpt>
      <trkpt lat="48.76718" lon="2.41531">
        <ele>35.200000762939</ele>
        <time>2015-11-02T21:07:53.000Z</time>
      </trkpt>
      <trkpt lat="48.76711" lon="2.41501">
        <ele>35.400001525879</ele>
        <time>2015-11-02T21:07:57.000Z</time>
      </trkpt>
      <trkpt lat="48.76709" lon="2.41494">
        <ele>35.400001525879</ele>
        <time>2015-11-02T21:07:58.000Z</time>
      </trkpt>
      <trkpt lat="48.767" lon="2.4147">
        <ele>35</ele>
        <time>2015-11-02T21:08:02.000Z</time>
      </trkpt>
      <trkpt lat="48.76691" lon="2.41445">
        <ele>34.599998474121</ele>
        <time>2015-11-02T21:08:06.000Z</time>
      </trkpt>
      <trkpt lat="48.76684" lon="2.41417">
        <ele>34</ele>
        <time>2015-11-02T21:08:10.000Z</time>
      </trkpt>
      <trkpt lat="48.76677" lon="2.4139">
        <ele>34</ele>
        <time>2015-11-02T21:08:14.000Z</time>
      </trkpt>
      <trkpt lat="48.7667" lon="2.41361">
        <ele>34.200000762939</ele>
        <time>2015-11-02T21:08:18.000Z</time>
      </trkpt>
      <trkpt lat="48.76662" lon="2.41329">
        <ele>34.400001525879</ele>
        <time>2015-11-02T21:08:22.000Z</time>
      </trkpt>
      <trkpt lat="48.76653" lon="2.41298">
        <ele>33.799999237061</ele>
        <time>2015-11-02T21:08:26.000Z</time>
      </trkpt>
      <trkpt lat="48.76645" lon="2.41268">
        <ele>33.799999237061</ele>
        <time>2015-11-02T21:08:30.000Z</time>
      </trkpt>
      <trkpt lat="48.76637" lon="2.41238">
        <ele>33.599998474121</ele>
        <time>2015-11-02T21:08:34.000Z</time>
      </trkpt>
      <trkpt lat="48.76629" lon="2.41209">
        <ele>33.200000762939</ele>
        <time>2015-11-02T21:08:38.000Z</time>
      </trkpt>
      <trkpt lat="48.76628" lon="2.41202">
        <ele>33.200000762939</ele>
        <time>2015-11-02T21:08:39.000Z</time>
      </trkpt>
      <trkpt lat="48.7662" lon="2.41172">
        <ele>32.599998474121</ele>
        <time>2015-11-02T21:08:43.000Z</time>
      </trkpt>
      <trkpt lat="48.76613" lon="2.41142">
        <ele>33.799999237061</ele>
        <time>2015-11-02T21:08:47.000Z</time>
      </trkpt>
      <trkpt lat="48.76605" lon="2.41111">
        <ele>36</ele>
        <time>2015-11-02T21:08:51.000Z</time>
      </trkpt>
      <trkpt lat="48.76597" lon="2.41079">
        <ele>38</ele>
        <time>2015-11-02T21:08:55.000Z</time>
      </trkpt>
      <trkpt lat="48.76589" lon="2.41049">
        <ele>39.200000762939</ele>
        <time>2015-11-02T21:08:59.000Z</time>
      </trkpt>
      <trkpt lat="48.76581" lon="2.41022">
        <ele>40.200000762939</ele>
        <time>2015-11-02T21:09:03.000Z</time>
      </trkpt>
      <trkpt lat="48.76573" lon="2.40994">
        <ele>41.200000762939</ele>
        <time>2015-11-02T21:09:07.000Z</time>
      </trkpt>
      <trkpt lat="48.7657" lon="2.40987">
        <ele>41.400001525879</ele>
        <time>2015-11-02T21:09:08.000Z</time>
      </trkpt>
      <trkpt lat="48.76566" lon="2.40965">
        <ele>41.400001525879</ele>
        <time>2015-11-02T21:09:12.000Z</time>
      </trkpt>
      <trkpt lat="48.7657" lon="2.40966">
        <ele>41.599998474121</ele>
        <time>2015-11-02T21:09:19.000Z</time>
      </trkpt>
      <trkpt lat="48.76573" lon="2.40978">
        <ele>41.599998474121</ele>
        <time>2015-11-02T21:10:22.000Z</time>
      </trkpt>
      <trkpt lat="48.76569" lon="2.40966">
        <ele>41.599998474121</ele>
        <time>2015-11-02T21:10:27.000Z</time>
      </trkpt>
      <trkpt lat="48.76568" lon="2.40956">
        <ele>41.400001525879</ele>
        <time>2015-11-02T21:10:32.000Z</time>
      </trkpt>
      <trkpt lat="48.76567" lon="2.40952">
        <ele>41.400001525879</ele>
        <time>2015-11-02T21:10:34.000Z</time>
      </trkpt>
      <trkpt lat="48.76567" lon="2.4095">
        <ele>41.400001525879</ele>
        <time>2015-11-02T21:10:36.000Z</time>
      </trkpt>
      <trkpt lat="48.76572" lon="2.40963">
        <ele>41.599998474121</ele>
        <time>2015-11-02T21:11:39.000Z</time>
      </trkpt>
      <trkpt lat="48.76579" lon="2.40969">
        <ele>41.599998474121</ele>
        <time>2015-11-02T21:11:48.000Z</time>
      </trkpt>
      <trkpt lat="48.76597" lon="2.40962">
        <ele>41.599998474121</ele>
        <time>2015-11-02T21:11:55.000Z</time>
      </trkpt>
      <trkpt lat="48.76613" lon="2.40949">
        <ele>41.599998474121</ele>
        <time>2015-11-02T21:12:00.000Z</time>
      </trkpt>
      <trkpt lat="48.76631" lon="2.40936">
        <ele>41.599998474121</ele>
        <time>2015-11-02T21:12:05.000Z</time>
      </trkpt>
      <trkpt lat="48.76648" lon="2.40922">
        <ele>41.599998474121</ele>
        <time>2015-11-02T21:12:12.000Z</time>
      </trkpt>
      <trkpt lat="48.76666" lon="2.40917">
        <ele>41.799999237061</ele>
        <time>2015-11-02T21:12:20.000Z</time>
      </trkpt>
      <trkpt lat="48.76669" lon="2.40918">
        <ele>41.799999237061</ele>
        <time>2015-11-02T21:12:22.000Z</time>
      </trkpt>
      <trkpt lat="48.76671" lon="2.40919">
        <ele>41.799999237061</ele>
        <time>2015-11-02T21:12:24.000Z</time>
      </trkpt>
      <trkpt lat="48.76662" lon="2.40921">
        <ele>41.799999237061</ele>
        <time>2015-11-02T21:12:59.000Z</time>
      </trkpt>
      <trkpt lat="48.76663" lon="2.40942">
        <ele>42</ele>
        <time>2015-11-02T21:13:08.000Z</time>
      </trkpt>
      <trkpt lat="48.76667" lon="2.40951">
        <ele>42.200000762939</ele>
        <time>2015-11-02T21:13:11.000Z</time>
      </trkpt>
      <trkpt lat="48.7667" lon="2.40981">
        <ele>42.599998474121</ele>
        <time>2015-11-02T21:13:16.000Z</time>
      </trkpt>
      <trkpt lat="48.76679" lon="2.4101">
        <ele>42.400001525879</ele>
        <time>2015-11-02T21:13:21.000Z</time>
      </trkpt>
      <trkpt lat="48.76685" lon="2.4104">
        <ele>41.400001525879</ele>
        <time>2015-11-02T21:13:26.000Z</time>
      </trkpt>
      <trkpt lat="48.76688" lon="2.41044">
        <ele>41.400001525879</ele>
        <time>2015-11-02T21:13:27.000Z</time>
      </trkpt>
      <trkpt lat="48.76707" lon="2.41051">
        <ele>40.400001525879</ele>
        <time>2015-11-02T21:13:31.000Z</time>
      </trkpt>
      <trkpt lat="48.76725" lon="2.41048">
        <ele>39.799999237061</ele>
        <time>2015-11-02T21:13:36.000Z</time>
      </trkpt>
      <trkpt lat="48.76747" lon="2.41039">
        <ele>39.400001525879</ele>
        <time>2015-11-02T21:13:41.000Z</time>
      </trkpt>
      <trkpt lat="48.76768" lon="2.41033">
        <ele>38.799999237061</ele>
        <time>2015-11-02T21:13:45.000Z</time>
      </trkpt>
      <trkpt lat="48.76791" lon="2.41023">
        <ele>38.799999237061</ele>
        <time>2015-11-02T21:13:49.000Z</time>
      </trkpt>
      <trkpt lat="48.76801" lon="2.41016">
        <ele>38.799999237061</ele>
        <time>2015-11-02T21:13:51.000Z</time>
      </trkpt>
      <trkpt lat="48.76818" lon="2.40995">
        <ele>38.400001525879</ele>
        <time>2015-11-02T21:13:55.000Z</time>
      </trkpt>
      <trkpt lat="48.76822" lon="2.40989">
        <ele>38.200000762939</ele>
        <time>2015-11-02T21:13:56.000Z</time>
      </trkpt>
      <trkpt lat="48.76828" lon="2.40976">
        <ele>38</ele>
        <time>2015-11-02T21:13:58.000Z</time>
      </trkpt>
      <trkpt lat="48.76837" lon="2.40949">
        <ele>38</ele>
        <time>2015-11-02T21:14:02.000Z</time>
      </trkpt>
      <trkpt lat="48.76839" lon="2.40936">
        <ele>38.200000762939</ele>
        <time>2015-11-02T21:14:04.000Z</time>
      </trkpt>
      <trkpt lat="48.76841" lon="2.40924">
        <ele>38.200000762939</ele>
        <time>2015-11-02T21:14:06.000Z</time>
      </trkpt>
      <trkpt lat="48.76843" lon="2.40897">
        <ele>38.799999237061</ele>
        <time>2015-11-02T21:14:11.000Z</time>
      </trkpt>
      <trkpt lat="48.76847" lon="2.40873">
        <ele>39.599998474121</ele>
        <time>2015-11-02T21:14:19.000Z</time>
      </trkpt>
      <trkpt lat="48.76849" lon="2.40872">
        <ele>39.599998474121</ele>
        <time>2015-11-02T21:14:21.000Z</time>
      </trkpt>
      <trkpt lat="48.76857" lon="2.40887">
        <ele>39</ele>
        <time>2015-11-02T21:14:29.000Z</time>
      </trkpt>
      <trkpt lat="48.76872" lon="2.40889">
        <ele>38.799999237061</ele>
        <time>2015-11-02T21:14:34.000Z</time>
      </trkpt>
      <trkpt lat="48.7689" lon="2.40888">
        <ele>38.599998474121</ele>
        <time>2015-11-02T21:14:39.000Z</time>
      </trkpt>
      <trkpt lat="48.76909" lon="2.40887">
        <ele>38.400001525879</ele>
        <time>2015-11-02T21:14:44.000Z</time>
      </trkpt>
      <trkpt lat="48.7693" lon="2.40885">
        <ele>37.599998474121</ele>
        <time>2015-11-02T21:14:49.000Z</time>
      </trkpt>
      <trkpt lat="48.76951" lon="2.40882">
        <ele>37.400001525879</ele>
        <time>2015-11-02T21:14:54.000Z</time>
      </trkpt>
      <trkpt lat="48.7697" lon="2.40892">
        <ele>37.200000762939</ele>
        <time>2015-11-02T21:14:57.000Z</time>
      </trkpt>
      <trkpt lat="48.7699" lon="2.40897">
        <ele>37.200000762939</ele>
        <time>2015-11-02T21:15:01.000Z</time>
      </trkpt>
      <trkpt lat="48.77011" lon="2.409">
        <ele>37.200000762939</ele>
        <time>2015-11-02T21:15:05.000Z</time>
      </trkpt>
      <trkpt lat="48.77031" lon="2.40902">
        <ele>37</ele>
        <time>2015-11-02T21:15:09.000Z</time>
      </trkpt>
      <trkpt lat="48.77049" lon="2.40904">
        <ele>37</ele>
        <time>2015-11-02T21:15:13.000Z</time>
      </trkpt>
      <trkpt lat="48.7707" lon="2.40906">
        <ele>37</ele>
        <time>2015-11-02T21:15:18.000Z</time>
      </trkpt>
      <trkpt lat="48.77083" lon="2.40905">
        <ele>37</ele>
        <time>2015-11-02T21:15:21.000Z</time>
      </trkpt>
      <trkpt lat="48.77101" lon="2.40906">
        <ele>37.200000762939</ele>
        <time>2015-11-02T21:15:25.000Z</time>
      </trkpt>
      <trkpt lat="48.77123" lon="2.4091">
        <ele>37.200000762939</ele>
        <time>2015-11-02T21:15:29.000Z</time>
      </trkpt>
      <trkpt lat="48.77141" lon="2.40911">
        <ele>37</ele>
        <time>2015-11-02T21:15:33.000Z</time>
      </trkpt>
      <trkpt lat="48.77161" lon="2.40912">
        <ele>37</ele>
        <time>2015-11-02T21:15:38.000Z</time>
      </trkpt>
      <trkpt lat="48.77181" lon="2.40914">
        <ele>37</ele>
        <time>2015-11-02T21:15:42.000Z</time>
      </trkpt>
      <trkpt lat="48.77202" lon="2.40918">
        <ele>37</ele>
        <time>2015-11-02T21:15:46.000Z</time>
      </trkpt>
      <trkpt lat="48.77217" lon="2.4092">
        <ele>37</ele>
        <time>2015-11-02T21:15:49.000Z</time>
      </trkpt>
      <trkpt lat="48.77235" lon="2.40919">
        <ele>37</ele>
        <time>2015-11-02T21:15:53.000Z</time>
      </trkpt>
      <trkpt lat="48.77258" lon="2.4092">
        <ele>37</ele>
        <time>2015-11-02T21:15:58.000Z</time>
      </trkpt>
      <trkpt lat="48.77276" lon="2.40924">
        <ele>37</ele>
        <time>2015-11-02T21:16:01.000Z</time>
      </trkpt>
      <trkpt lat="48.77294" lon="2.40929">
        <ele>37.200000762939</ele>
        <time>2015-11-02T21:16:04.000Z</time>
      </trkpt>
      <trkpt lat="48.77306" lon="2.40931">
        <ele>37.400001525879</ele>
        <time>2015-11-02T21:16:06.000Z</time>
      </trkpt>
      <trkpt lat="48.77324" lon="2.40934">
        <ele>37.599998474121</ele>
        <time>2015-11-02T21:16:11.000Z</time>
      </trkpt>
      <trkpt lat="48.77337" lon="2.4094">
        <ele>37.799999237061</ele>
        <time>2015-11-02T21:16:15.000Z</time>
      </trkpt>
      <trkpt lat="48.77359" lon="2.40942">
        <ele>38</ele>
        <time>2015-11-02T21:16:21.000Z</time>
      </trkpt>
      <trkpt lat="48.77381" lon="2.40939">
        <ele>37.599998474121</ele>
        <time>2015-11-02T21:16:26.000Z</time>
      </trkpt>
      <trkpt lat="48.77401" lon="2.40937">
        <ele>37.400001525879</ele>
        <time>2015-11-02T21:16:30.000Z</time>
      </trkpt>
      <trkpt lat="48.77422" lon="2.40932">
        <ele>37.200000762939</ele>
        <time>2015-11-02T21:16:34.000Z</time>
      </trkpt>
      <trkpt lat="48.7744" lon="2.40926">
        <ele>37</ele>
        <time>2015-11-02T21:16:37.000Z</time>
      </trkpt>
      <trkpt lat="48.77461" lon="2.40923">
        <ele>36.799999237061</ele>
        <time>2015-11-02T21:16:41.000Z</time>
      </trkpt>
      <trkpt lat="48.77466" lon="2.40922">
        <ele>36.599998474121</ele>
        <time>2015-11-02T21:16:42.000Z</time>
      </trkpt>
      <trkpt lat="48.77488" lon="2.4092">
        <ele>36.400001525879</ele>
        <time>2015-11-02T21:16:46.000Z</time>
      </trkpt>
      <trkpt lat="48.7751" lon="2.40915">
        <ele>36.200000762939</ele>
        <time>2015-11-02T21:16:50.000Z</time>
      </trkpt>
      <trkpt lat="48.77516" lon="2.40914">
        <ele>36</ele>
        <time>2015-11-02T21:16:51.000Z</time>
      </trkpt>
      <trkpt lat="48.7754" lon="2.40912">
        <ele>35.799999237061</ele>
        <time>2015-11-02T21:16:55.000Z</time>
      </trkpt>
      <trkpt lat="48.77559" lon="2.40911">
        <ele>35.599998474121</ele>
        <time>2015-11-02T21:16:58.000Z</time>
      </trkpt>
      <trkpt lat="48.77577" lon="2.40909">
        <ele>35.200000762939</ele>
        <time>2015-11-02T21:17:01.000Z</time>
      </trkpt>
      <trkpt lat="48.77597" lon="2.40904">
        <ele>35</ele>
        <time>2015-11-02T21:17:04.000Z</time>
      </trkpt>
      <trkpt lat="48.77617" lon="2.40896">
        <ele>34.599998474121</ele>
        <time>2015-11-02T21:17:07.000Z</time>
      </trkpt>
      <trkpt lat="48.77625" lon="2.40894">
        <ele>34.599998474121</ele>
        <time>2015-11-02T21:17:08.000Z</time>
      </trkpt>
      <trkpt lat="48.77648" lon="2.40887">
        <ele>34.200000762939</ele>
        <time>2015-11-02T21:17:11.000Z</time>
      </trkpt>
      <trkpt lat="48.77673" lon="2.40878">
        <ele>33.799999237061</ele>
        <time>2015-11-02T21:17:14.000Z</time>
      </trkpt>
      <trkpt lat="48.77698" lon="2.4087">
        <ele>33.400001525879</ele>
        <time>2015-11-02T21:17:17.000Z</time>
      </trkpt>
      <trkpt lat="48.77716" lon="2.40868">
        <ele>33</ele>
        <time>2015-11-02T21:17:19.000Z</time>
      </trkpt>
      <trkpt lat="48.77735" lon="2.40867">
        <ele>33.200000762939</ele>
        <time>2015-11-02T21:17:21.000Z</time>
      </trkpt>
      <trkpt lat="48.77758" lon="2.4086">
        <ele>33.599998474121</ele>
        <time>2015-11-02T21:17:24.000Z</time>
      </trkpt>
      <trkpt lat="48.7778" lon="2.40856">
        <ele>33.799999237061</ele>
        <time>2015-11-02T21:17:27.000Z</time>
      </trkpt>
      <trkpt lat="48.77793" lon="2.40854">
        <ele>33.799999237061</ele>
        <time>2015-11-02T21:17:29.000Z</time>
      </trkpt>
      <trkpt lat="48.77811" lon="2.40851">
        <ele>33.599998474121</ele>
        <time>2015-11-02T21:17:32.000Z</time>
      </trkpt>
      <trkpt lat="48.77833" lon="2.40847">
        <ele>33.200000762939</ele>
        <time>2015-11-02T21:17:36.000Z</time>
      </trkpt>
      <trkpt lat="48.77843" lon="2.40846">
        <ele>33.200000762939</ele>
        <time>2015-11-02T21:17:38.000Z</time>
      </trkpt>
      <trkpt lat="48.77861" lon="2.40841">
        <ele>33</ele>
        <time>2015-11-02T21:17:42.000Z</time>
      </trkpt>
      <trkpt lat="48.77865" lon="2.40839">
        <ele>33</ele>
        <time>2015-11-02T21:17:43.000Z</time>
      </trkpt>
      <trkpt lat="48.77886" lon="2.40833">
        <ele>32.599998474121</ele>
        <time>2015-11-02T21:17:48.000Z</time>
      </trkpt>
      <trkpt lat="48.779" lon="2.40828">
        <ele>32.400001525879</ele>
        <time>2015-11-02T21:17:51.000Z</time>
      </trkpt>
      <trkpt lat="48.77918" lon="2.4082">
        <ele>32.200000762939</ele>
        <time>2015-11-02T21:17:55.000Z</time>
      </trkpt>
      <trkpt lat="48.77939" lon="2.40814">
        <ele>32.200000762939</ele>
        <time>2015-11-02T21:17:59.000Z</time>
      </trkpt>
      <trkpt lat="48.77962" lon="2.40807">
        <ele>32.599998474121</ele>
        <time>2015-11-02T21:18:03.000Z</time>
      </trkpt>
      <trkpt lat="48.77984" lon="2.40801">
        <ele>33</ele>
        <time>2015-11-02T21:18:07.000Z</time>
      </trkpt>
      <trkpt lat="48.78002" lon="2.40798">
        <ele>33.400001525879</ele>
        <time>2015-11-02T21:18:10.000Z</time>
      </trkpt>
      <trkpt lat="48.78021" lon="2.40794">
        <ele>34</ele>
        <time>2015-11-02T21:18:13.000Z</time>
      </trkpt>
      <trkpt lat="48.78041" lon="2.40789">
        <ele>34.200000762939</ele>
        <time>2015-11-02T21:18:16.000Z</time>
      </trkpt>
      <trkpt lat="48.78061" lon="2.40785">
        <ele>34.599998474121</ele>
        <time>2015-11-02T21:18:19.000Z</time>
      </trkpt>
      <trkpt lat="48.78082" lon="2.40783">
        <ele>34.200000762939</ele>
        <time>2015-11-02T21:18:22.000Z</time>
      </trkpt>
      <trkpt lat="48.78103" lon="2.40778">
        <ele>34</ele>
        <time>2015-11-02T21:18:25.000Z</time>
      </trkpt>
      <trkpt lat="48.78122" lon="2.40773">
        <ele>33.799999237061</ele>
        <time>2015-11-02T21:18:28.000Z</time>
      </trkpt>
      <trkpt lat="48.78142" lon="2.40767">
        <ele>33.799999237061</ele>
        <time>2015-11-02T21:18:31.000Z</time>
      </trkpt>
      <trkpt lat="48.78162" lon="2.40763">
        <ele>33.799999237061</ele>
        <time>2015-11-02T21:18:34.000Z</time>
      </trkpt>
      <trkpt lat="48.78168" lon="2.40762">
        <ele>33.799999237061</ele>
        <time>2015-11-02T21:18:35.000Z</time>
      </trkpt>
      <trkpt lat="48.78187" lon="2.40757">
        <ele>34</ele>
        <time>2015-11-02T21:18:38.000Z</time>
      </trkpt>
      <trkpt lat="48.78205" lon="2.40751">
        <ele>34</ele>
        <time>2015-11-02T21:18:41.000Z</time>
      </trkpt>
      <trkpt lat="48.78224" lon="2.40746">
        <ele>34</ele>
        <time>2015-11-02T21:18:44.000Z</time>
      </trkpt>
      <trkpt lat="48.78242" lon="2.40738">
        <ele>34</ele>
        <time>2015-11-02T21:18:47.000Z</time>
      </trkpt>
      <trkpt lat="48.78265" lon="2.40731">
        <ele>33.799999237061</ele>
        <time>2015-11-02T21:18:51.000Z</time>
      </trkpt>
      <trkpt lat="48.78286" lon="2.40728">
        <ele>33.400001525879</ele>
        <time>2015-11-02T21:18:55.000Z</time>
      </trkpt>
      <trkpt lat="48.78299" lon="2.40727">
        <ele>33</ele>
        <time>2015-11-02T21:18:58.000Z</time>
      </trkpt>
      <trkpt lat="48.78315" lon="2.40731">
        <ele>32.799999237061</ele>
        <time>2015-11-02T21:19:02.000Z</time>
      </trkpt>
      <trkpt lat="48.78319" lon="2.40734">
        <ele>32.599998474121</ele>
        <time>2015-11-02T21:19:03.000Z</time>
      </trkpt>
      <trkpt lat="48.78337" lon="2.40742">
        <ele>32.400001525879</ele>
        <time>2015-11-02T21:19:08.000Z</time>
      </trkpt>
      <trkpt lat="48.78353" lon="2.40741">
        <ele>32</ele>
        <time>2015-11-02T21:19:13.000Z</time>
      </trkpt>
      <trkpt lat="48.7836" lon="2.40746">
        <ele>32</ele>
        <time>2015-11-02T21:19:17.000Z</time>
      </trkpt>
      <trkpt lat="48.78362" lon="2.4076">
        <ele>32</ele>
        <time>2015-11-02T21:20:05.000Z</time>
      </trkpt>
      <trkpt lat="48.78382" lon="2.40767">
        <ele>32</ele>
        <time>2015-11-02T21:20:12.000Z</time>
      </trkpt>
      <trkpt lat="48.78402" lon="2.40773">
        <ele>32</ele>
        <time>2015-11-02T21:20:17.000Z</time>
      </trkpt>
      <trkpt lat="48.78424" lon="2.4078">
        <ele>32</ele>
        <time>2015-11-02T21:20:22.000Z</time>
      </trkpt>
      <trkpt lat="48.78445" lon="2.40788">
        <ele>32</ele>
        <time>2015-11-02T21:20:27.000Z</time>
      </trkpt>
      <trkpt lat="48.78463" lon="2.40791">
        <ele>32</ele>
        <time>2015-11-02T21:20:31.000Z</time>
      </trkpt>
      <trkpt lat="48.78482" lon="2.40787">
        <ele>32</ele>
        <time>2015-11-02T21:20:35.000Z</time>
      </trkpt>
      <trkpt lat="48.78504" lon="2.40785">
        <ele>32.400001525879</ele>
        <time>2015-11-02T21:20:39.000Z</time>
      </trkpt>
      <trkpt lat="48.78527" lon="2.40777">
        <ele>32.599998474121</ele>
        <time>2015-11-02T21:20:43.000Z</time>
      </trkpt>
      <trkpt lat="48.78544" lon="2.40769">
        <ele>32.799999237061</ele>
        <time>2015-11-02T21:20:46.000Z</time>
      </trkpt>
      <trkpt lat="48.78562" lon="2.4076">
        <ele>32.799999237061</ele>
        <time>2015-11-02T21:20:49.000Z</time>
      </trkpt>
      <trkpt lat="48.7858" lon="2.4075">
        <ele>33</ele>
        <time>2015-11-02T21:20:52.000Z</time>
      </trkpt>
      <trkpt lat="48.78599" lon="2.40739">
        <ele>33</ele>
        <time>2015-11-02T21:20:55.000Z</time>
      </trkpt>
      <trkpt lat="48.78619" lon="2.40729">
        <ele>33</ele>
        <time>2015-11-02T21:20:58.000Z</time>
      </trkpt>
      <trkpt lat="48.7864" lon="2.40718">
        <ele>33</ele>
        <time>2015-11-02T21:21:01.000Z</time>
      </trkpt>
      <trkpt lat="48.78659" lon="2.40708">
        <ele>32.799999237061</ele>
        <time>2015-11-02T21:21:04.000Z</time>
      </trkpt>
      <trkpt lat="48.78678" lon="2.40699">
        <ele>32.799999237061</ele>
        <time>2015-11-02T21:21:07.000Z</time>
      </trkpt>
      <trkpt lat="48.78698" lon="2.40689">
        <ele>32.799999237061</ele>
        <time>2015-11-02T21:21:10.000Z</time>
      </trkpt>
      <trkpt lat="48.78716" lon="2.4068">
        <ele>32.799999237061</ele>
        <time>2015-11-02T21:21:13.000Z</time>
      </trkpt>
      <trkpt lat="48.78729" lon="2.40676">
        <ele>32.799999237061</ele>
        <time>2015-11-02T21:21:16.000Z</time>
      </trkpt>
      <trkpt lat="48.78737" lon="2.40675">
        <ele>32.799999237061</ele>
        <time>2015-11-02T21:21:18.000Z</time>
      </trkpt>
      <trkpt lat="48.78751" lon="2.40671">
        <ele>33</ele>
        <time>2015-11-02T21:21:22.000Z</time>
      </trkpt>
      <trkpt lat="48.78769" lon="2.40663">
        <ele>33</ele>
        <time>2015-11-02T21:21:26.000Z</time>
      </trkpt>
      <trkpt lat="48.7879" lon="2.40654">
        <ele>33</ele>
        <time>2015-11-02T21:21:30.000Z</time>
      </trkpt>
      <trkpt lat="48.78807" lon="2.40645">
        <ele>33</ele>
        <time>2015-11-02T21:21:33.000Z</time>
      </trkpt>
      <trkpt lat="48.78823" lon="2.40638">
        <ele>33</ele>
        <time>2015-11-02T21:21:36.000Z</time>
      </trkpt>
      <trkpt lat="48.78844" lon="2.40627">
        <ele>33.200000762939</ele>
        <time>2015-11-02T21:21:40.000Z</time>
      </trkpt>
      <trkpt lat="48.7885" lon="2.40624">
        <ele>33.400001525879</ele>
        <time>2015-11-02T21:21:41.000Z</time>
      </trkpt>
      <trkpt lat="48.78869" lon="2.40614">
        <ele>33.200000762939</ele>
        <time>2015-11-02T21:21:44.000Z</time>
      </trkpt>
      <trkpt lat="48.78888" lon="2.40604">
        <ele>32.799999237061</ele>
        <time>2015-11-02T21:21:47.000Z</time>
      </trkpt>
      <trkpt lat="48.78901" lon="2.40595">
        <ele>32.599998474121</ele>
        <time>2015-11-02T21:21:49.000Z</time>
      </trkpt>
      <trkpt lat="48.78922" lon="2.40579">
        <ele>32.200000762939</ele>
        <time>2015-11-02T21:21:52.000Z</time>
      </trkpt>
      <trkpt lat="48.78941" lon="2.40559">
        <ele>31.799999237061</ele>
        <time>2015-11-02T21:21:55.000Z</time>
      </trkpt>
      <trkpt lat="48.7896" lon="2.4054">
        <ele>31.39999961853</ele>
        <time>2015-11-02T21:21:58.000Z</time>
      </trkpt>
      <trkpt lat="48.78978" lon="2.40521">
        <ele>31.39999961853</ele>
        <time>2015-11-02T21:22:01.000Z</time>
      </trkpt>
      <trkpt lat="48.78995" lon="2.40502">
        <ele>31.60000038147</ele>
        <time>2015-11-02T21:22:04.000Z</time>
      </trkpt>
      <trkpt lat="48.79013" lon="2.40487">
        <ele>31.799999237061</ele>
        <time>2015-11-02T21:22:07.000Z</time>
      </trkpt>
      <trkpt lat="48.79031" lon="2.40474">
        <ele>32.599998474121</ele>
        <time>2015-11-02T21:22:10.000Z</time>
      </trkpt>
      <trkpt lat="48.79049" lon="2.40461">
        <ele>33.200000762939</ele>
        <time>2015-11-02T21:22:13.000Z</time>
      </trkpt>
      <trkpt lat="48.79066" lon="2.40449">
        <ele>33.599998474121</ele>
        <time>2015-11-02T21:22:16.000Z</time>
      </trkpt>
      <trkpt lat="48.79083" lon="2.40438">
        <ele>33.799999237061</ele>
        <time>2015-11-02T21:22:19.000Z</time>
      </trkpt>
      <trkpt lat="48.79104" lon="2.40422">
        <ele>34</ele>
        <time>2015-11-02T21:22:23.000Z</time>
      </trkpt>
      <trkpt lat="48.79124" lon="2.40408">
        <ele>33.400001525879</ele>
        <time>2015-11-02T21:22:27.000Z</time>
      </trkpt>
      <trkpt lat="48.79141" lon="2.40398">
        <ele>33</ele>
        <time>2015-11-02T21:22:30.000Z</time>
      </trkpt>
      <trkpt lat="48.79159" lon="2.40386">
        <ele>32.400001525879</ele>
        <time>2015-11-02T21:22:33.000Z</time>
      </trkpt>
      <trkpt lat="48.79176" lon="2.40372">
        <ele>31.799999237061</ele>
        <time>2015-11-02T21:22:36.000Z</time>
      </trkpt>
      <trkpt lat="48.79193" lon="2.4036">
        <ele>31.39999961853</ele>
        <time>2015-11-02T21:22:39.000Z</time>
      </trkpt>
      <trkpt lat="48.79215" lon="2.40348">
        <ele>31.799999237061</ele>
        <time>2015-11-02T21:22:43.000Z</time>
      </trkpt>
      <trkpt lat="48.79238" lon="2.40334">
        <ele>32.799999237061</ele>
        <time>2015-11-02T21:22:47.000Z</time>
      </trkpt>
      <trkpt lat="48.79259" lon="2.40317">
        <ele>33.599998474121</ele>
        <time>2015-11-02T21:22:51.000Z</time>
      </trkpt>
      <trkpt lat="48.7928" lon="2.40303">
        <ele>34</ele>
        <time>2015-11-02T21:22:55.000Z</time>
      </trkpt>
      <trkpt lat="48.79302" lon="2.40289">
        <ele>33.599998474121</ele>
        <time>2015-11-02T21:22:59.000Z</time>
      </trkpt>
      <trkpt lat="48.79323" lon="2.40275">
        <ele>33.400001525879</ele>
        <time>2015-11-02T21:23:03.000Z</time>
      </trkpt>
      <trkpt lat="48.79344" lon="2.40261">
        <ele>33.200000762939</ele>
        <time>2015-11-02T21:23:07.000Z</time>
      </trkpt>
      <trkpt lat="48.79363" lon="2.40248">
        <ele>33</ele>
        <time>2015-11-02T21:23:11.000Z</time>
      </trkpt>
      <trkpt lat="48.7938" lon="2.40236">
        <ele>32.599998474121</ele>
        <time>2015-11-02T21:23:15.000Z</time>
      </trkpt>
      <trkpt lat="48.79397" lon="2.40225">
        <ele>32.200000762939</ele>
        <time>2015-11-02T21:23:19.000Z</time>
      </trkpt>
      <trkpt lat="48.79417" lon="2.40215">
        <ele>32.200000762939</ele>
        <time>2015-11-02T21:23:24.000Z</time>
      </trkpt>
      <trkpt lat="48.7943" lon="2.40221">
        <ele>32.200000762939</ele>
        <time>2015-11-02T21:23:28.000Z</time>
      </trkpt>
      <trkpt lat="48.79438" lon="2.40225">
        <ele>32.200000762939</ele>
        <time>2015-11-02T21:23:32.000Z</time>
      </trkpt>
      <trkpt lat="48.79436" lon="2.40225">
        <ele>32.200000762939</ele>
        <time>2015-11-02T21:23:40.000Z</time>
      </trkpt>
      <trkpt lat="48.79444" lon="2.4023">
        <ele>32.400001525879</ele>
        <time>2015-11-02T21:24:52.000Z</time>
      </trkpt>
      <trkpt lat="48.7945" lon="2.40204">
        <ele>32.799999237061</ele>
        <time>2015-11-02T21:25:07.000Z</time>
      </trkpt>
      <trkpt lat="48.79449" lon="2.40199">
        <ele>32.799999237061</ele>
        <time>2015-11-02T21:25:10.000Z</time>
      </trkpt>
      <trkpt lat="48.79444" lon="2.40198">
        <ele>32.799999237061</ele>
        <time>2015-11-02T21:25:23.000Z</time>
      </trkpt>
      <trkpt lat="48.7944" lon="2.40183">
        <ele>32.799999237061</ele>
        <time>2015-11-02T21:25:27.000Z</time>
      </trkpt>
      <trkpt lat="48.79431" lon="2.40155">
        <ele>33</ele>
        <time>2015-11-02T21:25:34.000Z</time>
      </trkpt>
      <trkpt lat="48.79424" lon="2.40129">
        <ele>33</ele>
        <time>2015-11-02T21:25:38.000Z</time>
      </trkpt>
      <trkpt lat="48.79415" lon="2.401">
        <ele>33.200000762939</ele>
        <time>2015-11-02T21:25:42.000Z</time>
      </trkpt>
      <trkpt lat="48.79408" lon="2.40071">
        <ele>33.400001525879</ele>
        <time>2015-11-02T21:25:46.000Z</time>
      </trkpt>
      <trkpt lat="48.79404" lon="2.40042">
        <ele>33.599998474121</ele>
        <time>2015-11-02T21:25:50.000Z</time>
      </trkpt>
      <trkpt lat="48.79399" lon="2.40013">
        <ele>33.799999237061</ele>
        <time>2015-11-02T21:25:54.000Z</time>
      </trkpt>
      <trkpt lat="48.79392" lon="2.39983">
        <ele>34</ele>
        <time>2015-11-02T21:25:58.000Z</time>
      </trkpt>
      <trkpt lat="48.79387" lon="2.3995">
        <ele>34.400001525879</ele>
        <time>2015-11-02T21:26:02.000Z</time>
      </trkpt>
      <trkpt lat="48.79384" lon="2.39934">
        <ele>34.400001525879</ele>
        <time>2015-11-02T21:26:04.000Z</time>
      </trkpt>
      <trkpt lat="48.79378" lon="2.39901">
        <ele>34.200000762939</ele>
        <time>2015-11-02T21:26:08.000Z</time>
      </trkpt>
      <trkpt lat="48.79374" lon="2.39875">
        <ele>34.200000762939</ele>
        <time>2015-11-02T21:26:11.000Z</time>
      </trkpt>
      <trkpt lat="48.7937" lon="2.39841">
        <ele>34.200000762939</ele>
        <time>2015-11-02T21:26:15.000Z</time>
      </trkpt>
      <trkpt lat="48.79367" lon="2.39824">
        <ele>34.200000762939</ele>
        <time>2015-11-02T21:26:17.000Z</time>
      </trkpt>
      <trkpt lat="48.79363" lon="2.39799">
        <ele>34.200000762939</ele>
        <time>2015-11-02T21:26:20.000Z</time>
      </trkpt>
      <trkpt lat="48.79361" lon="2.39782">
        <ele>34</ele>
        <time>2015-11-02T21:26:22.000Z</time>
      </trkpt>
      <trkpt lat="48.79353" lon="2.39749">
        <ele>34</ele>
        <time>2015-11-02T21:26:26.000Z</time>
      </trkpt>
      <trkpt lat="48.79346" lon="2.39715">
        <ele>33.599998474121</ele>
        <time>2015-11-02T21:26:30.000Z</time>
      </trkpt>
      <trkpt lat="48.79339" lon="2.39681">
        <ele>33.200000762939</ele>
        <time>2015-11-02T21:26:34.000Z</time>
      </trkpt>
      <trkpt lat="48.79334" lon="2.39648">
        <ele>33.599998474121</ele>
        <time>2015-11-02T21:26:38.000Z</time>
      </trkpt>
      <trkpt lat="48.79331" lon="2.39641">
        <ele>33.799999237061</ele>
        <time>2015-11-02T21:26:39.000Z</time>
      </trkpt>
      <trkpt lat="48.79323" lon="2.39614">
        <ele>34.200000762939</ele>
        <time>2015-11-02T21:26:43.000Z</time>
      </trkpt>
      <trkpt lat="48.7932" lon="2.39597">
        <ele>34.200000762939</ele>
        <time>2015-11-02T21:26:46.000Z</time>
      </trkpt>
      <trkpt lat="48.79318" lon="2.39578">
        <ele>34.400001525879</ele>
        <time>2015-11-02T21:26:50.000Z</time>
      </trkpt>
      <trkpt lat="48.79318" lon="2.39559">
        <ele>34.400001525879</ele>
        <time>2015-11-02T21:26:54.000Z</time>
      </trkpt>
      <trkpt lat="48.79319" lon="2.39556">
        <ele>34.400001525879</ele>
        <time>2015-11-02T21:26:55.000Z</time>
      </trkpt>
      <trkpt lat="48.79306" lon="2.39537">
        <ele>34.799999237061</ele>
        <time>2015-11-02T21:27:18.000Z</time>
      </trkpt>
      <trkpt lat="48.79303" lon="2.39505">
        <ele>35.799999237061</ele>
        <time>2015-11-02T21:27:23.000Z</time>
      </trkpt>
      <trkpt lat="48.79302" lon="2.39472">
        <ele>36</ele>
        <time>2015-11-02T21:27:27.000Z</time>
      </trkpt>
      <trkpt lat="48.79299" lon="2.39439">
        <ele>36</ele>
        <time>2015-11-02T21:27:31.000Z</time>
      </trkpt>
      <trkpt lat="48.79297" lon="2.39412">
        <ele>36.400001525879</ele>
        <time>2015-11-02T21:27:34.000Z</time>
      </trkpt>
      <trkpt lat="48.79296" lon="2.39384">
        <ele>36.599998474121</ele>
        <time>2015-11-02T21:27:37.000Z</time>
      </trkpt>
      <trkpt lat="48.79295" lon="2.3935">
        <ele>36.799999237061</ele>
        <time>2015-11-02T21:27:41.000Z</time>
      </trkpt>
      <trkpt lat="48.79294" lon="2.39319">
        <ele>37</ele>
        <time>2015-11-02T21:27:45.000Z</time>
      </trkpt>
      <trkpt lat="48.79292" lon="2.393">
        <ele>38</ele>
        <time>2015-11-02T21:27:48.000Z</time>
      </trkpt>
      <trkpt lat="48.7929" lon="2.39268">
        <ele>39.599998474121</ele>
        <time>2015-11-02T21:27:53.000Z</time>
      </trkpt>
      <trkpt lat="48.79289" lon="2.39261">
        <ele>40</ele>
        <time>2015-11-02T21:27:54.000Z</time>
      </trkpt>
      <trkpt lat="48.79288" lon="2.39234">
        <ele>41.200000762939</ele>
        <time>2015-11-02T21:27:58.000Z</time>
      </trkpt>
      <trkpt lat="48.79286" lon="2.39206">
        <ele>41.599998474121</ele>
        <time>2015-11-02T21:28:02.000Z</time>
      </trkpt>
      <trkpt lat="48.79285" lon="2.39178">
        <ele>41.799999237061</ele>
        <time>2015-11-02T21:28:06.000Z</time>
      </trkpt>
      <trkpt lat="48.79284" lon="2.3915">
        <ele>42.599998474121</ele>
        <time>2015-11-02T21:28:10.000Z</time>
      </trkpt>
      <trkpt lat="48.79282" lon="2.39119">
        <ele>43</ele>
        <time>2015-11-02T21:28:15.000Z</time>
      </trkpt>
      <trkpt lat="48.79281" lon="2.39105">
        <ele>43</ele>
        <time>2015-11-02T21:28:17.000Z</time>
      </trkpt>
      <trkpt lat="48.7928" lon="2.39076">
        <ele>43.200000762939</ele>
        <time>2015-11-02T21:28:21.000Z</time>
      </trkpt>
      <trkpt lat="48.79278" lon="2.39044">
        <ele>43.599998474121</ele>
        <time>2015-11-02T21:28:25.000Z</time>
      </trkpt>
      <trkpt lat="48.79276" lon="2.39018">
        <ele>43.799999237061</ele>
        <time>2015-11-02T21:28:28.000Z</time>
      </trkpt>
      <trkpt lat="48.79273" lon="2.38993">
        <ele>44.200000762939</ele>
        <time>2015-11-02T21:28:31.000Z</time>
      </trkpt>
      <trkpt lat="48.79272" lon="2.38957">
        <ele>45.400001525879</ele>
        <time>2015-11-02T21:28:35.000Z</time>
      </trkpt>
      <trkpt lat="48.79271" lon="2.38939">
        <ele>46.200000762939</ele>
        <time>2015-11-02T21:28:37.000Z</time>
      </trkpt>
      <trkpt lat="48.7927" lon="2.38922">
        <ele>46.799999237061</ele>
        <time>2015-11-02T21:28:39.000Z</time>
      </trkpt>
      <trkpt lat="48.79268" lon="2.38889">
        <ele>47.799999237061</ele>
        <time>2015-11-02T21:28:43.000Z</time>
      </trkpt>
      <trkpt lat="48.79266" lon="2.38861">
        <ele>48.400001525879</ele>
        <time>2015-11-02T21:28:47.000Z</time>
      </trkpt>
      <trkpt lat="48.79265" lon="2.38847">
        <ele>48.799999237061</ele>
        <time>2015-11-02T21:28:49.000Z</time>
      </trkpt>
      <trkpt lat="48.79264" lon="2.3882">
        <ele>49.400001525879</ele>
        <time>2015-11-02T21:28:53.000Z</time>
      </trkpt>
      <trkpt lat="48.79261" lon="2.38788">
        <ele>50.200000762939</ele>
        <time>2015-11-02T21:28:58.000Z</time>
      </trkpt>
      <trkpt lat="48.79258" lon="2.3876">
        <ele>50.799999237061</ele>
        <time>2015-11-02T21:29:03.000Z</time>
      </trkpt>
      <trkpt lat="48.79258" lon="2.38755">
        <ele>51</ele>
        <time>2015-11-02T21:29:04.000Z</time>
      </trkpt>
      <trkpt lat="48.79255" lon="2.38724">
        <ele>51.400001525879</ele>
        <time>2015-11-02T21:29:11.000Z</time>
      </trkpt>
      <trkpt lat="48.79256" lon="2.38708">
        <ele>51.599998474121</ele>
        <time>2015-11-02T21:29:15.000Z</time>
      </trkpt>
      <trkpt lat="48.7926" lon="2.38692">
        <ele>51.799999237061</ele>
        <time>2015-11-02T21:29:20.000Z</time>
      </trkpt>
      <trkpt lat="48.79264" lon="2.3868">
        <ele>52</ele>
        <time>2015-11-02T21:29:25.000Z</time>
      </trkpt>
      <trkpt lat="48.79266" lon="2.3867">
        <ele>52</ele>
        <time>2015-11-02T21:29:29.000Z</time>
      </trkpt>
      <trkpt lat="48.79269" lon="2.38664">
        <ele>52</ele>
        <time>2015-11-02T21:29:33.000Z</time>
      </trkpt>
      <trkpt lat="48.7927" lon="2.3866">
        <ele>52.200000762939</ele>
        <time>2015-11-02T21:29:35.000Z</time>
      </trkpt>
      <trkpt lat="48.79271" lon="2.38656">
        <ele>52.200000762939</ele>
        <time>2015-11-02T21:31:04.000Z</time>
      </trkpt>
      <trkpt lat="48.79287" lon="2.38639">
        <ele>53</ele>
        <time>2015-11-02T21:31:10.000Z</time>
      </trkpt>
      <trkpt lat="48.79304" lon="2.38625">
        <ele>53.799999237061</ele>
        <time>2015-11-02T21:31:14.000Z</time>
      </trkpt>
      <trkpt lat="48.79323" lon="2.38607">
        <ele>54.400001525879</ele>
        <time>2015-11-02T21:31:18.000Z</time>
      </trkpt>
      <trkpt lat="48.79343" lon="2.38588">
        <ele>54.799999237061</ele>
        <time>2015-11-02T21:31:22.000Z</time>
      </trkpt>
      <trkpt lat="48.79362" lon="2.38571">
        <ele>55.599998474121</ele>
        <time>2015-11-02T21:31:26.000Z</time>
      </trkpt>
      <trkpt lat="48.79381" lon="2.38554">
        <ele>56.599998474121</ele>
        <time>2015-11-02T21:31:30.000Z</time>
      </trkpt>
      <trkpt lat="48.794" lon="2.38536">
        <ele>57.400001525879</ele>
        <time>2015-11-02T21:31:34.000Z</time>
      </trkpt>
      <trkpt lat="48.7942" lon="2.38517">
        <ele>57.200000762939</ele>
        <time>2015-11-02T21:31:38.000Z</time>
      </trkpt>
      <trkpt lat="48.79438" lon="2.385">
        <ele>57</ele>
        <time>2015-11-02T21:31:42.000Z</time>
      </trkpt>
      <trkpt lat="48.79456" lon="2.38484">
        <ele>57</ele>
        <time>2015-11-02T21:31:46.000Z</time>
      </trkpt>
      <trkpt lat="48.79473" lon="2.38468">
        <ele>57</ele>
        <time>2015-11-02T21:31:50.000Z</time>
      </trkpt>
      <trkpt lat="48.7949" lon="2.38454">
        <ele>57.200000762939</ele>
        <time>2015-11-02T21:31:54.000Z</time>
      </trkpt>
      <trkpt lat="48.79508" lon="2.38441">
        <ele>57.599998474121</ele>
        <time>2015-11-02T21:31:58.000Z</time>
      </trkpt>
      <trkpt lat="48.79527" lon="2.38428">
        <ele>58</ele>
        <time>2015-11-02T21:32:02.000Z</time>
      </trkpt>
      <trkpt lat="48.79544" lon="2.38415">
        <ele>58.200000762939</ele>
        <time>2015-11-02T21:32:06.000Z</time>
      </trkpt>
      <trkpt lat="48.79559" lon="2.38399">
        <ele>58.599998474121</ele>
        <time>2015-11-02T21:32:10.000Z</time>
      </trkpt>
      <trkpt lat="48.79574" lon="2.38381">
        <ele>59</ele>
        <time>2015-11-02T21:32:14.000Z</time>
      </trkpt>
      <trkpt lat="48.79587" lon="2.38373">
        <ele>59</ele>
        <time>2015-11-02T21:32:17.000Z</time>
      </trkpt>
      <trkpt lat="48.79602" lon="2.3836">
        <ele>59</ele>
        <time>2015-11-02T21:32:21.000Z</time>
      </trkpt>
      <trkpt lat="48.79616" lon="2.3835">
        <ele>58.799999237061</ele>
        <time>2015-11-02T21:32:25.000Z</time>
      </trkpt>
      <trkpt lat="48.79632" lon="2.38335">
        <ele>58.599998474121</ele>
        <time>2015-11-02T21:32:29.000Z</time>
      </trkpt>
      <trkpt lat="48.79651" lon="2.3832">
        <ele>58.799999237061</ele>
        <time>2015-11-02T21:32:33.000Z</time>
      </trkpt>
      <trkpt lat="48.79671" lon="2.38303">
        <ele>58.599998474121</ele>
        <time>2015-11-02T21:32:37.000Z</time>
      </trkpt>
      <trkpt lat="48.79692" lon="2.38287">
        <ele>58.200000762939</ele>
        <time>2015-11-02T21:32:41.000Z</time>
      </trkpt>
      <trkpt lat="48.79708" lon="2.38274">
        <ele>58.799999237061</ele>
        <time>2015-11-02T21:32:44.000Z</time>
      </trkpt>
      <trkpt lat="48.79726" lon="2.38261">
        <ele>60.200000762939</ele>
        <time>2015-11-02T21:32:47.000Z</time>
      </trkpt>
      <trkpt lat="48.79744" lon="2.38247">
        <ele>62</ele>
        <time>2015-11-02T21:32:50.000Z</time>
      </trkpt>
      <trkpt lat="48.7976" lon="2.38232">
        <ele>63.200000762939</ele>
        <time>2015-11-02T21:32:53.000Z</time>
      </trkpt>
      <trkpt lat="48.79777" lon="2.38218">
        <ele>63.200000762939</ele>
        <time>2015-11-02T21:32:56.000Z</time>
      </trkpt>
      <trkpt lat="48.79788" lon="2.38209">
        <ele>62.599998474121</ele>
        <time>2015-11-02T21:32:58.000Z</time>
      </trkpt>
      <trkpt lat="48.79805" lon="2.38197">
        <ele>62</ele>
        <time>2015-11-02T21:33:01.000Z</time>
      </trkpt>
      <trkpt lat="48.79826" lon="2.38181">
        <ele>62</ele>
        <time>2015-11-02T21:33:05.000Z</time>
      </trkpt>
      <trkpt lat="48.79846" lon="2.38164">
        <ele>62</ele>
        <time>2015-11-02T21:33:09.000Z</time>
      </trkpt>
      <trkpt lat="48.79863" lon="2.38152">
        <ele>61.799999237061</ele>
        <time>2015-11-02T21:33:12.000Z</time>
      </trkpt>
      <trkpt lat="48.79879" lon="2.3814">
        <ele>61.400001525879</ele>
        <time>2015-11-02T21:33:15.000Z</time>
      </trkpt>
      <trkpt lat="48.79896" lon="2.38126">
        <ele>61</ele>
        <time>2015-11-02T21:33:18.000Z</time>
      </trkpt>
      <trkpt lat="48.79913" lon="2.38112">
        <ele>61</ele>
        <time>2015-11-02T21:33:21.000Z</time>
      </trkpt>
      <trkpt lat="48.7993" lon="2.38099">
        <ele>61</ele>
        <time>2015-11-02T21:33:24.000Z</time>
      </trkpt>
      <trkpt lat="48.79948" lon="2.38085">
        <ele>60.799999237061</ele>
        <time>2015-11-02T21:33:27.000Z</time>
      </trkpt>
      <trkpt lat="48.79966" lon="2.38072">
        <ele>60.799999237061</ele>
        <time>2015-11-02T21:33:30.000Z</time>
      </trkpt>
      <trkpt lat="48.79983" lon="2.3806">
        <ele>60.799999237061</ele>
        <time>2015-11-02T21:33:33.000Z</time>
      </trkpt>
      <trkpt lat="48.8" lon="2.38047">
        <ele>60.599998474121</ele>
        <time>2015-11-02T21:33:36.000Z</time>
      </trkpt>
      <trkpt lat="48.8001" lon="2.38037">
        <ele>60.599998474121</ele>
        <time>2015-11-02T21:33:38.000Z</time>
      </trkpt>
      <trkpt lat="48.80029" lon="2.38016">
        <ele>60.799999237061</ele>
        <time>2015-11-02T21:33:42.000Z</time>
      </trkpt>
      <trkpt lat="48.80048" lon="2.37997">
        <ele>60.599998474121</ele>
        <time>2015-11-02T21:33:46.000Z</time>
      </trkpt>
      <trkpt lat="48.80064" lon="2.37981">
        <ele>60.799999237061</ele>
        <time>2015-11-02T21:33:49.000Z</time>
      </trkpt>
      <trkpt lat="48.80079" lon="2.37965">
        <ele>60.599998474121</ele>
        <time>2015-11-02T21:33:52.000Z</time>
      </trkpt>
      <trkpt lat="48.80094" lon="2.37949">
        <ele>60.200000762939</ele>
        <time>2015-11-02T21:33:55.000Z</time>
      </trkpt>
      <trkpt lat="48.80111" lon="2.37935">
        <ele>60.200000762939</ele>
        <time>2015-11-02T21:33:58.000Z</time>
      </trkpt>
      <trkpt lat="48.80129" lon="2.3792">
        <ele>60.799999237061</ele>
        <time>2015-11-02T21:34:02.000Z</time>
      </trkpt>
      <trkpt lat="48.80146" lon="2.37913">
        <ele>61.599998474121</ele>
        <time>2015-11-02T21:34:08.000Z</time>
      </trkpt>
      <trkpt lat="48.80153" lon="2.37908">
        <ele>62</ele>
        <time>2015-11-02T21:34:10.000Z</time>
      </trkpt>
      <trkpt lat="48.80165" lon="2.379">
        <ele>62.799999237061</ele>
        <time>2015-11-02T21:34:13.000Z</time>
      </trkpt>
      <trkpt lat="48.80182" lon="2.37886">
        <ele>63.599998474121</ele>
        <time>2015-11-02T21:34:17.000Z</time>
      </trkpt>
      <trkpt lat="48.80201" lon="2.37872">
        <ele>64</ele>
        <time>2015-11-02T21:34:21.000Z</time>
      </trkpt>
      <trkpt lat="48.8022" lon="2.37856">
        <ele>64.400001525879</ele>
        <time>2015-11-02T21:34:25.000Z</time>
      </trkpt>
      <trkpt lat="48.80241" lon="2.3784">
        <ele>64.800003051758</ele>
        <time>2015-11-02T21:34:29.000Z</time>
      </trkpt>
      <trkpt lat="48.80259" lon="2.37825">
        <ele>64.800003051758</ele>
        <time>2015-11-02T21:34:32.000Z</time>
      </trkpt>
      <trkpt lat="48.80277" lon="2.37811">
        <ele>65</ele>
        <time>2015-11-02T21:34:35.000Z</time>
      </trkpt>
      <trkpt lat="48.80288" lon="2.37801">
        <ele>64.800003051758</ele>
        <time>2015-11-02T21:34:37.000Z</time>
      </trkpt>
      <trkpt lat="48.80307" lon="2.37786">
        <ele>64.599998474121</ele>
        <time>2015-11-02T21:34:40.000Z</time>
      </trkpt>
      <trkpt lat="48.80324" lon="2.37773">
        <ele>64</ele>
        <time>2015-11-02T21:34:43.000Z</time>
      </trkpt>
      <trkpt lat="48.80342" lon="2.37759">
        <ele>63.400001525879</ele>
        <time>2015-11-02T21:34:46.000Z</time>
      </trkpt>
      <trkpt lat="48.80359" lon="2.37747">
        <ele>62.799999237061</ele>
        <time>2015-11-02T21:34:49.000Z</time>
      </trkpt>
      <trkpt lat="48.80377" lon="2.37732">
        <ele>62.200000762939</ele>
        <time>2015-11-02T21:34:53.000Z</time>
      </trkpt>
      <trkpt lat="48.80394" lon="2.37717">
        <ele>61.599998474121</ele>
        <time>2015-11-02T21:34:57.000Z</time>
      </trkpt>
      <trkpt lat="48.80412" lon="2.37702">
        <ele>61.599998474121</ele>
        <time>2015-11-02T21:35:01.000Z</time>
      </trkpt>
      <trkpt lat="48.8043" lon="2.37687">
        <ele>61.799999237061</ele>
        <time>2015-11-02T21:35:05.000Z</time>
      </trkpt>
      <trkpt lat="48.80449" lon="2.37673">
        <ele>62.200000762939</ele>
        <time>2015-11-02T21:35:09.000Z</time>
      </trkpt>
      <trkpt lat="48.80467" lon="2.37657">
        <ele>62.400001525879</ele>
        <time>2015-11-02T21:35:13.000Z</time>
      </trkpt>
      <trkpt lat="48.80487" lon="2.37642">
        <ele>62.599998474121</ele>
        <time>2015-11-02T21:35:17.000Z</time>
      </trkpt>
      <trkpt lat="48.80507" lon="2.37627">
        <ele>63.400001525879</ele>
        <time>2015-11-02T21:35:21.000Z</time>
      </trkpt>
      <trkpt lat="48.80528" lon="2.37612">
        <ele>64.400001525879</ele>
        <time>2015-11-02T21:35:25.000Z</time>
      </trkpt>
      <trkpt lat="48.80544" lon="2.37599">
        <ele>64.800003051758</ele>
        <time>2015-11-02T21:35:28.000Z</time>
      </trkpt>
      <trkpt lat="48.80562" lon="2.37587">
        <ele>65.800003051758</ele>
        <time>2015-11-02T21:35:31.000Z</time>
      </trkpt>
      <trkpt lat="48.80579" lon="2.37576">
        <ele>66.400001525879</ele>
        <time>2015-11-02T21:35:34.000Z</time>
      </trkpt>
      <trkpt lat="48.80596" lon="2.37565">
        <ele>66.800003051758</ele>
        <time>2015-11-02T21:35:37.000Z</time>
      </trkpt>
      <trkpt lat="48.80617" lon="2.37552">
        <ele>66.400001525879</ele>
        <time>2015-11-02T21:35:41.000Z</time>
      </trkpt>
      <trkpt lat="48.80638" lon="2.37539">
        <ele>65.800003051758</ele>
        <time>2015-11-02T21:35:45.000Z</time>
      </trkpt>
      <trkpt lat="48.80643" lon="2.37535">
        <ele>65.599998474121</ele>
        <time>2015-11-02T21:35:46.000Z</time>
      </trkpt>
      <trkpt lat="48.80662" lon="2.37522">
        <ele>65.400001525879</ele>
        <time>2015-11-02T21:35:50.000Z</time>
      </trkpt>
      <trkpt lat="48.80672" lon="2.37517">
        <ele>65.199996948242</ele>
        <time>2015-11-02T21:35:52.000Z</time>
      </trkpt>
      <trkpt lat="48.80684" lon="2.37508">
        <ele>65</ele>
        <time>2015-11-02T21:35:55.000Z</time>
      </trkpt>
      <trkpt lat="48.80703" lon="2.37496">
        <ele>65.400001525879</ele>
        <time>2015-11-02T21:36:00.000Z</time>
      </trkpt>
      <trkpt lat="48.80722" lon="2.37482">
        <ele>66</ele>
        <time>2015-11-02T21:36:05.000Z</time>
      </trkpt>
      <trkpt lat="48.8074" lon="2.37465">
        <ele>66.400001525879</ele>
        <time>2015-11-02T21:36:10.000Z</time>
      </trkpt>
      <trkpt lat="48.80748" lon="2.37459">
        <ele>66.199996948242</ele>
        <time>2015-11-02T21:36:12.000Z</time>
      </trkpt>
      <trkpt lat="48.80765" lon="2.37446">
        <ele>65.599998474121</ele>
        <time>2015-11-02T21:36:16.000Z</time>
      </trkpt>
      <trkpt lat="48.80783" lon="2.37433">
        <ele>64.400001525879</ele>
        <time>2015-11-02T21:36:20.000Z</time>
      </trkpt>
      <trkpt lat="48.80803" lon="2.37418">
        <ele>64.400001525879</ele>
        <time>2015-11-02T21:36:24.000Z</time>
      </trkpt>
      <trkpt lat="48.80822" lon="2.37403">
        <ele>64.599998474121</ele>
        <time>2015-11-02T21:36:28.000Z</time>
      </trkpt>
      <trkpt lat="48.80843" lon="2.37385">
        <ele>65</ele>
        <time>2015-11-02T21:36:32.000Z</time>
      </trkpt>
      <trkpt lat="48.80855" lon="2.37376">
        <ele>65.400001525879</ele>
        <time>2015-11-02T21:36:34.000Z</time>
      </trkpt>
      <trkpt lat="48.80873" lon="2.37363">
        <ele>65.599998474121</ele>
        <time>2015-11-02T21:36:37.000Z</time>
      </trkpt>
      <trkpt lat="48.80879" lon="2.37359">
        <ele>65.599998474121</ele>
        <time>2015-11-02T21:36:38.000Z</time>
      </trkpt>
      <trkpt lat="48.80895" lon="2.37346">
        <ele>65.199996948242</ele>
        <time>2015-11-02T21:36:41.000Z</time>
      </trkpt>
      <trkpt lat="48.80912" lon="2.37334">
        <ele>64.599998474121</ele>
        <time>2015-11-02T21:36:44.000Z</time>
      </trkpt>
      <trkpt lat="48.80928" lon="2.37322">
        <ele>64.199996948242</ele>
        <time>2015-11-02T21:36:47.000Z</time>
      </trkpt>
      <trkpt lat="48.80946" lon="2.37308">
        <ele>63.799999237061</ele>
        <time>2015-11-02T21:36:50.000Z</time>
      </trkpt>
      <trkpt lat="48.80963" lon="2.37295">
        <ele>63.599998474121</ele>
        <time>2015-11-02T21:36:53.000Z</time>
      </trkpt>
      <trkpt lat="48.80982" lon="2.37281">
        <ele>63.400001525879</ele>
        <time>2015-11-02T21:36:56.000Z</time>
      </trkpt>
      <trkpt lat="48.81" lon="2.37267">
        <ele>63.200000762939</ele>
        <time>2015-11-02T21:36:59.000Z</time>
      </trkpt>
      <trkpt lat="48.81018" lon="2.37251">
        <ele>63</ele>
        <time>2015-11-02T21:37:02.000Z</time>
      </trkpt>
      <trkpt lat="48.81037" lon="2.37237">
        <ele>62.799999237061</ele>
        <time>2015-11-02T21:37:05.000Z</time>
      </trkpt>
      <trkpt lat="48.81056" lon="2.37223">
        <ele>62.599998474121</ele>
        <time>2015-11-02T21:37:08.000Z</time>
      </trkpt>
      <trkpt lat="48.81075" lon="2.37209">
        <ele>62.400001525879</ele>
        <time>2015-11-02T21:37:11.000Z</time>
      </trkpt>
      <trkpt lat="48.81093" lon="2.37196">
        <ele>62.599998474121</ele>
        <time>2015-11-02T21:37:14.000Z</time>
      </trkpt>
      <trkpt lat="48.81112" lon="2.37183">
        <ele>62.799999237061</ele>
        <time>2015-11-02T21:37:17.000Z</time>
      </trkpt>
      <trkpt lat="48.8113" lon="2.37168">
        <ele>63</ele>
        <time>2015-11-02T21:37:20.000Z</time>
      </trkpt>
      <trkpt lat="48.81149" lon="2.37154">
        <ele>63.200000762939</ele>
        <time>2015-11-02T21:37:23.000Z</time>
      </trkpt>
      <trkpt lat="48.81168" lon="2.3714">
        <ele>63.200000762939</ele>
        <time>2015-11-02T21:37:26.000Z</time>
      </trkpt>
      <trkpt lat="48.81186" lon="2.37125">
        <ele>63</ele>
        <time>2015-11-02T21:37:29.000Z</time>
      </trkpt>
      <trkpt lat="48.81203" lon="2.37112">
        <ele>62.799999237061</ele>
        <time>2015-11-02T21:37:32.000Z</time>
      </trkpt>
      <trkpt lat="48.81219" lon="2.37101">
        <ele>62.799999237061</ele>
        <time>2015-11-02T21:37:35.000Z</time>
      </trkpt>
      <trkpt lat="48.81239" lon="2.37085">
        <ele>63</ele>
        <time>2015-11-02T21:37:39.000Z</time>
      </trkpt>
      <trkpt lat="48.81257" lon="2.37068">
        <ele>63.200000762939</ele>
        <time>2015-11-02T21:37:43.000Z</time>
      </trkpt>
      <trkpt lat="48.81274" lon="2.37054">
        <ele>63.599998474121</ele>
        <time>2015-11-02T21:37:47.000Z</time>
      </trkpt>
      <trkpt lat="48.81292" lon="2.3704">
        <ele>64</ele>
        <time>2015-11-02T21:37:52.000Z</time>
      </trkpt>
      <trkpt lat="48.81309" lon="2.37026">
        <ele>64.199996948242</ele>
        <time>2015-11-02T21:37:57.000Z</time>
      </trkpt>
      <trkpt lat="48.81325" lon="2.37015">
        <ele>63.799999237061</ele>
        <time>2015-11-02T21:38:01.000Z</time>
      </trkpt>
      <trkpt lat="48.81342" lon="2.37001">
        <ele>63.400001525879</ele>
        <time>2015-11-02T21:38:05.000Z</time>
      </trkpt>
      <trkpt lat="48.81361" lon="2.36986">
        <ele>63</ele>
        <time>2015-11-02T21:38:09.000Z</time>
      </trkpt>
      <trkpt lat="48.81378" lon="2.36971">
        <ele>63</ele>
        <time>2015-11-02T21:38:12.000Z</time>
      </trkpt>
      <trkpt lat="48.81396" lon="2.36956">
        <ele>63</ele>
        <time>2015-11-02T21:38:15.000Z</time>
      </trkpt>
      <trkpt lat="48.81416" lon="2.3694">
        <ele>62.599998474121</ele>
        <time>2015-11-02T21:38:18.000Z</time>
      </trkpt>
      <trkpt lat="48.81435" lon="2.36924">
        <ele>62.200000762939</ele>
        <time>2015-11-02T21:38:21.000Z</time>
      </trkpt>
      <trkpt lat="48.81454" lon="2.36908">
        <ele>62.200000762939</ele>
        <time>2015-11-02T21:38:24.000Z</time>
      </trkpt>
      <trkpt lat="48.81474" lon="2.36893">
        <ele>62.599998474121</ele>
        <time>2015-11-02T21:38:27.000Z</time>
      </trkpt>
      <trkpt lat="48.81492" lon="2.3688">
        <ele>63.200000762939</ele>
        <time>2015-11-02T21:38:30.000Z</time>
      </trkpt>
      <trkpt lat="48.81511" lon="2.36865">
        <ele>64.400001525879</ele>
        <time>2015-11-02T21:38:33.000Z</time>
      </trkpt>
      <trkpt lat="48.8153" lon="2.36851">
        <ele>65.400001525879</ele>
        <time>2015-11-02T21:38:36.000Z</time>
      </trkpt>
      <trkpt lat="48.81536" lon="2.36847">
        <ele>65.599998474121</ele>
        <time>2015-11-02T21:38:37.000Z</time>
      </trkpt>
      <trkpt lat="48.81555" lon="2.36834">
        <ele>64.400001525879</ele>
        <time>2015-11-02T21:38:40.000Z</time>
      </trkpt>
      <trkpt lat="48.81572" lon="2.36819">
        <ele>62.799999237061</ele>
        <time>2015-11-02T21:38:43.000Z</time>
      </trkpt>
      <trkpt lat="48.81589" lon="2.36803">
        <ele>61.400001525879</ele>
        <time>2015-11-02T21:38:46.000Z</time>
      </trkpt>
      <trkpt lat="48.81606" lon="2.36787">
        <ele>61.400001525879</ele>
        <time>2015-11-02T21:38:49.000Z</time>
      </trkpt>
      <trkpt lat="48.81623" lon="2.36773">
        <ele>61.400001525879</ele>
        <time>2015-11-02T21:38:52.000Z</time>
      </trkpt>
      <trkpt lat="48.81641" lon="2.36759">
        <ele>61.400001525879</ele>
        <time>2015-11-02T21:38:55.000Z</time>
      </trkpt>
      <trkpt lat="48.81657" lon="2.36743">
        <ele>61.599998474121</ele>
        <time>2015-11-02T21:38:58.000Z</time>
      </trkpt>
      <trkpt lat="48.81675" lon="2.36729">
        <ele>61.400001525879</ele>
        <time>2015-11-02T21:39:01.000Z</time>
      </trkpt>
      <trkpt lat="48.81692" lon="2.36716">
        <ele>60.799999237061</ele>
        <time>2015-11-02T21:39:04.000Z</time>
      </trkpt>
      <trkpt lat="48.81711" lon="2.36701">
        <ele>59.400001525879</ele>
        <time>2015-11-02T21:39:08.000Z</time>
      </trkpt>
      <trkpt lat="48.8173" lon="2.36688">
        <ele>59.200000762939</ele>
        <time>2015-11-02T21:39:13.000Z</time>
      </trkpt>
      <trkpt lat="48.8175" lon="2.36674">
        <ele>59.599998474121</ele>
        <time>2015-11-02T21:39:18.000Z</time>
      </trkpt>
      <trkpt lat="48.81767" lon="2.3666">
        <ele>60</ele>
        <time>2015-11-02T21:39:23.000Z</time>
      </trkpt>
      <trkpt lat="48.81786" lon="2.36646">
        <ele>60.599998474121</ele>
        <time>2015-11-02T21:39:28.000Z</time>
      </trkpt>
      <trkpt lat="48.81804" lon="2.36633">
        <ele>61.200000762939</ele>
        <time>2015-11-02T21:39:33.000Z</time>
      </trkpt>
      <trkpt lat="48.81821" lon="2.36619">
        <ele>61.400001525879</ele>
        <time>2015-11-02T21:39:39.000Z</time>
      </trkpt>
      <trkpt lat="48.81838" lon="2.36602">
        <ele>61.200000762939</ele>
        <time>2015-11-02T21:39:45.000Z</time>
      </trkpt>
      <trkpt lat="48.81844" lon="2.36595">
        <ele>61.200000762939</ele>
        <time>2015-11-02T21:39:47.000Z</time>
      </trkpt>
      <trkpt lat="48.8186" lon="2.3658">
        <ele>61</ele>
        <time>2015-11-02T21:39:53.000Z</time>
      </trkpt>
      <trkpt lat="48.81876" lon="2.36563">
        <ele>61.400001525879</ele>
        <time>2015-11-02T21:39:59.000Z</time>
      </trkpt>
      <trkpt lat="48.81894" lon="2.36549">
        <ele>61.799999237061</ele>
        <time>2015-11-02T21:40:07.000Z</time>
      </trkpt>
      <trkpt lat="48.81913" lon="2.36536">
        <ele>61.200000762939</ele>
        <time>2015-11-02T21:40:14.000Z</time>
      </trkpt>
      <trkpt lat="48.8193" lon="2.36524">
        <ele>60</ele>
        <time>2015-11-02T21:40:20.000Z</time>
      </trkpt>
      <trkpt lat="48.81945" lon="2.36508">
        <ele>59.400001525879</ele>
        <time>2015-11-02T21:40:26.000Z</time>
      </trkpt>
      <trkpt lat="48.81963" lon="2.36494">
        <ele>58.400001525879</ele>
        <time>2015-11-02T21:40:33.000Z</time>
      </trkpt>
      <trkpt lat="48.81977" lon="2.36476">
        <ele>58</ele>
        <time>2015-11-02T21:40:41.000Z</time>
      </trkpt>
      <trkpt lat="48.81976" lon="2.36476">
        <ele>58.200000762939</ele>
        <time>2015-11-02T21:40:43.000Z</time>
      </trkpt>
      <trkpt lat="48.8198" lon="2.36476">
        <ele>58</ele>
        <time>2015-11-02T21:40:53.000Z</time>
      </trkpt>
      <trkpt lat="48.81995" lon="2.36475">
        <ele>57.599998474121</ele>
        <time>2015-11-02T21:41:07.000Z</time>
      </trkpt>
      <trkpt lat="48.82" lon="2.36476">
        <ele>57.599998474121</ele>
        <time>2015-11-02T21:41:26.000Z</time>
      </trkpt>
      <trkpt lat="48.81987" lon="2.36493">
        <ele>57.799999237061</ele>
        <time>2015-11-02T21:42:09.000Z</time>
      </trkpt>
      <trkpt lat="48.81983" lon="2.36493">
        <ele>58</ele>
        <time>2015-11-02T21:42:49.000Z</time>
      </trkpt>
      <trkpt lat="48.81987" lon="2.36488">
        <ele>57.799999237061</ele>
        <time>2015-11-02T21:43:48.000Z</time>
      </trkpt>
      <trkpt lat="48.82004" lon="2.36479">
        <ele>57.400001525879</ele>
        <time>2015-11-02T21:43:58.000Z</time>
      </trkpt>
      <trkpt lat="48.8202" lon="2.36465">
        <ele>57.799999237061</ele>
        <time>2015-11-02T21:44:11.000Z</time>
      </trkpt>
      <trkpt lat="48.82037" lon="2.36453">
        <ele>59</ele>
        <time>2015-11-02T21:44:22.000Z</time>
      </trkpt>
      <trkpt lat="48.82053" lon="2.36437">
        <ele>59.599998474121</ele>
        <time>2015-11-02T21:44:30.000Z</time>
      </trkpt>
      <trkpt lat="48.82069" lon="2.3642">
        <ele>58.200000762939</ele>
        <time>2015-11-02T21:44:37.000Z</time>
      </trkpt>
      <trkpt lat="48.82086" lon="2.36403">
        <ele>57.799999237061</ele>
        <time>2015-11-02T21:44:46.000Z</time>
      </trkpt>
      <trkpt lat="48.82106" lon="2.36396">
        <ele>57.200000762939</ele>
        <time>2015-11-02T21:44:52.000Z</time>
      </trkpt>
      <trkpt lat="48.82123" lon="2.36386">
        <ele>57.200000762939</ele>
        <time>2015-11-02T21:45:00.000Z</time>
      </trkpt>
      <trkpt lat="48.82139" lon="2.36371">
        <ele>57.200000762939</ele>
        <time>2015-11-02T21:45:06.000Z</time>
      </trkpt>
      <trkpt lat="48.82162" lon="2.36359">
        <ele>57</ele>
        <time>2015-11-02T21:45:12.000Z</time>
      </trkpt>
      <trkpt lat="48.82177" lon="2.36344">
        <ele>57</ele>
        <time>2015-11-02T21:45:19.000Z</time>
      </trkpt>
      <trkpt lat="48.82196" lon="2.36329">
        <ele>57</ele>
        <time>2015-11-02T21:45:26.000Z</time>
      </trkpt>
      <trkpt lat="48.82203" lon="2.36325">
        <ele>57.200000762939</ele>
        <time>2015-11-02T21:45:31.000Z</time>
      </trkpt>
      <trkpt lat="48.82215" lon="2.36349">
        <ele>57.400001525879</ele>
        <time>2015-11-02T21:45:43.000Z</time>
      </trkpt>
      <trkpt lat="48.82227" lon="2.36371">
        <ele>57.799999237061</ele>
        <time>2015-11-02T21:45:49.000Z</time>
      </trkpt>
      <trkpt lat="48.82238" lon="2.36395">
        <ele>58</ele>
        <time>2015-11-02T21:45:54.000Z</time>
      </trkpt>
      <trkpt lat="48.8225" lon="2.36417">
        <ele>58.200000762939</ele>
        <time>2015-11-02T21:45:58.000Z</time>
      </trkpt>
      <trkpt lat="48.82263" lon="2.36441">
        <ele>58.599998474121</ele>
        <time>2015-11-02T21:46:03.000Z</time>
      </trkpt>
      <trkpt lat="48.82276" lon="2.36464">
        <ele>59.200000762939</ele>
        <time>2015-11-02T21:46:08.000Z</time>
      </trkpt>
      <trkpt lat="48.82289" lon="2.36489">
        <ele>59.400001525879</ele>
        <time>2015-11-02T21:46:13.000Z</time>
      </trkpt>
      <trkpt lat="48.823" lon="2.36513">
        <ele>59.200000762939</ele>
        <time>2015-11-02T21:46:18.000Z</time>
      </trkpt>
      <trkpt lat="48.8231" lon="2.36538">
        <ele>58.599998474121</ele>
        <time>2015-11-02T21:46:24.000Z</time>
      </trkpt>
      <trkpt lat="48.82318" lon="2.3656">
        <ele>58.200000762939</ele>
        <time>2015-11-02T21:46:33.000Z</time>
      </trkpt>
      <trkpt lat="48.8233" lon="2.36553">
        <ele>58.400001525879</ele>
        <time>2015-11-02T21:46:40.000Z</time>
      </trkpt>
      <trkpt lat="48.82344" lon="2.36534">
        <ele>59.400001525879</ele>
        <time>2015-11-02T21:46:47.000Z</time>
      </trkpt>
      <trkpt lat="48.82359" lon="2.36515">
        <ele>60.400001525879</ele>
        <time>2015-11-02T21:46:53.000Z</time>
      </trkpt>
      <trkpt lat="48.82372" lon="2.3649">
        <ele>60.799999237061</ele>
        <time>2015-11-02T21:46:58.000Z</time>
      </trkpt>
      <trkpt lat="48.82387" lon="2.36465">
        <ele>60.599998474121</ele>
        <time>2015-11-02T21:47:03.000Z</time>
      </trkpt>
      <trkpt lat="48.824" lon="2.36437">
        <ele>61</ele>
        <time>2015-11-02T21:47:08.000Z</time>
      </trkpt>
      <trkpt lat="48.82418" lon="2.36415">
        <ele>61.200000762939</ele>
        <time>2015-11-02T21:47:12.000Z</time>
      </trkpt>
      <trkpt lat="48.82435" lon="2.36396">
        <ele>60.400001525879</ele>
        <time>2015-11-02T21:47:17.000Z</time>
      </trkpt>
      <trkpt lat="48.82439" lon="2.36363">
        <ele>59.799999237061</ele>
        <time>2015-11-02T21:47:23.000Z</time>
      </trkpt>
      <trkpt lat="48.82453" lon="2.36336">
        <ele>58.200000762939</ele>
        <time>2015-11-02T21:47:27.000Z</time>
      </trkpt>
      <trkpt lat="48.82461" lon="2.36316">
        <ele>57</ele>
        <time>2015-11-02T21:47:30.000Z</time>
      </trkpt>
      <trkpt lat="48.82469" lon="2.36286">
        <ele>55.799999237061</ele>
        <time>2015-11-02T21:47:33.000Z</time>
      </trkpt>
      <trkpt lat="48.82476" lon="2.36253">
        <ele>57.200000762939</ele>
        <time>2015-11-02T21:47:37.000Z</time>
      </trkpt>
      <trkpt lat="48.82488" lon="2.36229">
        <ele>57.799999237061</ele>
        <time>2015-11-02T21:47:40.000Z</time>
      </trkpt>
      <trkpt lat="48.82503" lon="2.36199">
        <ele>59.799999237061</ele>
        <time>2015-11-02T21:47:44.000Z</time>
      </trkpt>
      <trkpt lat="48.82516" lon="2.36175">
        <ele>62</ele>
        <time>2015-11-02T21:47:47.000Z</time>
      </trkpt>
      <trkpt lat="48.82528" lon="2.36153">
        <ele>62.400001525879</ele>
        <time>2015-11-02T21:47:50.000Z</time>
      </trkpt>
      <trkpt lat="48.82541" lon="2.36133">
        <ele>61.200000762939</ele>
        <time>2015-11-02T21:47:53.000Z</time>
      </trkpt>
      <trkpt lat="48.82553" lon="2.36113">
        <ele>60.200000762939</ele>
        <time>2015-11-02T21:47:56.000Z</time>
      </trkpt>
      <trkpt lat="48.82566" lon="2.36088">
        <ele>60.799999237061</ele>
        <time>2015-11-02T21:48:00.000Z</time>
      </trkpt>
      <trkpt lat="48.82579" lon="2.36064">
        <ele>60.200000762939</ele>
        <time>2015-11-02T21:48:04.000Z</time>
      </trkpt>
      <trkpt lat="48.82591" lon="2.36035">
        <ele>60.799999237061</ele>
        <time>2015-11-02T21:48:08.000Z</time>
      </trkpt>
      <trkpt lat="48.82599" lon="2.36017">
        <ele>61.400001525879</ele>
        <time>2015-11-02T21:48:12.000Z</time>
      </trkpt>
      <trkpt lat="48.82603" lon="2.36015">
        <ele>61.599998474121</ele>
        <time>2015-11-02T21:48:15.000Z</time>
      </trkpt>
      <trkpt lat="48.82607" lon="2.36018">
        <ele>61.400001525879</ele>
        <time>2015-11-02T21:48:17.000Z</time>
      </trkpt>
      <trkpt lat="48.8261" lon="2.36021">
        <ele>61.200000762939</ele>
        <time>2015-11-02T21:48:20.000Z</time>
      </trkpt>
      <trkpt lat="48.82619" lon="2.36021">
        <ele>60.400001525879</ele>
        <time>2015-11-02T21:48:33.000Z</time>
      </trkpt>
      <trkpt lat="48.82631" lon="2.35999">
        <ele>61</ele>
        <time>2015-11-02T21:48:40.000Z</time>
      </trkpt>
      <trkpt lat="48.82633" lon="2.35993">
        <ele>61.200000762939</ele>
        <time>2015-11-02T21:48:42.000Z</time>
      </trkpt>
      <trkpt lat="48.82639" lon="2.3598">
        <ele>61.400001525879</ele>
        <time>2015-11-02T21:48:47.000Z</time>
      </trkpt>
      <trkpt lat="48.82654" lon="2.35963">
        <ele>61.400001525879</ele>
        <time>2015-11-02T21:48:53.000Z</time>
      </trkpt>
      <trkpt lat="48.8267" lon="2.35948">
        <ele>62.200000762939</ele>
        <time>2015-11-02T21:48:58.000Z</time>
      </trkpt>
      <trkpt lat="48.82687" lon="2.35928">
        <ele>63.200000762939</ele>
        <time>2015-11-02T21:49:03.000Z</time>
      </trkpt>
      <trkpt lat="48.82706" lon="2.35913">
        <ele>63.599998474121</ele>
        <time>2015-11-02T21:49:08.000Z</time>
      </trkpt>
      <trkpt lat="48.82725" lon="2.35896">
        <ele>62.799999237061</ele>
        <time>2015-11-02T21:49:13.000Z</time>
      </trkpt>
      <trkpt lat="48.82745" lon="2.3588">
        <ele>61.599998474121</ele>
        <time>2015-11-02T21:49:17.000Z</time>
      </trkpt>
      <trkpt lat="48.82763" lon="2.35866">
        <ele>60.200000762939</ele>
        <time>2015-11-02T21:49:21.000Z</time>
      </trkpt>
      <trkpt lat="48.8278" lon="2.35852">
        <ele>59</ele>
        <time>2015-11-02T21:49:25.000Z</time>
      </trkpt>
      <trkpt lat="48.82794" lon="2.35841">
        <ele>59.400001525879</ele>
        <time>2015-11-02T21:49:28.000Z</time>
      </trkpt>
      <trkpt lat="48.82812" lon="2.35826">
        <ele>60.799999237061</ele>
        <time>2015-11-02T21:49:32.000Z</time>
      </trkpt>
      <trkpt lat="48.82817" lon="2.35822">
        <ele>61.400001525879</ele>
        <time>2015-11-02T21:49:33.000Z</time>
      </trkpt>
      <trkpt lat="48.82826" lon="2.35813">
        <ele>62.599998474121</ele>
        <time>2015-11-02T21:49:35.000Z</time>
      </trkpt>
      <trkpt lat="48.82841" lon="2.35798">
        <ele>64.199996948242</ele>
        <time>2015-11-02T21:49:39.000Z</time>
      </trkpt>
      <trkpt lat="48.8286" lon="2.35781">
        <ele>65.400001525879</ele>
        <time>2015-11-02T21:49:43.000Z</time>
      </trkpt>
      <trkpt lat="48.82877" lon="2.35769">
        <ele>66</ele>
        <time>2015-11-02T21:49:46.000Z</time>
      </trkpt>
      <trkpt lat="48.82899" lon="2.35756">
        <ele>67.800003051758</ele>
        <time>2015-11-02T21:49:49.000Z</time>
      </trkpt>
      <trkpt lat="48.82917" lon="2.35742">
        <ele>69.400001525879</ele>
        <time>2015-11-02T21:49:52.000Z</time>
      </trkpt>
      <trkpt lat="48.82937" lon="2.35729">
        <ele>70</ele>
        <time>2015-11-02T21:49:55.000Z</time>
      </trkpt>
      <trkpt lat="48.82954" lon="2.35716">
        <ele>70.400001525879</ele>
        <time>2015-11-02T21:49:58.000Z</time>
      </trkpt>
      <trkpt lat="48.82973" lon="2.35699">
        <ele>70.800003051758</ele>
        <time>2015-11-02T21:50:02.000Z</time>
      </trkpt>
      <trkpt lat="48.82996" lon="2.35689">
        <ele>70.599998474121</ele>
        <time>2015-11-02T21:50:05.000Z</time>
      </trkpt>
      <trkpt lat="48.83013" lon="2.35679">
        <ele>70.400001525879</ele>
        <time>2015-11-02T21:50:08.000Z</time>
      </trkpt>
      <trkpt lat="48.83035" lon="2.35667">
        <ele>69.199996948242</ele>
        <time>2015-11-02T21:50:12.000Z</time>
      </trkpt>
      <trkpt lat="48.83057" lon="2.35655">
        <ele>68</ele>
        <time>2015-11-02T21:50:16.000Z</time>
      </trkpt>
      <trkpt lat="48.83069" lon="2.35639">
        <ele>67.800003051758</ele>
        <time>2015-11-02T21:50:20.000Z</time>
      </trkpt>
      <trkpt lat="48.83081" lon="2.35638">
        <ele>67</ele>
        <time>2015-11-02T21:50:24.000Z</time>
      </trkpt>
      <trkpt lat="48.83085" lon="2.35638">
        <ele>66.400001525879</ele>
        <time>2015-11-02T21:50:26.000Z</time>
      </trkpt>
      <trkpt lat="48.83088" lon="2.35636">
        <ele>66</ele>
        <time>2015-11-02T21:50:28.000Z</time>
      </trkpt>
      <trkpt lat="48.83095" lon="2.35628">
        <ele>65</ele>
        <time>2015-11-02T21:50:33.000Z</time>
      </trkpt>
      <trkpt lat="48.83105" lon="2.35621">
        <ele>63.599998474121</ele>
        <time>2015-11-02T21:50:38.000Z</time>
      </trkpt>
      <trkpt lat="48.83116" lon="2.35626">
        <ele>63.400001525879</ele>
        <time>2015-11-02T21:50:44.000Z</time>
      </trkpt>
      <trkpt lat="48.83124" lon="2.35664">
        <ele>63.799999237061</ele>
        <time>2015-11-02T21:51:55.000Z</time>
      </trkpt>
      <trkpt lat="48.83138" lon="2.3568">
        <ele>63.799999237061</ele>
        <time>2015-11-02T21:52:00.000Z</time>
      </trkpt>
      <trkpt lat="48.83157" lon="2.35676">
        <ele>63.599998474121</ele>
        <time>2015-11-02T21:52:04.000Z</time>
      </trkpt>
      <trkpt lat="48.83178" lon="2.35666">
        <ele>63.200000762939</ele>
        <time>2015-11-02T21:52:08.000Z</time>
      </trkpt>
      <trkpt lat="48.83195" lon="2.35645">
        <ele>62.200000762939</ele>
        <time>2015-11-02T21:52:12.000Z</time>
      </trkpt>
      <trkpt lat="48.8321" lon="2.35622">
        <ele>61.400001525879</ele>
        <time>2015-11-02T21:52:16.000Z</time>
      </trkpt>
      <trkpt lat="48.83213" lon="2.35619">
        <ele>61.400001525879</ele>
        <time>2015-11-02T21:52:17.000Z</time>
      </trkpt>
      <trkpt lat="48.83221" lon="2.35616">
        <ele>61.200000762939</ele>
        <time>2015-11-02T21:52:21.000Z</time>
      </trkpt>
      <trkpt lat="48.83223" lon="2.35615">
        <ele>61.200000762939</ele>
        <time>2015-11-02T21:52:23.000Z</time>
      </trkpt>
      <trkpt lat="48.83218" lon="2.35598">
        <ele>61</ele>
        <time>2015-11-02T21:52:43.000Z</time>
      </trkpt>
      <trkpt lat="48.83217" lon="2.35569">
        <ele>61.200000762939</ele>
        <time>2015-11-02T21:52:49.000Z</time>
      </trkpt>
      <trkpt lat="48.83216" lon="2.35539">
        <ele>61.400001525879</ele>
        <time>2015-11-02T21:52:55.000Z</time>
      </trkpt>
      <trkpt lat="48.83217" lon="2.35521">
        <ele>61.599998474121</ele>
        <time>2015-11-02T21:52:59.000Z</time>
      </trkpt>
      <trkpt lat="48.8323" lon="2.35501">
        <ele>62</ele>
        <time>2015-11-02T21:53:05.000Z</time>
      </trkpt>
      <trkpt lat="48.83248" lon="2.35481">
        <ele>63</ele>
        <time>2015-11-02T21:53:10.000Z</time>
      </trkpt>
      <trkpt lat="48.83267" lon="2.35465">
        <ele>62.799999237061</ele>
        <time>2015-11-02T21:53:14.000Z</time>
      </trkpt>
      <trkpt lat="48.83288" lon="2.3545">
        <ele>62</ele>
        <time>2015-11-02T21:53:18.000Z</time>
      </trkpt>
      <trkpt lat="48.83305" lon="2.35439">
        <ele>61.599998474121</ele>
        <time>2015-11-02T21:53:21.000Z</time>
      </trkpt>
      <trkpt lat="48.83316" lon="2.35433">
        <ele>61.200000762939</ele>
        <time>2015-11-02T21:53:23.000Z</time>
      </trkpt>
      <trkpt lat="48.83333" lon="2.3542">
        <ele>60.599998474121</ele>
        <time>2015-11-02T21:53:26.000Z</time>
      </trkpt>
      <trkpt lat="48.8335" lon="2.35405">
        <ele>59.799999237061</ele>
        <time>2015-11-02T21:53:29.000Z</time>
      </trkpt>
      <trkpt lat="48.8337" lon="2.3539">
        <ele>60</ele>
        <time>2015-11-02T21:53:32.000Z</time>
      </trkpt>
      <trkpt lat="48.8339" lon="2.35374">
        <ele>60</ele>
        <time>2015-11-02T21:53:35.000Z</time>
      </trkpt>
      <trkpt lat="48.83412" lon="2.35361">
        <ele>58.799999237061</ele>
        <time>2015-11-02T21:53:38.000Z</time>
      </trkpt>
      <trkpt lat="48.83435" lon="2.35346">
        <ele>57</ele>
        <time>2015-11-02T21:53:41.000Z</time>
      </trkpt>
      <trkpt lat="48.83456" lon="2.35332">
        <ele>55.799999237061</ele>
        <time>2015-11-02T21:53:44.000Z</time>
      </trkpt>
      <trkpt lat="48.83477" lon="2.35317">
        <ele>54</ele>
        <time>2015-11-02T21:53:47.000Z</time>
      </trkpt>
      <trkpt lat="48.83497" lon="2.35306">
        <ele>52.599998474121</ele>
        <time>2015-11-02T21:53:50.000Z</time>
      </trkpt>
      <trkpt lat="48.83516" lon="2.35289">
        <ele>52.200000762939</ele>
        <time>2015-11-02T21:53:53.000Z</time>
      </trkpt>
      <trkpt lat="48.83537" lon="2.35276">
        <ele>51.799999237061</ele>
        <time>2015-11-02T21:53:56.000Z</time>
      </trkpt>
      <trkpt lat="48.83559" lon="2.35262">
        <ele>51.400001525879</ele>
        <time>2015-11-02T21:53:59.000Z</time>
      </trkpt>
      <trkpt lat="48.83578" lon="2.35245">
        <ele>51.200000762939</ele>
        <time>2015-11-02T21:54:02.000Z</time>
      </trkpt>
      <trkpt lat="48.83599" lon="2.35229">
        <ele>50.799999237061</ele>
        <time>2015-11-02T21:54:05.000Z</time>
      </trkpt>
      <trkpt lat="48.83618" lon="2.35214">
        <ele>50.200000762939</ele>
        <time>2015-11-02T21:54:08.000Z</time>
      </trkpt>
      <trkpt lat="48.83635" lon="2.352">
        <ele>49.400001525879</ele>
        <time>2015-11-02T21:54:11.000Z</time>
      </trkpt>
      <trkpt lat="48.83653" lon="2.3519">
        <ele>49</ele>
        <time>2015-11-02T21:54:15.000Z</time>
      </trkpt>
      <trkpt lat="48.83664" lon="2.35183">
        <ele>48.599998474121</ele>
        <time>2015-11-02T21:54:19.000Z</time>
      </trkpt>
      <trkpt lat="48.83674" lon="2.35177">
        <ele>48.400001525879</ele>
        <time>2015-11-02T21:54:25.000Z</time>
      </trkpt>
      <trkpt lat="48.83674" lon="2.3518">
        <ele>48.599998474121</ele>
        <time>2015-11-02T21:54:26.000Z</time>
      </trkpt>
      <trkpt lat="48.83678" lon="2.35187">
        <ele>48.799999237061</ele>
        <time>2015-11-02T21:54:35.000Z</time>
      </trkpt>
      <trkpt lat="48.83697" lon="2.35175">
        <ele>48.200000762939</ele>
        <time>2015-11-02T21:54:43.000Z</time>
      </trkpt>
      <trkpt lat="48.83717" lon="2.35162">
        <ele>48</ele>
        <time>2015-11-02T21:54:49.000Z</time>
      </trkpt>
      <trkpt lat="48.83736" lon="2.35148">
        <ele>47.799999237061</ele>
        <time>2015-11-02T21:54:54.000Z</time>
      </trkpt>
      <trkpt lat="48.83754" lon="2.35135">
        <ele>48</ele>
        <time>2015-11-02T21:54:58.000Z</time>
      </trkpt>
      <trkpt lat="48.83773" lon="2.35119">
        <ele>48.599998474121</ele>
        <time>2015-11-02T21:55:02.000Z</time>
      </trkpt>
      <trkpt lat="48.83791" lon="2.35103">
        <ele>47.799999237061</ele>
        <time>2015-11-02T21:55:06.000Z</time>
      </trkpt>
      <trkpt lat="48.83811" lon="2.35087">
        <ele>47.400001525879</ele>
        <time>2015-11-02T21:55:10.000Z</time>
      </trkpt>
      <trkpt lat="48.83831" lon="2.35071">
        <ele>46.799999237061</ele>
        <time>2015-11-02T21:55:14.000Z</time>
      </trkpt>
      <trkpt lat="48.83844" lon="2.35062">
        <ele>46.200000762939</ele>
        <time>2015-11-02T21:55:17.000Z</time>
      </trkpt>
      <trkpt lat="48.83861" lon="2.35051">
        <ele>45.200000762939</ele>
        <time>2015-11-02T21:55:22.000Z</time>
      </trkpt>
      <trkpt lat="48.83863" lon="2.35049">
        <ele>45</ele>
        <time>2015-11-02T21:55:23.000Z</time>
      </trkpt>
      <trkpt lat="48.83868" lon="2.3504">
        <ele>44.799999237061</ele>
        <time>2015-11-02T21:55:28.000Z</time>
      </trkpt>
      <trkpt lat="48.83865" lon="2.35054">
        <ele>45.200000762939</ele>
        <time>2015-11-02T21:55:40.000Z</time>
      </trkpt>
      <trkpt lat="48.83869" lon="2.35056">
        <ele>45</ele>
        <time>2015-11-02T21:55:43.000Z</time>
      </trkpt>
      <trkpt lat="48.83886" lon="2.35069">
        <ele>45</ele>
        <time>2015-11-02T21:55:50.000Z</time>
      </trkpt>
      <trkpt lat="48.83905" lon="2.35075">
        <ele>44.599998474121</ele>
        <time>2015-11-02T21:55:56.000Z</time>
      </trkpt>
      <trkpt lat="48.83924" lon="2.35086">
        <ele>44.200000762939</ele>
        <time>2015-11-02T21:56:03.000Z</time>
      </trkpt>
      <trkpt lat="48.83945" lon="2.35094">
        <ele>43.599998474121</ele>
        <time>2015-11-02T21:56:09.000Z</time>
      </trkpt>
      <trkpt lat="48.83971" lon="2.351">
        <ele>43.599998474121</ele>
        <time>2015-11-02T21:56:13.000Z</time>
      </trkpt>
      <trkpt lat="48.83992" lon="2.35112">
        <ele>43.400001525879</ele>
        <time>2015-11-02T21:56:17.000Z</time>
      </trkpt>
      <trkpt lat="48.84008" lon="2.35129">
        <ele>43.200000762939</ele>
        <time>2015-11-02T21:56:21.000Z</time>
      </trkpt>
      <trkpt lat="48.84027" lon="2.35145">
        <ele>43.200000762939</ele>
        <time>2015-11-02T21:56:26.000Z</time>
      </trkpt>
      <trkpt lat="48.84049" lon="2.3516">
        <ele>44</ele>
        <time>2015-11-02T21:56:31.000Z</time>
      </trkpt>
      <trkpt lat="48.84061" lon="2.35162">
        <ele>44.400001525879</ele>
        <time>2015-11-02T21:56:33.000Z</time>
      </trkpt>
      <trkpt lat="48.84074" lon="2.35175">
        <ele>44.799999237061</ele>
        <time>2015-11-02T21:56:39.000Z</time>
      </trkpt>
      <trkpt lat="48.84076" lon="2.35181">
        <ele>45</ele>
        <time>2015-11-02T21:56:41.000Z</time>
      </trkpt>
      <trkpt lat="48.84078" lon="2.35191">
        <ele>45</ele>
        <time>2015-11-02T21:56:45.000Z</time>
      </trkpt>
      <trkpt lat="48.8408" lon="2.35212">
        <ele>45</ele>
        <time>2015-11-02T21:57:03.000Z</time>
      </trkpt>
      <trkpt lat="48.84092" lon="2.35215">
        <ele>45.599998474121</ele>
        <time>2015-11-02T21:57:11.000Z</time>
      </trkpt>
      <trkpt lat="48.84105" lon="2.35236">
        <ele>46</ele>
        <time>2015-11-02T21:57:17.000Z</time>
      </trkpt>
      <trkpt lat="48.84116" lon="2.35262">
        <ele>46</ele>
        <time>2015-11-02T21:57:22.000Z</time>
      </trkpt>
      <trkpt lat="48.84121" lon="2.35289">
        <ele>45.599998474121</ele>
        <time>2015-11-02T21:57:27.000Z</time>
      </trkpt>
      <trkpt lat="48.84129" lon="2.35319">
        <ele>45.200000762939</ele>
        <time>2015-11-02T21:57:33.000Z</time>
      </trkpt>
      <trkpt lat="48.84133" lon="2.3535">
        <ele>44.200000762939</ele>
        <time>2015-11-02T21:57:38.000Z</time>
      </trkpt>
      <trkpt lat="48.84135" lon="2.35378">
        <ele>43.200000762939</ele>
        <time>2015-11-02T21:57:42.000Z</time>
      </trkpt>
      <trkpt lat="48.84136" lon="2.35405">
        <ele>42</ele>
        <time>2015-11-02T21:57:46.000Z</time>
      </trkpt>
      <trkpt lat="48.84138" lon="2.35433">
        <ele>41.400001525879</ele>
        <time>2015-11-02T21:57:50.000Z</time>
      </trkpt>
      <trkpt lat="48.84144" lon="2.35464">
        <ele>42</ele>
        <time>2015-11-02T21:57:55.000Z</time>
      </trkpt>
      <trkpt lat="48.84147" lon="2.35469">
        <ele>42.200000762939</ele>
        <time>2015-11-02T21:57:57.000Z</time>
      </trkpt>
      <trkpt lat="48.84168" lon="2.35471">
        <ele>42.200000762939</ele>
        <time>2015-11-02T21:58:07.000Z</time>
      </trkpt>
      <trkpt lat="48.84177" lon="2.3547">
        <ele>42.799999237061</ele>
        <time>2015-11-02T21:58:09.000Z</time>
      </trkpt>
      <trkpt lat="48.84199" lon="2.35461">
        <ele>44</ele>
        <time>2015-11-02T21:58:12.000Z</time>
      </trkpt>
      <trkpt lat="48.84221" lon="2.3545">
        <ele>45.400001525879</ele>
        <time>2015-11-02T21:58:16.000Z</time>
      </trkpt>
      <trkpt lat="48.84241" lon="2.35438">
        <ele>46.200000762939</ele>
        <time>2015-11-02T21:58:22.000Z</time>
      </trkpt>
      <trkpt lat="48.84261" lon="2.35432">
        <ele>46.799999237061</ele>
        <time>2015-11-02T21:58:26.000Z</time>
      </trkpt>
      <trkpt lat="48.8428" lon="2.35426">
        <ele>47.599998474121</ele>
        <time>2015-11-02T21:58:30.000Z</time>
      </trkpt>
      <trkpt lat="48.84297" lon="2.35421">
        <ele>48.799999237061</ele>
        <time>2015-11-02T21:58:34.000Z</time>
      </trkpt>
      <trkpt lat="48.84318" lon="2.35416">
        <ele>50.799999237061</ele>
        <time>2015-11-02T21:58:38.000Z</time>
      </trkpt>
      <trkpt lat="48.8434" lon="2.35413">
        <ele>52.799999237061</ele>
        <time>2015-11-02T21:58:43.000Z</time>
      </trkpt>
      <trkpt lat="48.84354" lon="2.35421">
        <ele>53.599998474121</ele>
        <time>2015-11-02T21:58:48.000Z</time>
      </trkpt>
      <trkpt lat="48.84356" lon="2.35422">
        <ele>53.799999237061</ele>
        <time>2015-11-02T21:58:49.000Z</time>
      </trkpt>
      <trkpt lat="48.84358" lon="2.35423">
        <ele>53.599998474121</ele>
        <time>2015-11-02T21:58:52.000Z</time>
      </trkpt>
      <trkpt lat="48.84358" lon="2.35426">
        <ele>53.599998474121</ele>
        <time>2015-11-02T21:58:54.000Z</time>
      </trkpt>
      <trkpt lat="48.84359" lon="2.35456">
        <ele>52.799999237061</ele>
        <time>2015-11-02T21:59:03.000Z</time>
      </trkpt>
      <trkpt lat="48.84361" lon="2.35483">
        <ele>52.200000762939</ele>
        <time>2015-11-02T21:59:10.000Z</time>
      </trkpt>
      <trkpt lat="48.84377" lon="2.35494">
        <ele>51</ele>
        <time>2015-11-02T21:59:16.000Z</time>
      </trkpt>
      <trkpt lat="48.84389" lon="2.35517">
        <ele>49.400001525879</ele>
        <time>2015-11-02T21:59:21.000Z</time>
      </trkpt>
      <trkpt lat="48.84391" lon="2.35523">
        <ele>49.200000762939</ele>
        <time>2015-11-02T21:59:22.000Z</time>
      </trkpt>
      <trkpt lat="48.84396" lon="2.3555">
        <ele>47.799999237061</ele>
        <time>2015-11-02T21:59:26.000Z</time>
      </trkpt>
      <trkpt lat="48.84398" lon="2.35556">
        <ele>47.400001525879</ele>
        <time>2015-11-02T21:59:27.000Z</time>
      </trkpt>
      <trkpt lat="48.8441" lon="2.35578">
        <ele>45.799999237061</ele>
        <time>2015-11-02T21:59:30.000Z</time>
      </trkpt>
      <trkpt lat="48.84424" lon="2.35597">
        <ele>44.599998474121</ele>
        <time>2015-11-02T21:59:33.000Z</time>
      </trkpt>
      <trkpt lat="48.84438" lon="2.35616">
        <ele>43.200000762939</ele>
        <time>2015-11-02T21:59:36.000Z</time>
      </trkpt>
      <trkpt lat="48.8445" lon="2.35638">
        <ele>42.200000762939</ele>
        <time>2015-11-02T21:59:39.000Z</time>
      </trkpt>
      <trkpt lat="48.84466" lon="2.35663">
        <ele>41</ele>
        <time>2015-11-02T21:59:43.000Z</time>
      </trkpt>
      <trkpt lat="48.84475" lon="2.35683">
        <ele>40</ele>
        <time>2015-11-02T21:59:46.000Z</time>
      </trkpt>
      <trkpt lat="48.84485" lon="2.35702">
        <ele>39</ele>
        <time>2015-11-02T21:59:49.000Z</time>
      </trkpt>
      <trkpt lat="48.84497" lon="2.35725">
        <ele>37.799999237061</ele>
        <time>2015-11-02T21:59:53.000Z</time>
      </trkpt>
      <trkpt lat="48.84512" lon="2.35748">
        <ele>36.599998474121</ele>
        <time>2015-11-02T21:59:56.000Z</time>
      </trkpt>
      <trkpt lat="48.84529" lon="2.35777">
        <ele>35.599998474121</ele>
        <time>2015-11-02T21:59:59.000Z</time>
      </trkpt>
      <trkpt lat="48.8455" lon="2.35806">
        <ele>35.200000762939</ele>
        <time>2015-11-02T22:00:02.000Z</time>
      </trkpt>
      <trkpt lat="48.84565" lon="2.35833">
        <ele>35</ele>
        <time>2015-11-02T22:00:04.000Z</time>
      </trkpt>
      <trkpt lat="48.84577" lon="2.35856">
        <ele>35.599998474121</ele>
        <time>2015-11-02T22:00:06.000Z</time>
      </trkpt>
      <trkpt lat="48.84589" lon="2.35889">
        <ele>36.400001525879</ele>
        <time>2015-11-02T22:00:09.000Z</time>
      </trkpt>
      <trkpt lat="48.84605" lon="2.35918">
        <ele>37</ele>
        <time>2015-11-02T22:00:12.000Z</time>
      </trkpt>
      <trkpt lat="48.84621" lon="2.35948">
        <ele>36.799999237061</ele>
        <time>2015-11-02T22:00:15.000Z</time>
      </trkpt>
      <trkpt lat="48.84634" lon="2.35976">
        <ele>36.599998474121</ele>
        <time>2015-11-02T22:00:18.000Z</time>
      </trkpt>
      <trkpt lat="48.84643" lon="2.35992">
        <ele>36.599998474121</ele>
        <time>2015-11-02T22:00:20.000Z</time>
      </trkpt>
      <trkpt lat="48.84655" lon="2.36016">
        <ele>35.599998474121</ele>
        <time>2015-11-02T22:00:23.000Z</time>
      </trkpt>
      <trkpt lat="48.84666" lon="2.36039">
        <ele>34.200000762939</ele>
        <time>2015-11-02T22:00:26.000Z</time>
      </trkpt>
      <trkpt lat="48.84677" lon="2.36066">
        <ele>32.799999237061</ele>
        <time>2015-11-02T22:00:30.000Z</time>
      </trkpt>
      <trkpt lat="48.84683" lon="2.36082">
        <ele>32</ele>
        <time>2015-11-02T22:00:33.000Z</time>
      </trkpt>
      <trkpt lat="48.84687" lon="2.36097">
        <ele>31.200000762939</ele>
        <time>2015-11-02T22:00:38.000Z</time>
      </trkpt>
      <trkpt lat="48.84702" lon="2.36084">
        <ele>31.39999961853</ele>
        <time>2015-11-02T22:01:00.000Z</time>
      </trkpt>
      <trkpt lat="48.84718" lon="2.36064">
        <ele>32</ele>
        <time>2015-11-02T22:01:05.000Z</time>
      </trkpt>
      <trkpt lat="48.84732" lon="2.36043">
        <ele>32.799999237061</ele>
        <time>2015-11-02T22:01:09.000Z</time>
      </trkpt>
      <trkpt lat="48.84746" lon="2.3602">
        <ele>32.799999237061</ele>
        <time>2015-11-02T22:01:13.000Z</time>
      </trkpt>
      <trkpt lat="48.84761" lon="2.35994">
        <ele>32.599998474121</ele>
        <time>2015-11-02T22:01:17.000Z</time>
      </trkpt>
      <trkpt lat="48.84775" lon="2.35971">
        <ele>32.200000762939</ele>
        <time>2015-11-02T22:01:21.000Z</time>
      </trkpt>
      <trkpt lat="48.8479" lon="2.35949">
        <ele>32.400001525879</ele>
        <time>2015-11-02T22:01:25.000Z</time>
      </trkpt>
      <trkpt lat="48.84806" lon="2.35925">
        <ele>32.200000762939</ele>
        <time>2015-11-02T22:01:29.000Z</time>
      </trkpt>
      <trkpt lat="48.84819" lon="2.35905">
        <ele>32</ele>
        <time>2015-11-02T22:01:32.000Z</time>
      </trkpt>
      <trkpt lat="48.84832" lon="2.35885">
        <ele>32.400001525879</ele>
        <time>2015-11-02T22:01:35.000Z</time>
      </trkpt>
      <trkpt lat="48.84848" lon="2.3586">
        <ele>33</ele>
        <time>2015-11-02T22:01:39.000Z</time>
      </trkpt>
      <trkpt lat="48.84862" lon="2.35841">
        <ele>33.599998474121</ele>
        <time>2015-11-02T22:01:42.000Z</time>
      </trkpt>
      <trkpt lat="48.84877" lon="2.35816">
        <ele>34.200000762939</ele>
        <time>2015-11-02T22:01:46.000Z</time>
      </trkpt>
      <trkpt lat="48.84889" lon="2.35795">
        <ele>35</ele>
        <time>2015-11-02T22:01:49.000Z</time>
      </trkpt>
      <trkpt lat="48.84903" lon="2.35776">
        <ele>34.200000762939</ele>
        <time>2015-11-02T22:01:52.000Z</time>
      </trkpt>
      <trkpt lat="48.84917" lon="2.35757">
        <ele>32.400001525879</ele>
        <time>2015-11-02T22:01:55.000Z</time>
      </trkpt>
      <trkpt lat="48.84929" lon="2.35736">
        <ele>31</ele>
        <time>2015-11-02T22:01:59.000Z</time>
      </trkpt>
      <trkpt lat="48.84935" lon="2.35726">
        <ele>30.799999237061</ele>
        <time>2015-11-02T22:02:01.000Z</time>
      </trkpt>
      <trkpt lat="48.84934" lon="2.35713">
        <ele>31.200000762939</ele>
        <time>2015-11-02T22:02:04.000Z</time>
      </trkpt>
      <trkpt lat="48.84932" lon="2.35702">
        <ele>31.60000038147</ele>
        <time>2015-11-02T22:02:07.000Z</time>
      </trkpt>
      <trkpt lat="48.84932" lon="2.35692">
        <ele>31.799999237061</ele>
        <time>2015-11-02T22:02:11.000Z</time>
      </trkpt>
      <trkpt lat="48.84932" lon="2.35689">
        <ele>32</ele>
        <time>2015-11-02T22:02:13.000Z</time>
      </trkpt>
      <trkpt lat="48.84939" lon="2.35661">
        <ele>32.200000762939</ele>
        <time>2015-11-02T22:02:24.000Z</time>
      </trkpt>
      <trkpt lat="48.84947" lon="2.35635">
        <ele>33</ele>
        <time>2015-11-02T22:02:29.000Z</time>
      </trkpt>
      <trkpt lat="48.84956" lon="2.35607">
        <ele>33.799999237061</ele>
        <time>2015-11-02T22:02:34.000Z</time>
      </trkpt>
      <trkpt lat="48.84964" lon="2.35582">
        <ele>33.799999237061</ele>
        <time>2015-11-02T22:02:38.000Z</time>
      </trkpt>
      <trkpt lat="48.84973" lon="2.35557">
        <ele>36</ele>
        <time>2015-11-02T22:02:42.000Z</time>
      </trkpt>
      <trkpt lat="48.84983" lon="2.3553">
        <ele>37.599998474121</ele>
        <time>2015-11-02T22:02:46.000Z</time>
      </trkpt>
      <trkpt lat="48.84991" lon="2.35499">
        <ele>37.799999237061</ele>
        <time>2015-11-02T22:02:50.000Z</time>
      </trkpt>
      <trkpt lat="48.84998" lon="2.35468">
        <ele>38.200000762939</ele>
        <time>2015-11-02T22:02:54.000Z</time>
      </trkpt>
      <trkpt lat="48.85005" lon="2.35443">
        <ele>39</ele>
        <time>2015-11-02T22:02:57.000Z</time>
      </trkpt>
      <trkpt lat="48.85013" lon="2.35416">
        <ele>39.799999237061</ele>
        <time>2015-11-02T22:03:00.000Z</time>
      </trkpt>
      <trkpt lat="48.85023" lon="2.35387">
        <ele>39</ele>
        <time>2015-11-02T22:03:03.000Z</time>
      </trkpt>
      <trkpt lat="48.85031" lon="2.35357">
        <ele>38.599998474121</ele>
        <time>2015-11-02T22:03:06.000Z</time>
      </trkpt>
      <trkpt lat="48.8504" lon="2.35326">
        <ele>37.200000762939</ele>
        <time>2015-11-02T22:03:09.000Z</time>
      </trkpt>
      <trkpt lat="48.85051" lon="2.35293">
        <ele>37.400001525879</ele>
        <time>2015-11-02T22:03:12.000Z</time>
      </trkpt>
      <trkpt lat="48.85062" lon="2.35261">
        <ele>35.799999237061</ele>
        <time>2015-11-02T22:03:15.000Z</time>
      </trkpt>
      <trkpt lat="48.85072" lon="2.35229">
        <ele>34.200000762939</ele>
        <time>2015-11-02T22:03:18.000Z</time>
      </trkpt>
      <trkpt lat="48.85081" lon="2.35199">
        <ele>34.400001525879</ele>
        <time>2015-11-02T22:03:21.000Z</time>
      </trkpt>
      <trkpt lat="48.8509" lon="2.35171">
        <ele>35.400001525879</ele>
        <time>2015-11-02T22:03:24.000Z</time>
      </trkpt>
      <trkpt lat="48.85102" lon="2.35142">
        <ele>35.599998474121</ele>
        <time>2015-11-02T22:03:28.000Z</time>
      </trkpt>
      <trkpt lat="48.85108" lon="2.35134">
        <ele>35.599998474121</ele>
        <time>2015-11-02T22:03:30.000Z</time>
      </trkpt>
      <trkpt lat="48.85115" lon="2.35128">
        <ele>35.599998474121</ele>
        <time>2015-11-02T22:03:33.000Z</time>
      </trkpt>
      <trkpt lat="48.85119" lon="2.35127">
        <ele>35.400001525879</ele>
        <time>2015-11-02T22:03:37.000Z</time>
      </trkpt>
      <trkpt lat="48.85123" lon="2.35101">
        <ele>36.799999237061</ele>
        <time>2015-11-02T22:03:57.000Z</time>
      </trkpt>
      <trkpt lat="48.85133" lon="2.35072">
        <ele>38</ele>
        <time>2015-11-02T22:04:01.000Z</time>
      </trkpt>
      <trkpt lat="48.85144" lon="2.35042">
        <ele>38.599998474121</ele>
        <time>2015-11-02T22:04:05.000Z</time>
      </trkpt>
      <trkpt lat="48.85154" lon="2.35012">
        <ele>38.799999237061</ele>
        <time>2015-11-02T22:04:09.000Z</time>
      </trkpt>
      <trkpt lat="48.85165" lon="2.34988">
        <ele>38.400001525879</ele>
        <time>2015-11-02T22:04:12.000Z</time>
      </trkpt>
      <trkpt lat="48.85176" lon="2.34957">
        <ele>38.200000762939</ele>
        <time>2015-11-02T22:04:16.000Z</time>
      </trkpt>
      <trkpt lat="48.85188" lon="2.34927">
        <ele>38.599998474121</ele>
        <time>2015-11-02T22:04:20.000Z</time>
      </trkpt>
      <trkpt lat="48.85201" lon="2.34901">
        <ele>39.799999237061</ele>
        <time>2015-11-02T22:04:24.000Z</time>
      </trkpt>
      <trkpt lat="48.85212" lon="2.34879">
        <ele>41</ele>
        <time>2015-11-02T22:04:27.000Z</time>
      </trkpt>
      <trkpt lat="48.85223" lon="2.34848">
        <ele>40.599998474121</ele>
        <time>2015-11-02T22:04:31.000Z</time>
      </trkpt>
      <trkpt lat="48.85233" lon="2.34823">
        <ele>38.400001525879</ele>
        <time>2015-11-02T22:04:34.000Z</time>
      </trkpt>
      <trkpt lat="48.8524" lon="2.34808">
        <ele>38</ele>
        <time>2015-11-02T22:04:36.000Z</time>
      </trkpt>
      <trkpt lat="48.85248" lon="2.34793">
        <ele>38</ele>
        <time>2015-11-02T22:04:38.000Z</time>
      </trkpt>
      <trkpt lat="48.85259" lon="2.34771">
        <ele>38</ele>
        <time>2015-11-02T22:04:41.000Z</time>
      </trkpt>
      <trkpt lat="48.85274" lon="2.34742">
        <ele>38.400001525879</ele>
        <time>2015-11-02T22:04:45.000Z</time>
      </trkpt>
      <trkpt lat="48.85289" lon="2.34715">
        <ele>40.799999237061</ele>
        <time>2015-11-02T22:04:49.000Z</time>
      </trkpt>
      <trkpt lat="48.85304" lon="2.34691">
        <ele>42.799999237061</ele>
        <time>2015-11-02T22:04:53.000Z</time>
      </trkpt>
      <trkpt lat="48.8531" lon="2.34685">
        <ele>42.599998474121</ele>
        <time>2015-11-02T22:04:55.000Z</time>
      </trkpt>
      <trkpt lat="48.8532" lon="2.34665">
        <ele>42.599998474121</ele>
        <time>2015-11-02T22:05:11.000Z</time>
      </trkpt>
      <trkpt lat="48.85326" lon="2.34638">
        <ele>42.200000762939</ele>
        <time>2015-11-02T22:05:16.000Z</time>
      </trkpt>
      <trkpt lat="48.85334" lon="2.34606">
        <ele>42.400001525879</ele>
        <time>2015-11-02T22:05:21.000Z</time>
      </trkpt>
      <trkpt lat="48.85342" lon="2.34576">
        <ele>42.799999237061</ele>
        <time>2015-11-02T22:05:25.000Z</time>
      </trkpt>
      <trkpt lat="48.85351" lon="2.34544">
        <ele>43.200000762939</ele>
        <time>2015-11-02T22:05:29.000Z</time>
      </trkpt>
      <trkpt lat="48.8536" lon="2.34513">
        <ele>43.599998474121</ele>
        <time>2015-11-02T22:05:33.000Z</time>
      </trkpt>
      <trkpt lat="48.85365" lon="2.34482">
        <ele>43.599998474121</ele>
        <time>2015-11-02T22:05:37.000Z</time>
      </trkpt>
      <trkpt lat="48.85366" lon="2.34476">
        <ele>43.599998474121</ele>
        <time>2015-11-02T22:05:38.000Z</time>
      </trkpt>
      <trkpt lat="48.85375" lon="2.34454">
        <ele>43.400001525879</ele>
        <time>2015-11-02T22:05:51.000Z</time>
      </trkpt>
      <trkpt lat="48.85382" lon="2.34449">
        <ele>43</ele>
        <time>2015-11-02T22:05:57.000Z</time>
      </trkpt>
      <trkpt lat="48.85391" lon="2.34456">
        <ele>42.799999237061</ele>
        <time>2015-11-02T22:06:01.000Z</time>
      </trkpt>
      <trkpt lat="48.85406" lon="2.34471">
        <ele>42.200000762939</ele>
        <time>2015-11-02T22:06:06.000Z</time>
      </trkpt>
      <trkpt lat="48.85414" lon="2.34477">
        <ele>42</ele>
        <time>2015-11-02T22:06:08.000Z</time>
      </trkpt>
      <trkpt lat="48.85434" lon="2.34492">
        <ele>41.200000762939</ele>
        <time>2015-11-02T22:06:13.000Z</time>
      </trkpt>
      <trkpt lat="48.8545" lon="2.34507">
        <ele>41.799999237061</ele>
        <time>2015-11-02T22:06:17.000Z</time>
      </trkpt>
      <trkpt lat="48.85466" lon="2.34523">
        <ele>42.799999237061</ele>
        <time>2015-11-02T22:06:21.000Z</time>
      </trkpt>
      <trkpt lat="48.85485" lon="2.34541">
        <ele>44.200000762939</ele>
        <time>2015-11-02T22:06:25.000Z</time>
      </trkpt>
      <trkpt lat="48.85502" lon="2.34558">
        <ele>45.400001525879</ele>
        <time>2015-11-02T22:06:29.000Z</time>
      </trkpt>
      <trkpt lat="48.85512" lon="2.34566">
        <ele>46.200000762939</ele>
        <time>2015-11-02T22:06:31.000Z</time>
      </trkpt>
      <trkpt lat="48.8553" lon="2.34578">
        <ele>47</ele>
        <time>2015-11-02T22:06:34.000Z</time>
      </trkpt>
      <trkpt lat="48.85536" lon="2.34581">
        <ele>47.200000762939</ele>
        <time>2015-11-02T22:06:35.000Z</time>
      </trkpt>
      <trkpt lat="48.85553" lon="2.34593">
        <ele>47.400001525879</ele>
        <time>2015-11-02T22:06:38.000Z</time>
      </trkpt>
      <trkpt lat="48.85575" lon="2.34604">
        <ele>47.599998474121</ele>
        <time>2015-11-02T22:06:42.000Z</time>
      </trkpt>
      <trkpt lat="48.85589" lon="2.34609">
        <ele>47.799999237061</ele>
        <time>2015-11-02T22:06:45.000Z</time>
      </trkpt>
      <trkpt lat="48.85614" lon="2.34618">
        <ele>47.400001525879</ele>
        <time>2015-11-02T22:06:50.000Z</time>
      </trkpt>
      <trkpt lat="48.85629" lon="2.34624">
        <ele>46</ele>
        <time>2015-11-02T22:06:53.000Z</time>
      </trkpt>
      <trkpt lat="48.85647" lon="2.34636">
        <ele>44.599998474121</ele>
        <time>2015-11-02T22:06:57.000Z</time>
      </trkpt>
      <trkpt lat="48.8566" lon="2.34643">
        <ele>43.400001525879</ele>
        <time>2015-11-02T22:07:00.000Z</time>
      </trkpt>
      <trkpt lat="48.85678" lon="2.34658">
        <ele>42</ele>
        <time>2015-11-02T22:07:05.000Z</time>
      </trkpt>
      <trkpt lat="48.85681" lon="2.3466">
        <ele>41.599998474121</ele>
        <time>2015-11-02T22:07:06.000Z</time>
      </trkpt>
      <trkpt lat="48.857" lon="2.34672">
        <ele>40.799999237061</ele>
        <time>2015-11-02T22:07:11.000Z</time>
      </trkpt>
      <trkpt lat="48.85715" lon="2.34681">
        <ele>40.400001525879</ele>
        <time>2015-11-02T22:07:15.000Z</time>
      </trkpt>
      <trkpt lat="48.85724" lon="2.34677">
        <ele>39.799999237061</ele>
        <time>2015-11-02T22:07:19.000Z</time>
      </trkpt>
      <trkpt lat="48.8574" lon="2.34683">
        <ele>39.200000762939</ele>
        <time>2015-11-02T22:08:05.000Z</time>
      </trkpt>
      <trkpt lat="48.85759" lon="2.34693">
        <ele>38.599998474121</ele>
        <time>2015-11-02T22:08:10.000Z</time>
      </trkpt>
      <trkpt lat="48.85779" lon="2.34708">
        <ele>39.200000762939</ele>
        <time>2015-11-02T22:08:15.000Z</time>
      </trkpt>
      <trkpt lat="48.858" lon="2.34719">
        <ele>41.200000762939</ele>
        <time>2015-11-02T22:08:20.000Z</time>
      </trkpt>
      <trkpt lat="48.85819" lon="2.34728">
        <ele>43.200000762939</ele>
        <time>2015-11-02T22:08:24.000Z</time>
      </trkpt>
      <trkpt lat="48.85839" lon="2.34732">
        <ele>45</ele>
        <time>2015-11-02T22:08:28.000Z</time>
      </trkpt>
      <trkpt lat="48.8586" lon="2.34736">
        <ele>47.200000762939</ele>
        <time>2015-11-02T22:08:32.000Z</time>
      </trkpt>
      <trkpt lat="48.85879" lon="2.34741">
        <ele>46.400001525879</ele>
        <time>2015-11-02T22:08:36.000Z</time>
      </trkpt>
      <trkpt lat="48.85888" lon="2.34741">
        <ele>46</ele>
        <time>2015-11-02T22:08:38.000Z</time>
      </trkpt>
      <trkpt lat="48.85898" lon="2.34739">
        <ele>45.799999237061</ele>
        <time>2015-11-02T22:08:40.000Z</time>
      </trkpt>
      <trkpt lat="48.85915" lon="2.34727">
        <ele>45.400001525879</ele>
        <time>2015-11-02T22:08:44.000Z</time>
      </trkpt>
      <trkpt lat="48.85933" lon="2.34714">
        <ele>45.400001525879</ele>
        <time>2015-11-02T22:08:48.000Z</time>
      </trkpt>
      <trkpt lat="48.85943" lon="2.34711">
        <ele>45.400001525879</ele>
        <time>2015-11-02T22:08:51.000Z</time>
      </trkpt>
      <trkpt lat="48.85952" lon="2.34716">
        <ele>45.200000762939</ele>
        <time>2015-11-02T22:08:54.000Z</time>
      </trkpt>
      <trkpt lat="48.85959" lon="2.34727">
        <ele>45</ele>
        <time>2015-11-02T22:09:00.000Z</time>
      </trkpt>
      <trkpt lat="48.85958" lon="2.34729">
        <ele>45</ele>
        <time>2015-11-02T22:09:01.000Z</time>
      </trkpt>
      <trkpt lat="48.85965" lon="2.34731">
        <ele>44.799999237061</ele>
        <time>2015-11-02T22:09:16.000Z</time>
      </trkpt>
    </trkseg>
  </trk>
</gpx>